<?xml version="1.0"?>
<gpx xmlns="http://www.topografix.com/GPX/1/1" xmlns:xsi="http://www.w3.org/2001/XMLSchema-instance" version="1.1" creator="GPX RubyGem 1.0.0 -- http://dougfales.github.io/gpx/" xsi:schemaLocation="http://www.topografix.com/GPX/1/1 http://www.topografix.com/GPX/1/1/gpx.xsd">
  <metadata>
    <name/>
    <time>2026-05-07T22:32:28+00:00</time>
    <bound minlat="90.0" minlon="180.0" maxlat="-90.0" maxlon="-180.0"/>
  </metadata>
  <trk>
    <name/>
    <trkseg>
      <trkpt lat="42.680850774" lon="0.1389470603">
        <time>2022-03-01T06:52:05+00:00</time>
        <ele>1842.0</ele>
      </trkpt>
      <trkpt lat="42.6808448229" lon="0.1389563642">
        <time>2022-03-01T06:52:23+00:00</time>
        <ele>1841.0</ele>
      </trkpt>
      <trkpt lat="42.6808337588" lon="0.1389625669">
        <time>2022-03-01T06:52:45+00:00</time>
        <ele>1841.0</ele>
      </trkpt>
      <trkpt lat="42.6808247063" lon="0.1389856171">
        <time>2022-03-01T06:53:06+00:00</time>
        <ele>1840.0</ele>
      </trkpt>
      <trkpt lat="42.6808511093" lon="0.13893147">
        <time>2022-03-01T06:53:28+00:00</time>
        <ele>1842.0</ele>
      </trkpt>
      <trkpt lat="42.6808486786" lon="0.1389268599">
        <time>2022-03-01T06:53:45+00:00</time>
        <ele>1842.0</ele>
      </trkpt>
      <trkpt lat="42.6808852237" lon="0.1388196554">
        <time>2022-03-01T06:53:52+00:00</time>
        <ele>1845.0</ele>
      </trkpt>
      <trkpt lat="42.6809681207" lon="0.138647994">
        <time>2022-03-01T06:54:04+00:00</time>
        <ele>1850.0</ele>
      </trkpt>
      <trkpt lat="42.6809997205" lon="0.1385829505">
        <time>2022-03-01T06:54:09+00:00</time>
        <ele>1853.0</ele>
      </trkpt>
      <trkpt lat="42.6811005548" lon="0.138389999">
        <time>2022-03-01T06:54:25+00:00</time>
        <ele>1858.0</ele>
      </trkpt>
      <trkpt lat="42.6811887324" lon="0.1382851414">
        <time>2022-03-01T06:54:35+00:00</time>
        <ele>1862.0</ele>
      </trkpt>
      <trkpt lat="42.6813603099" lon="0.1381601673">
        <time>2022-03-01T06:54:52+00:00</time>
        <ele>1870.0</ele>
      </trkpt>
      <trkpt lat="42.6815569494" lon="0.1379948761">
        <time>2022-03-01T06:55:11+00:00</time>
        <ele>1874.0</ele>
      </trkpt>
      <trkpt lat="42.6816457976" lon="0.1378733385">
        <time>2022-03-01T06:55:20+00:00</time>
        <ele>1876.0</ele>
      </trkpt>
      <trkpt lat="42.6817106735" lon="0.1376935467">
        <time>2022-03-01T06:55:33+00:00</time>
        <ele>1874.0</ele>
      </trkpt>
      <trkpt lat="42.6818215661" lon="0.1375017688">
        <time>2022-03-01T06:55:48+00:00</time>
        <ele>1874.0</ele>
      </trkpt>
      <trkpt lat="42.6818760484" lon="0.1372275967">
        <time>2022-03-01T06:56:07+00:00</time>
        <ele>1870.0</ele>
      </trkpt>
      <trkpt lat="42.6819632202" lon="0.1369033009">
        <time>2022-03-01T06:56:26+00:00</time>
        <ele>1869.0</ele>
      </trkpt>
      <trkpt lat="42.6821088139" lon="0.1366302185">
        <time>2022-03-01T06:56:45+00:00</time>
        <ele>1873.0</ele>
      </trkpt>
      <trkpt lat="42.6821959019" lon="0.1363531966">
        <time>2022-03-01T06:57:02+00:00</time>
        <ele>1876.0</ele>
      </trkpt>
      <trkpt lat="42.6822432596" lon="0.1362592354">
        <time>2022-03-01T06:57:10+00:00</time>
        <ele>1877.0</ele>
      </trkpt>
      <trkpt lat="42.6823419984" lon="0.1359614264">
        <time>2022-03-01T06:57:29+00:00</time>
        <ele>1875.0</ele>
      </trkpt>
      <trkpt lat="42.6823881827" lon="0.1357125677">
        <time>2022-03-01T06:57:47+00:00</time>
        <ele>1874.0</ele>
      </trkpt>
      <trkpt lat="42.6824287511" lon="0.1354903635">
        <time>2022-03-01T06:58:02+00:00</time>
        <ele>1875.0</ele>
      </trkpt>
      <trkpt lat="42.6824131608" lon="0.1352593582">
        <time>2022-03-01T06:58:18+00:00</time>
        <ele>1872.0</ele>
      </trkpt>
      <trkpt lat="42.6824087184" lon="0.1350430213">
        <time>2022-03-01T06:58:33+00:00</time>
        <ele>1871.0</ele>
      </trkpt>
      <trkpt lat="42.6824165136" lon="0.1348118484">
        <time>2022-03-01T06:58:49+00:00</time>
        <ele>1873.0</ele>
      </trkpt>
      <trkpt lat="42.682474684" lon="0.1345488243">
        <time>2022-03-01T06:59:06+00:00</time>
        <ele>1878.0</ele>
      </trkpt>
      <trkpt lat="42.6824602671" lon="0.1345412806">
        <time>2022-03-01T06:59:26+00:00</time>
        <ele>1878.0</ele>
      </trkpt>
      <trkpt lat="42.6824787911" lon="0.1345282886">
        <time>2022-03-01T06:59:42+00:00</time>
        <ele>1879.0</ele>
      </trkpt>
      <trkpt lat="42.6824734267" lon="0.1345374249">
        <time>2022-03-01T06:59:57+00:00</time>
        <ele>1878.0</ele>
      </trkpt>
      <trkpt lat="42.682441324" lon="0.134552177">
        <time>2022-03-01T07:00:19+00:00</time>
        <ele>1876.0</ele>
      </trkpt>
      <trkpt lat="42.6824841555" lon="0.1345726289">
        <time>2022-03-01T07:00:40+00:00</time>
        <ele>1879.0</ele>
      </trkpt>
      <trkpt lat="42.682491364" lon="0.1344411168">
        <time>2022-03-01T07:00:54+00:00</time>
        <ele>1880.0</ele>
      </trkpt>
      <trkpt lat="42.6825343631" lon="0.1342619117">
        <time>2022-03-01T07:01:07+00:00</time>
        <ele>1884.0</ele>
      </trkpt>
      <trkpt lat="42.6825388893" lon="0.1342533622">
        <time>2022-03-01T07:01:08+00:00</time>
        <ele>1885.0</ele>
      </trkpt>
      <trkpt lat="42.6825357042" lon="0.1341671124">
        <time>2022-03-01T07:01:17+00:00</time>
        <ele>1885.0</ele>
      </trkpt>
      <trkpt lat="42.6825400628" lon="0.1341094449">
        <time>2022-03-01T07:01:23+00:00</time>
        <ele>1886.0</ele>
      </trkpt>
      <trkpt lat="42.6825220417" lon="0.1340565551">
        <time>2022-03-01T07:01:28+00:00</time>
        <ele>1885.0</ele>
      </trkpt>
      <trkpt lat="42.682469571" lon="0.1339596603">
        <time>2022-03-01T07:01:37+00:00</time>
        <ele>1883.0</ele>
      </trkpt>
      <trkpt lat="42.6824175194" lon="0.1338035055">
        <time>2022-03-01T07:01:50+00:00</time>
        <ele>1882.0</ele>
      </trkpt>
      <trkpt lat="42.6824146695" lon="0.1337331813">
        <time>2022-03-01T07:01:54+00:00</time>
        <ele>1883.0</ele>
      </trkpt>
      <trkpt lat="42.6824171841" lon="0.1334523875">
        <time>2022-03-01T07:02:10+00:00</time>
        <ele>1884.0</ele>
      </trkpt>
      <trkpt lat="42.682401007" lon="0.1333828177">
        <time>2022-03-01T07:02:15+00:00</time>
        <ele>1884.0</ele>
      </trkpt>
      <trkpt lat="42.6823403221" lon="0.1331671514">
        <time>2022-03-01T07:02:30+00:00</time>
        <ele>1883.0</ele>
      </trkpt>
      <trkpt lat="42.6823079679" lon="0.1329613756">
        <time>2022-03-01T07:02:44+00:00</time>
        <ele>1884.0</ele>
      </trkpt>
      <trkpt lat="42.6822964009" lon="0.132759288">
        <time>2022-03-01T07:02:58+00:00</time>
        <ele>1885.0</ele>
      </trkpt>
      <trkpt lat="42.6823183615" lon="0.1326332241">
        <time>2022-03-01T07:03:07+00:00</time>
        <ele>1887.0</ele>
      </trkpt>
      <trkpt lat="42.6823392324" lon="0.1325142011">
        <time>2022-03-01T07:03:16+00:00</time>
        <ele>1890.0</ele>
      </trkpt>
      <trkpt lat="42.6823549066" lon="0.1324845292">
        <time>2022-03-01T07:03:19+00:00</time>
        <ele>1890.0</ele>
      </trkpt>
      <trkpt lat="42.6824412402" lon="0.1322984509">
        <time>2022-03-01T07:03:35+00:00</time>
        <ele>1895.0</ele>
      </trkpt>
      <trkpt lat="42.6825274061" lon="0.1320951898">
        <time>2022-03-01T07:03:50+00:00</time>
        <ele>1899.0</ele>
      </trkpt>
      <trkpt lat="42.6826144941" lon="0.1318671182">
        <time>2022-03-01T07:04:09+00:00</time>
        <ele>1903.0</ele>
      </trkpt>
      <trkpt lat="42.6826680545" lon="0.1317147352">
        <time>2022-03-01T07:04:24+00:00</time>
        <ele>1905.0</ele>
      </trkpt>
      <trkpt lat="42.6827301644" lon="0.1315201912">
        <time>2022-03-01T07:04:41+00:00</time>
        <ele>1906.0</ele>
      </trkpt>
      <trkpt lat="42.6827776898" lon="0.1313658804">
        <time>2022-03-01T07:04:53+00:00</time>
        <ele>1907.0</ele>
      </trkpt>
      <trkpt lat="42.6827906817" lon="0.131288683">
        <time>2022-03-01T07:04:59+00:00</time>
        <ele>1908.0</ele>
      </trkpt>
      <trkpt lat="42.6828116365" lon="0.1310835779">
        <time>2022-03-01T07:05:15+00:00</time>
        <ele>1908.0</ele>
      </trkpt>
      <trkpt lat="42.682810463" lon="0.1309270039">
        <time>2022-03-01T07:05:26+00:00</time>
        <ele>1908.0</ele>
      </trkpt>
      <trkpt lat="42.6828161627" lon="0.1306860242">
        <time>2022-03-01T07:05:41+00:00</time>
        <ele>1909.0</ele>
      </trkpt>
      <trkpt lat="42.6827904303" lon="0.1304912288">
        <time>2022-03-01T07:05:55+00:00</time>
        <ele>1908.0</ele>
      </trkpt>
      <trkpt lat="42.6827465091" lon="0.130293332">
        <time>2022-03-01T07:06:09+00:00</time>
        <ele>1907.0</ele>
      </trkpt>
      <trkpt lat="42.6826921944" lon="0.1300461497">
        <time>2022-03-01T07:06:26+00:00</time>
        <ele>1907.0</ele>
      </trkpt>
      <trkpt lat="42.6826903503" lon="0.1300311461">
        <time>2022-03-01T07:06:27+00:00</time>
        <ele>1907.0</ele>
      </trkpt>
      <trkpt lat="42.6826353651" lon="0.1299198344">
        <time>2022-03-01T07:06:36+00:00</time>
        <ele>1908.0</ele>
      </trkpt>
      <trkpt lat="42.6825563237" lon="0.1297336724">
        <time>2022-03-01T07:06:50+00:00</time>
        <ele>1908.0</ele>
      </trkpt>
      <trkpt lat="42.6825540606" lon="0.1296304073">
        <time>2022-03-01T07:06:58+00:00</time>
        <ele>1909.0</ele>
      </trkpt>
      <trkpt lat="42.6825554855" lon="0.1296140626">
        <time>2022-03-01T07:06:59+00:00</time>
        <ele>1909.0</ele>
      </trkpt>
      <trkpt lat="42.6825262327" lon="0.1295957062">
        <time>2022-03-01T07:07:11+00:00</time>
        <ele>1908.0</ele>
      </trkpt>
      <trkpt lat="42.6825094689" lon="0.1296534576">
        <time>2022-03-01T07:07:24+00:00</time>
        <ele>1908.0</ele>
      </trkpt>
      <trkpt lat="42.6825243048" lon="0.1296218578">
        <time>2022-03-01T07:07:43+00:00</time>
        <ele>1908.0</ele>
      </trkpt>
      <trkpt lat="42.682491364" lon="0.1296196785">
        <time>2022-03-01T07:08:01+00:00</time>
        <ele>1908.0</ele>
      </trkpt>
      <trkpt lat="42.6824380551" lon="0.1296511106">
        <time>2022-03-01T07:08:06+00:00</time>
        <ele>1908.0</ele>
      </trkpt>
      <trkpt lat="42.6823627856" lon="0.1296818722">
        <time>2022-03-01T07:08:14+00:00</time>
        <ele>1907.0</ele>
      </trkpt>
      <trkpt lat="42.6822746918" lon="0.1296859793">
        <time>2022-03-01T07:08:30+00:00</time>
        <ele>1905.0</ele>
      </trkpt>
      <trkpt lat="42.6822225563" lon="0.1295979694">
        <time>2022-03-01T07:08:43+00:00</time>
        <ele>1905.0</ele>
      </trkpt>
      <trkpt lat="42.6822280884" lon="0.1295001525">
        <time>2022-03-01T07:08:54+00:00</time>
        <ele>1905.0</ele>
      </trkpt>
      <trkpt lat="42.6822127495" lon="0.1293739211">
        <time>2022-03-01T07:09:08+00:00</time>
        <ele>1905.0</ele>
      </trkpt>
      <trkpt lat="42.6821732707" lon="0.1292702369">
        <time>2022-03-01T07:09:22+00:00</time>
        <ele>1905.0</ele>
      </trkpt>
      <trkpt lat="42.6821317803" lon="0.1292499527">
        <time>2022-03-01T07:09:40+00:00</time>
        <ele>1905.0</ele>
      </trkpt>
      <trkpt lat="42.6821218058" lon="0.1292713266">
        <time>2022-03-01T07:09:55+00:00</time>
        <ele>1905.0</ele>
      </trkpt>
      <trkpt lat="42.6821501367" lon="0.1292776968">
        <time>2022-03-01T07:10:19+00:00</time>
        <ele>1905.0</ele>
      </trkpt>
      <trkpt lat="42.6821613684" lon="0.1292695664">
        <time>2022-03-01T07:10:37+00:00</time>
        <ele>1905.0</ele>
      </trkpt>
      <trkpt lat="42.6821482088" lon="0.1292661298">
        <time>2022-03-01T07:10:40+00:00</time>
        <ele>1905.0</ele>
      </trkpt>
      <trkpt lat="42.6821070537" lon="0.129138222">
        <time>2022-03-01T07:11:02+00:00</time>
        <ele>1906.0</ele>
      </trkpt>
      <trkpt lat="42.6820971631" lon="0.1291010901">
        <time>2022-03-01T07:11:05+00:00</time>
        <ele>1907.0</ele>
      </trkpt>
      <trkpt lat="42.6820604503" lon="0.1289577596">
        <time>2022-03-01T07:11:19+00:00</time>
        <ele>1910.0</ele>
      </trkpt>
      <trkpt lat="42.6820597798" lon="0.1288233977">
        <time>2022-03-01T07:11:33+00:00</time>
        <ele>1913.0</ele>
      </trkpt>
      <trkpt lat="42.6820622943" lon="0.12880194">
        <time>2022-03-01T07:11:42+00:00</time>
        <ele>1913.0</ele>
      </trkpt>
      <trkpt lat="42.6820385735" lon="0.12867596">
        <time>2022-03-01T07:11:50+00:00</time>
        <ele>1915.0</ele>
      </trkpt>
      <trkpt lat="42.6820130087" lon="0.1284713577">
        <time>2022-03-01T07:12:04+00:00</time>
        <ele>1919.0</ele>
      </trkpt>
      <trkpt lat="42.6820214745" lon="0.1284390874">
        <time>2022-03-01T07:12:07+00:00</time>
        <ele>1919.0</ele>
      </trkpt>
      <trkpt lat="42.6820617076" lon="0.1282526739">
        <time>2022-03-01T07:12:22+00:00</time>
        <ele>1923.0</ele>
      </trkpt>
      <trkpt lat="42.6820500568" lon="0.1281503309">
        <time>2022-03-01T07:12:31+00:00</time>
        <ele>1924.0</ele>
      </trkpt>
      <trkpt lat="42.6820135955" lon="0.1279781666">
        <time>2022-03-01T07:12:45+00:00</time>
        <ele>1927.0</ele>
      </trkpt>
      <trkpt lat="42.6819949877" lon="0.1278427988">
        <time>2022-03-01T07:12:56+00:00</time>
        <ele>1929.0</ele>
      </trkpt>
      <trkpt lat="42.6820083149" lon="0.1278006379">
        <time>2022-03-01T07:12:59+00:00</time>
        <ele>1930.0</ele>
      </trkpt>
      <trkpt lat="42.682084674" lon="0.1277096942">
        <time>2022-03-01T07:13:08+00:00</time>
        <ele>1930.0</ele>
      </trkpt>
      <trkpt lat="42.6822023559" lon="0.1276185829">
        <time>2022-03-01T07:13:20+00:00</time>
        <ele>1930.0</ele>
      </trkpt>
      <trkpt lat="42.6824077964" lon="0.1274936926">
        <time>2022-03-01T07:13:33+00:00</time>
        <ele>1930.0</ele>
      </trkpt>
      <trkpt lat="42.6824928727" lon="0.1274570636">
        <time>2022-03-01T07:13:47+00:00</time>
        <ele>1930.0</ele>
      </trkpt>
      <trkpt lat="42.6825471874" lon="0.1273983065">
        <time>2022-03-01T07:14:07+00:00</time>
        <ele>1931.0</ele>
      </trkpt>
      <trkpt lat="42.6826193556" lon="0.127280876">
        <time>2022-03-01T07:14:19+00:00</time>
        <ele>1932.0</ele>
      </trkpt>
      <trkpt lat="42.6826454233" lon="0.1272512041">
        <time>2022-03-01T07:14:22+00:00</time>
        <ele>1932.0</ele>
      </trkpt>
      <trkpt lat="42.6826862432" lon="0.1271740906">
        <time>2022-03-01T07:14:28+00:00</time>
        <ele>1933.0</ele>
      </trkpt>
      <trkpt lat="42.6827234589" lon="0.1270691492">
        <time>2022-03-01T07:14:35+00:00</time>
        <ele>1934.0</ele>
      </trkpt>
      <trkpt lat="42.6827343553" lon="0.1270412374">
        <time>2022-03-01T07:14:37+00:00</time>
        <ele>1934.0</ele>
      </trkpt>
      <trkpt lat="42.6827931963" lon="0.1268730126">
        <time>2022-03-01T07:14:50+00:00</time>
        <ele>1935.0</ele>
      </trkpt>
      <trkpt lat="42.6828126423" lon="0.1267118286">
        <time>2022-03-01T07:15:05+00:00</time>
        <ele>1936.0</ele>
      </trkpt>
      <trkpt lat="42.6827959623" lon="0.1265655644">
        <time>2022-03-01T07:15:19+00:00</time>
        <ele>1936.0</ele>
      </trkpt>
      <trkpt lat="42.6827069465" lon="0.1264550071">
        <time>2022-03-01T07:15:35+00:00</time>
        <ele>1936.0</ele>
      </trkpt>
      <trkpt lat="42.6827843953" lon="0.1264058892">
        <time>2022-03-01T07:15:44+00:00</time>
        <ele>1937.0</ele>
      </trkpt>
      <trkpt lat="42.6827892568" lon="0.1264042128">
        <time>2022-03-01T07:15:45+00:00</time>
        <ele>1937.0</ele>
      </trkpt>
      <trkpt lat="42.6827865746" lon="0.1263079885">
        <time>2022-03-01T07:16:01+00:00</time>
        <ele>1939.0</ele>
      </trkpt>
      <trkpt lat="42.6827672962" lon="0.1262656599">
        <time>2022-03-01T07:16:06+00:00</time>
        <ele>1939.0</ele>
      </trkpt>
      <trkpt lat="42.6827237941" lon="0.1261204015">
        <time>2022-03-01T07:16:21+00:00</time>
        <ele>1941.0</ele>
      </trkpt>
      <trkpt lat="42.6827580761" lon="0.1260692719">
        <time>2022-03-01T07:16:31+00:00</time>
        <ele>1942.0</ele>
      </trkpt>
      <trkpt lat="42.6828677952" lon="0.1260793302">
        <time>2022-03-01T07:16:48+00:00</time>
        <ele>1943.0</ele>
      </trkpt>
      <trkpt lat="42.682802584" lon="0.1260226686">
        <time>2022-03-01T07:16:58+00:00</time>
        <ele>1943.0</ele>
      </trkpt>
      <trkpt lat="42.6827542204" lon="0.1259100158">
        <time>2022-03-01T07:17:13+00:00</time>
        <ele>1944.0</ele>
      </trkpt>
      <trkpt lat="42.6827041805" lon="0.1257923339">
        <time>2022-03-01T07:17:34+00:00</time>
        <ele>1944.0</ele>
      </trkpt>
      <trkpt lat="42.6827411447" lon="0.1257687807">
        <time>2022-03-01T07:17:48+00:00</time>
        <ele>1945.0</ele>
      </trkpt>
      <trkpt lat="42.68285539" lon="0.1258222573">
        <time>2022-03-01T07:18:04+00:00</time>
        <ele>1946.0</ele>
      </trkpt>
      <trkpt lat="42.6829658635" lon="0.125878416">
        <time>2022-03-01T07:18:21+00:00</time>
        <ele>1948.0</ele>
      </trkpt>
      <trkpt lat="42.6830023248" lon="0.1258588862">
        <time>2022-03-01T07:18:35+00:00</time>
        <ele>1949.0</ele>
      </trkpt>
      <trkpt lat="42.6829909254" lon="0.1258361712">
        <time>2022-03-01T07:18:56+00:00</time>
        <ele>1949.0</ele>
      </trkpt>
      <trkpt lat="42.6830366906" lon="0.1258253586">
        <time>2022-03-01T07:19:16+00:00</time>
        <ele>1950.0</ele>
      </trkpt>
      <trkpt lat="42.6829759218" lon="0.1258036494">
        <time>2022-03-01T07:19:41+00:00</time>
        <ele>1949.0</ele>
      </trkpt>
      <trkpt lat="42.6830078568" lon="0.1258646697">
        <time>2022-03-01T07:20:06+00:00</time>
        <ele>1949.0</ele>
      </trkpt>
      <trkpt lat="42.6830242015" lon="0.125805242">
        <time>2022-03-01T07:20:17+00:00</time>
        <ele>1950.0</ele>
      </trkpt>
      <trkpt lat="42.6830797736" lon="0.1256975345">
        <time>2022-03-01T07:20:31+00:00</time>
        <ele>1953.0</ele>
      </trkpt>
      <trkpt lat="42.6831043325" lon="0.1255703811">
        <time>2022-03-01T07:20:46+00:00</time>
        <ele>1956.0</ele>
      </trkpt>
      <trkpt lat="42.6830221899" lon="0.1255440619">
        <time>2022-03-01T07:21:01+00:00</time>
        <ele>1955.0</ele>
      </trkpt>
      <trkpt lat="42.6828688849" lon="0.1254428085">
        <time>2022-03-01T07:21:24+00:00</time>
        <ele>1955.0</ele>
      </trkpt>
      <trkpt lat="42.6829446573" lon="0.1253514457">
        <time>2022-03-01T07:21:38+00:00</time>
        <ele>1959.0</ele>
      </trkpt>
      <trkpt lat="42.6830079406" lon="0.1252740808">
        <time>2022-03-01T07:21:53+00:00</time>
        <ele>1963.0</ele>
      </trkpt>
      <trkpt lat="42.6829612534" lon="0.1252713148">
        <time>2022-03-01T07:22:05+00:00</time>
        <ele>1962.0</ele>
      </trkpt>
      <trkpt lat="42.682836866" lon="0.1252631843">
        <time>2022-03-01T07:22:22+00:00</time>
        <ele>1959.0</ele>
      </trkpt>
      <trkpt lat="42.6827279013" lon="0.1252200175">
        <time>2022-03-01T07:22:36+00:00</time>
        <ele>1958.0</ele>
      </trkpt>
      <trkpt lat="42.6827896759" lon="0.1251681335">
        <time>2022-03-01T07:22:55+00:00</time>
        <ele>1961.0</ele>
      </trkpt>
      <trkpt lat="42.6828723215" lon="0.1251463406">
        <time>2022-03-01T07:23:08+00:00</time>
        <ele>1964.0</ele>
      </trkpt>
      <trkpt lat="42.6829501893" lon="0.1250824705">
        <time>2022-03-01T07:23:22+00:00</time>
        <ele>1968.0</ele>
      </trkpt>
      <trkpt lat="42.6829956193" lon="0.1250082068">
        <time>2022-03-01T07:23:34+00:00</time>
        <ele>1971.0</ele>
      </trkpt>
      <trkpt lat="42.682999894" lon="0.1249608491">
        <time>2022-03-01T07:23:52+00:00</time>
        <ele>1973.0</ele>
      </trkpt>
      <trkpt lat="42.6828897558" lon="0.1250041835">
        <time>2022-03-01T07:24:04+00:00</time>
        <ele>1970.0</ele>
      </trkpt>
      <trkpt lat="42.6828077808" lon="0.1249727514">
        <time>2022-03-01T07:24:18+00:00</time>
        <ele>1969.0</ele>
      </trkpt>
      <trkpt lat="42.6826930325" lon="0.1249256451">
        <time>2022-03-01T07:24:34+00:00</time>
        <ele>1967.0</ele>
      </trkpt>
      <trkpt lat="42.6826674677" lon="0.1248367969">
        <time>2022-03-01T07:24:48+00:00</time>
        <ele>1970.0</ele>
      </trkpt>
      <trkpt lat="42.6827366184" lon="0.1248341985">
        <time>2022-03-01T07:25:04+00:00</time>
        <ele>1973.0</ele>
      </trkpt>
      <trkpt lat="42.6828249637" lon="0.1247621141">
        <time>2022-03-01T07:25:19+00:00</time>
        <ele>1979.0</ele>
      </trkpt>
      <trkpt lat="42.6828048471" lon="0.1246843301">
        <time>2022-03-01T07:25:33+00:00</time>
        <ele>1983.0</ele>
      </trkpt>
      <trkpt lat="42.682693284" lon="0.1246859226">
        <time>2022-03-01T07:25:49+00:00</time>
        <ele>1980.0</ele>
      </trkpt>
      <trkpt lat="42.6825924497" lon="0.1246272493">
        <time>2022-03-01T07:26:05+00:00</time>
        <ele>1980.0</ele>
      </trkpt>
      <trkpt lat="42.6826481894" lon="0.1245506387">
        <time>2022-03-01T07:26:24+00:00</time>
        <ele>1986.0</ele>
      </trkpt>
      <trkpt lat="42.6826909371" lon="0.1244654786">
        <time>2022-03-01T07:26:38+00:00</time>
        <ele>1992.0</ele>
      </trkpt>
      <trkpt lat="42.682678951" lon="0.1244258322">
        <time>2022-03-01T07:26:56+00:00</time>
        <ele>1994.0</ele>
      </trkpt>
      <trkpt lat="42.6826196909" lon="0.1244585216">
        <time>2022-03-01T07:27:04+00:00</time>
        <ele>1990.0</ele>
      </trkpt>
      <trkpt lat="42.6825018413" lon="0.1244196296">
        <time>2022-03-01T07:27:20+00:00</time>
        <ele>1988.0</ele>
      </trkpt>
      <trkpt lat="42.6825290825" lon="0.1243338827">
        <time>2022-03-01T07:27:37+00:00</time>
        <ele>1993.0</ele>
      </trkpt>
      <trkpt lat="42.6825854089" lon="0.1243006904">
        <time>2022-03-01T07:27:50+00:00</time>
        <ele>1997.0</ele>
      </trkpt>
      <trkpt lat="42.6826393045" lon="0.1242125966">
        <time>2022-03-01T07:28:02+00:00</time>
        <ele>2002.0</ele>
      </trkpt>
      <trkpt lat="42.6826803759" lon="0.1241188031">
        <time>2022-03-01T07:28:15+00:00</time>
        <ele>2006.0</ele>
      </trkpt>
      <trkpt lat="42.6827573217" lon="0.1240204833">
        <time>2022-03-01T07:28:31+00:00</time>
        <ele>2010.0</ele>
      </trkpt>
      <trkpt lat="42.6827518735" lon="0.1240070723">
        <time>2022-03-01T07:28:50+00:00</time>
        <ele>2010.0</ele>
      </trkpt>
      <trkpt lat="42.6826933678" lon="0.1240505744">
        <time>2022-03-01T07:29:06+00:00</time>
        <ele>2008.0</ele>
      </trkpt>
      <trkpt lat="42.6825833973" lon="0.1240716968">
        <time>2022-03-01T07:29:21+00:00</time>
        <ele>2004.0</ele>
      </trkpt>
      <trkpt lat="42.6824958902" lon="0.1240639854">
        <time>2022-03-01T07:29:34+00:00</time>
        <ele>2001.0</ele>
      </trkpt>
      <trkpt lat="42.6824901905" lon="0.1240035519">
        <time>2022-03-01T07:29:49+00:00</time>
        <ele>2003.0</ele>
      </trkpt>
      <trkpt lat="42.6825452596" lon="0.1239319704">
        <time>2022-03-01T07:30:04+00:00</time>
        <ele>2009.0</ele>
      </trkpt>
      <trkpt lat="42.6826138236" lon="0.1238411106">
        <time>2022-03-01T07:30:22+00:00</time>
        <ele>2015.0</ele>
      </trkpt>
      <trkpt lat="42.6827268116" lon="0.123758968">
        <time>2022-03-01T07:30:39+00:00</time>
        <ele>2021.0</ele>
      </trkpt>
      <trkpt lat="42.6827686373" lon="0.1237178128">
        <time>2022-03-01T07:30:54+00:00</time>
        <ele>2023.0</ele>
      </trkpt>
      <trkpt lat="42.6827270631" lon="0.1237346604">
        <time>2022-03-01T07:31:12+00:00</time>
        <ele>2022.0</ele>
      </trkpt>
      <trkpt lat="42.682634946" lon="0.1237252727">
        <time>2022-03-01T07:31:25+00:00</time>
        <ele>2021.0</ele>
      </trkpt>
      <trkpt lat="42.6825227961" lon="0.1237255242">
        <time>2022-03-01T07:31:41+00:00</time>
        <ele>2018.0</ele>
      </trkpt>
      <trkpt lat="42.6824953035" lon="0.1237103529">
        <time>2022-03-01T07:31:54+00:00</time>
        <ele>2018.0</ele>
      </trkpt>
      <trkpt lat="42.6824850775" lon="0.1237094309">
        <time>2022-03-01T07:32:13+00:00</time>
        <ele>2017.0</ele>
      </trkpt>
      <trkpt lat="42.6825421583" lon="0.1236430462">
        <time>2022-03-01T07:32:34+00:00</time>
        <ele>2024.0</ele>
      </trkpt>
      <trkpt lat="42.6826061122" lon="0.1235724706">
        <time>2022-03-01T07:32:48+00:00</time>
        <ele>2030.0</ele>
      </trkpt>
      <trkpt lat="42.6826284081" lon="0.1235409547">
        <time>2022-03-01T07:33:04+00:00</time>
        <ele>2032.0</ele>
      </trkpt>
      <trkpt lat="42.6826829743" lon="0.1234869752">
        <time>2022-03-01T07:33:22+00:00</time>
        <ele>2036.0</ele>
      </trkpt>
      <trkpt lat="42.6827112213" lon="0.1234139688">
        <time>2022-03-01T07:33:39+00:00</time>
        <ele>2040.0</ele>
      </trkpt>
      <trkpt lat="42.6826985646" lon="0.1234607399">
        <time>2022-03-01T07:33:57+00:00</time>
        <ele>2038.0</ele>
      </trkpt>
      <trkpt lat="42.6826899312" lon="0.1234766655">
        <time>2022-03-01T07:34:11+00:00</time>
        <ele>2037.0</ele>
      </trkpt>
      <trkpt lat="42.6826289948" lon="0.1234623324">
        <time>2022-03-01T07:34:25+00:00</time>
        <ele>2037.0</ele>
      </trkpt>
      <trkpt lat="42.6825479418" lon="0.123438444">
        <time>2022-03-01T07:34:41+00:00</time>
        <ele>2037.0</ele>
      </trkpt>
      <trkpt lat="42.6825282443" lon="0.1234319899">
        <time>2022-03-01T07:34:59+00:00</time>
        <ele>2037.0</ele>
      </trkpt>
      <trkpt lat="42.6825784519" lon="0.1233920082">
        <time>2022-03-01T07:35:16+00:00</time>
        <ele>2040.0</ele>
      </trkpt>
      <trkpt lat="42.6826627739" lon="0.1233618334">
        <time>2022-03-01T07:35:31+00:00</time>
        <ele>2042.0</ele>
      </trkpt>
      <trkpt lat="42.6826930325" lon="0.1233029924">
        <time>2022-03-01T07:35:51+00:00</time>
        <ele>2045.0</ele>
      </trkpt>
      <trkpt lat="42.6827734988" lon="0.1232345123">
        <time>2022-03-01T07:36:06+00:00</time>
        <ele>2048.0</ele>
      </trkpt>
      <trkpt lat="42.6827977225" lon="0.1232088637">
        <time>2022-03-01T07:36:22+00:00</time>
        <ele>2048.0</ele>
      </trkpt>
      <trkpt lat="42.6828730758" lon="0.1231810357">
        <time>2022-03-01T07:36:39+00:00</time>
        <ele>2049.0</ele>
      </trkpt>
      <trkpt lat="42.682963768" lon="0.1231560577">
        <time>2022-03-01T07:36:57+00:00</time>
        <ele>2048.0</ele>
      </trkpt>
      <trkpt lat="42.6830568071" lon="0.1231509447">
        <time>2022-03-01T07:37:12+00:00</time>
        <ele>2047.0</ele>
      </trkpt>
      <trkpt lat="42.6830912568" lon="0.1231548004">
        <time>2022-03-01T07:37:34+00:00</time>
        <ele>2046.0</ele>
      </trkpt>
      <trkpt lat="42.683154121" lon="0.1230874937">
        <time>2022-03-01T07:37:50+00:00</time>
        <ele>2049.0</ele>
      </trkpt>
      <trkpt lat="42.6832090225" lon="0.1230843086">
        <time>2022-03-01T07:38:11+00:00</time>
        <ele>2048.0</ele>
      </trkpt>
      <trkpt lat="42.6832565479" lon="0.1230751723">
        <time>2022-03-01T07:38:28+00:00</time>
        <ele>2048.0</ele>
      </trkpt>
      <trkpt lat="42.683270881" lon="0.1230610069">
        <time>2022-03-01T07:38:46+00:00</time>
        <ele>2048.0</ele>
      </trkpt>
      <trkpt lat="42.6833005529" lon="0.1230634376">
        <time>2022-03-01T07:39:01+00:00</time>
        <ele>2048.0</ele>
      </trkpt>
      <trkpt lat="42.6833432168" lon="0.1230412256">
        <time>2022-03-01T07:39:13+00:00</time>
        <ele>2049.0</ele>
      </trkpt>
      <trkpt lat="42.6833946817" lon="0.1230293233">
        <time>2022-03-01T07:39:27+00:00</time>
        <ele>2049.0</ele>
      </trkpt>
      <trkpt lat="42.6834693644" lon="0.1229939517">
        <time>2022-03-01T07:39:43+00:00</time>
        <ele>2051.0</ele>
      </trkpt>
      <trkpt lat="42.6834968571" lon="0.1229818817">
        <time>2022-03-01T07:39:59+00:00</time>
        <ele>2051.0</ele>
      </trkpt>
      <trkpt lat="42.6834965218" lon="0.1229809597">
        <time>2022-03-01T07:40:18+00:00</time>
        <ele>2052.0</ele>
      </trkpt>
      <trkpt lat="42.6834993716" lon="0.1229693089">
        <time>2022-03-01T07:40:29+00:00</time>
        <ele>2052.0</ele>
      </trkpt>
      <trkpt lat="42.6834966056" lon="0.1229848154">
        <time>2022-03-01T07:40:31+00:00</time>
        <ele>2051.0</ele>
      </trkpt>
      <trkpt lat="42.68348529" lon="0.1229523774">
        <time>2022-03-01T07:40:49+00:00</time>
        <ele>2054.0</ele>
      </trkpt>
      <trkpt lat="42.6834914926" lon="0.122916922">
        <time>2022-03-01T07:41:08+00:00</time>
        <ele>2056.0</ele>
      </trkpt>
      <trkpt lat="42.6834966056" lon="0.1229855698">
        <time>2022-03-01T07:41:25+00:00</time>
        <ele>2051.0</ele>
      </trkpt>
      <trkpt lat="42.6835221704" lon="0.1230082009">
        <time>2022-03-01T07:41:49+00:00</time>
        <ele>2050.0</ele>
      </trkpt>
      <trkpt lat="42.6835181471" lon="0.1229594182">
        <time>2022-03-01T07:42:11+00:00</time>
        <ele>2053.0</ele>
      </trkpt>
      <trkpt lat="42.6834940072" lon="0.1229356136">
        <time>2022-03-01T07:42:38+00:00</time>
        <ele>2055.0</ele>
      </trkpt>
      <trkpt lat="42.6834963541" lon="0.1229478512">
        <time>2022-03-01T07:43:16+00:00</time>
        <ele>2054.0</ele>
      </trkpt>
      <trkpt lat="42.6835305523" lon="0.1229073666">
        <time>2022-03-01T07:43:37+00:00</time>
        <ele>2056.0</ele>
      </trkpt>
      <trkpt lat="42.6835915726" lon="0.1228305046">
        <time>2022-03-01T07:43:50+00:00</time>
        <ele>2060.0</ele>
      </trkpt>
      <trkpt lat="42.6836419478" lon="0.1227394771">
        <time>2022-03-01T07:44:05+00:00</time>
        <ele>2066.0</ele>
      </trkpt>
      <trkpt lat="42.6836641598" lon="0.1226782054">
        <time>2022-03-01T07:44:15+00:00</time>
        <ele>2069.0</ele>
      </trkpt>
      <trkpt lat="42.683673799" lon="0.1226675604">
        <time>2022-03-01T07:44:17+00:00</time>
        <ele>2070.0</ele>
      </trkpt>
      <trkpt lat="42.6837389264" lon="0.1226119045">
        <time>2022-03-01T07:44:31+00:00</time>
        <ele>2071.0</ele>
      </trkpt>
      <trkpt lat="42.6837587915" lon="0.1225082204">
        <time>2022-03-01T07:44:45+00:00</time>
        <ele>2073.0</ele>
      </trkpt>
      <trkpt lat="42.683815537" lon="0.1224450208">
        <time>2022-03-01T07:45:00+00:00</time>
        <ele>2073.0</ele>
      </trkpt>
      <trkpt lat="42.6838212367" lon="0.1223586034">
        <time>2022-03-01T07:45:13+00:00</time>
        <ele>2076.0</ele>
      </trkpt>
      <trkpt lat="42.6838623919" lon="0.1222826634">
        <time>2022-03-01T07:45:26+00:00</time>
        <ele>2077.0</ele>
      </trkpt>
      <trkpt lat="42.683886867" lon="0.1222353894">
        <time>2022-03-01T07:45:39+00:00</time>
        <ele>2078.0</ele>
      </trkpt>
      <trkpt lat="42.683916539" lon="0.122216111">
        <time>2022-03-01T07:45:44+00:00</time>
        <ele>2077.0</ele>
      </trkpt>
      <trkpt lat="42.6839303691" lon="0.1221662387">
        <time>2022-03-01T07:45:56+00:00</time>
        <ele>2078.0</ele>
      </trkpt>
      <trkpt lat="42.683970267" lon="0.122105889">
        <time>2022-03-01T07:46:08+00:00</time>
        <ele>2079.0</ele>
      </trkpt>
      <trkpt lat="42.6839892101" lon="0.1220083237">
        <time>2022-03-01T07:46:21+00:00</time>
        <ele>2082.0</ele>
      </trkpt>
      <trkpt lat="42.6840368193" lon="0.1218480617">
        <time>2022-03-01T07:46:40+00:00</time>
        <ele>2086.0</ele>
      </trkpt>
      <trkpt lat="42.6840201393" lon="0.121722417">
        <time>2022-03-01T07:46:56+00:00</time>
        <ele>2091.0</ele>
      </trkpt>
      <trkpt lat="42.6840490568" lon="0.1215878874">
        <time>2022-03-01T07:47:13+00:00</time>
        <ele>2094.0</ele>
      </trkpt>
      <trkpt lat="42.6841752883" lon="0.1214648411">
        <time>2022-03-01T07:47:31+00:00</time>
        <ele>2095.0</ele>
      </trkpt>
      <trkpt lat="42.684337059" lon="0.1214350015">
        <time>2022-03-01T07:47:46+00:00</time>
        <ele>2091.0</ele>
      </trkpt>
      <trkpt lat="42.6844238956" lon="0.1213350054">
        <time>2022-03-01T07:48:03+00:00</time>
        <ele>2094.0</ele>
      </trkpt>
      <trkpt lat="42.6845173538" lon="0.1213298924">
        <time>2022-03-01T07:48:19+00:00</time>
        <ele>2092.0</ele>
      </trkpt>
      <trkpt lat="42.6846178528" lon="0.1213433873">
        <time>2022-03-01T07:48:34+00:00</time>
        <ele>2093.0</ele>
      </trkpt>
      <trkpt lat="42.6847181004" lon="0.1213669404">
        <time>2022-03-01T07:48:49+00:00</time>
        <ele>2094.0</ele>
      </trkpt>
      <trkpt lat="42.6847388875" lon="0.1213725563">
        <time>2022-03-01T07:48:52+00:00</time>
        <ele>2094.0</ele>
      </trkpt>
      <trkpt lat="42.6848149952" lon="0.1214547828">
        <time>2022-03-01T07:49:08+00:00</time>
        <ele>2091.0</ele>
      </trkpt>
      <trkpt lat="42.684891941" lon="0.1215282083">
        <time>2022-03-01T07:49:23+00:00</time>
        <ele>2089.0</ele>
      </trkpt>
      <trkpt lat="42.6849451661" lon="0.1215527672">
        <time>2022-03-01T07:49:39+00:00</time>
        <ele>2091.0</ele>
      </trkpt>
      <trkpt lat="42.6849513687" lon="0.12150147">
        <time>2022-03-01T07:50:07+00:00</time>
        <ele>2094.0</ele>
      </trkpt>
      <trkpt lat="42.6850293204" lon="0.1214567106">
        <time>2022-03-01T07:50:23+00:00</time>
        <ele>2101.0</ele>
      </trkpt>
      <trkpt lat="42.6851096191" lon="0.1214225963">
        <time>2022-03-01T07:50:36+00:00</time>
        <ele>2108.0</ele>
      </trkpt>
      <trkpt lat="42.6851558033" lon="0.1214085985">
        <time>2022-03-01T07:50:45+00:00</time>
        <ele>2111.0</ele>
      </trkpt>
      <trkpt lat="42.685255548" lon="0.1213595644">
        <time>2022-03-01T07:51:00+00:00</time>
        <ele>2118.0</ele>
      </trkpt>
      <trkpt lat="42.685358813" lon="0.1213187445">
        <time>2022-03-01T07:51:16+00:00</time>
        <ele>2123.0</ele>
      </trkpt>
      <trkpt lat="42.6853877306" lon="0.1212846301">
        <time>2022-03-01T07:51:30+00:00</time>
        <ele>2125.0</ele>
      </trkpt>
      <trkpt lat="42.685394939" lon="0.1213246118">
        <time>2022-03-01T07:51:48+00:00</time>
        <ele>2124.0</ele>
      </trkpt>
      <trkpt lat="42.6853954419" lon="0.1213082671">
        <time>2022-03-01T07:52:06+00:00</time>
        <ele>2124.0</ele>
      </trkpt>
      <trkpt lat="42.6854532771" lon="0.1212890726">
        <time>2022-03-01T07:52:24+00:00</time>
        <ele>2126.0</ele>
      </trkpt>
      <trkpt lat="42.6855836995" lon="0.1213512663">
        <time>2022-03-01T07:52:39+00:00</time>
        <ele>2127.0</ele>
      </trkpt>
      <trkpt lat="42.6856114436" lon="0.1213445608">
        <time>2022-03-01T07:52:45+00:00</time>
        <ele>2128.0</ele>
      </trkpt>
      <trkpt lat="42.6857123617" lon="0.121267112">
        <time>2022-03-01T07:53:00+00:00</time>
        <ele>2132.0</ele>
      </trkpt>
      <trkpt lat="42.6857939176" lon="0.1212255377">
        <time>2022-03-01T07:53:17+00:00</time>
        <ele>2134.0</ele>
      </trkpt>
      <trkpt lat="42.6858200692" lon="0.1211551297">
        <time>2022-03-01T07:53:33+00:00</time>
        <ele>2135.0</ele>
      </trkpt>
      <trkpt lat="42.6858743001" lon="0.1211916748">
        <time>2022-03-01T07:53:45+00:00</time>
        <ele>2136.0</ele>
      </trkpt>
      <trkpt lat="42.6858875435" lon="0.1211875677">
        <time>2022-03-01T07:54:06+00:00</time>
        <ele>2136.0</ele>
      </trkpt>
      <trkpt lat="42.6859519165" lon="0.1211490948">
        <time>2022-03-01T07:54:24+00:00</time>
        <ele>2137.0</ele>
      </trkpt>
      <trkpt lat="42.6860333048" lon="0.1210798603">
        <time>2022-03-01T07:54:41+00:00</time>
        <ele>2139.0</ele>
      </trkpt>
      <trkpt lat="42.686088793" lon="0.1210283954">
        <time>2022-03-01T07:54:56+00:00</time>
        <ele>2140.0</ele>
      </trkpt>
      <trkpt lat="42.6861460414" lon="0.1210025791">
        <time>2022-03-01T07:55:10+00:00</time>
        <ele>2142.0</ele>
      </trkpt>
      <trkpt lat="42.6861453708" lon="0.1208704803">
        <time>2022-03-01T07:55:25+00:00</time>
        <ele>2145.0</ele>
      </trkpt>
      <trkpt lat="42.6861936506" lon="0.1207448356">
        <time>2022-03-01T07:55:41+00:00</time>
        <ele>2148.0</ele>
      </trkpt>
      <trkpt lat="42.6862547547" lon="0.1208267268">
        <time>2022-03-01T07:55:54+00:00</time>
        <ele>2149.0</ele>
      </trkpt>
      <trkpt lat="42.6862954069" lon="0.1208631042">
        <time>2022-03-01T07:56:11+00:00</time>
        <ele>2150.0</ele>
      </trkpt>
      <trkpt lat="42.6863868535" lon="0.1209042594">
        <time>2022-03-01T07:56:27+00:00</time>
        <ele>2153.0</ele>
      </trkpt>
      <trkpt lat="42.6864539087" lon="0.1209434867">
        <time>2022-03-01T07:56:43+00:00</time>
        <ele>2155.0</ele>
      </trkpt>
      <trkpt lat="42.6864936389" lon="0.1209650282">
        <time>2022-03-01T07:56:59+00:00</time>
        <ele>2156.0</ele>
      </trkpt>
      <trkpt lat="42.6866076328" lon="0.1209880784">
        <time>2022-03-01T07:57:15+00:00</time>
        <ele>2159.0</ele>
      </trkpt>
      <trkpt lat="42.6867014263" lon="0.1210020762">
        <time>2022-03-01T07:57:29+00:00</time>
        <ele>2161.0</ele>
      </trkpt>
      <trkpt lat="42.686794633" lon="0.1210011542">
        <time>2022-03-01T07:57:42+00:00</time>
        <ele>2164.0</ele>
      </trkpt>
      <trkpt lat="42.6868354529" lon="0.1210013218">
        <time>2022-03-01T07:57:57+00:00</time>
        <ele>2165.0</ele>
      </trkpt>
      <trkpt lat="42.6869302522" lon="0.1210141461">
        <time>2022-03-01T07:58:20+00:00</time>
        <ele>2168.0</ele>
      </trkpt>
      <trkpt lat="42.6870658714" lon="0.1210334245">
        <time>2022-03-01T07:58:36+00:00</time>
        <ele>2171.0</ele>
      </trkpt>
      <trkpt lat="42.6871840563" lon="0.1210344303">
        <time>2022-03-01T07:58:51+00:00</time>
        <ele>2173.0</ele>
      </trkpt>
      <trkpt lat="42.6873005647" lon="0.1210139785">
        <time>2022-03-01T07:59:07+00:00</time>
        <ele>2175.0</ele>
      </trkpt>
      <trkpt lat="42.6873761695" lon="0.1210291497">
        <time>2022-03-01T07:59:17+00:00</time>
        <ele>2177.0</ele>
      </trkpt>
      <trkpt lat="42.6875280496" lon="0.1210978813">
        <time>2022-03-01T07:59:35+00:00</time>
        <ele>2181.0</ele>
      </trkpt>
      <trkpt lat="42.6875685342" lon="0.1211899985">
        <time>2022-03-01T07:59:43+00:00</time>
        <ele>2183.0</ele>
      </trkpt>
      <trkpt lat="42.6876075938" lon="0.1213320717">
        <time>2022-03-01T07:59:56+00:00</time>
        <ele>2187.0</ele>
      </trkpt>
      <trkpt lat="42.687597787" lon="0.1213443093">
        <time>2022-03-01T08:00:19+00:00</time>
        <ele>2187.0</ele>
      </trkpt>
      <trkpt lat="42.6876110304" lon="0.1213105302">
        <time>2022-03-01T08:00:37+00:00</time>
        <ele>2187.0</ele>
      </trkpt>
      <trkpt lat="42.6876251958" lon="0.1213985402">
        <time>2022-03-01T08:00:52+00:00</time>
        <ele>2188.0</ele>
      </trkpt>
      <trkpt lat="42.6876358408" lon="0.1215415355">
        <time>2022-03-01T08:01:07+00:00</time>
        <ele>2191.0</ele>
      </trkpt>
      <trkpt lat="42.6875718031" lon="0.1217188966">
        <time>2022-03-01T08:01:25+00:00</time>
        <ele>2190.0</ele>
      </trkpt>
      <trkpt lat="42.6875302289" lon="0.1218674239">
        <time>2022-03-01T08:01:42+00:00</time>
        <ele>2189.0</ele>
      </trkpt>
      <trkpt lat="42.6875212602" lon="0.1220043842">
        <time>2022-03-01T08:01:56+00:00</time>
        <ele>2189.0</ele>
      </trkpt>
      <trkpt lat="42.6875194162" lon="0.1221534982">
        <time>2022-03-01T08:02:12+00:00</time>
        <ele>2189.0</ele>
      </trkpt>
      <trkpt lat="42.6875022333" lon="0.1221445296">
        <time>2022-03-01T08:02:35+00:00</time>
        <ele>2188.0</ele>
      </trkpt>
      <trkpt lat="42.6874975394" lon="0.1221907139">
        <time>2022-03-01T08:02:58+00:00</time>
        <ele>2188.0</ele>
      </trkpt>
      <trkpt lat="42.6875256188" lon="0.1222911291">
        <time>2022-03-01T08:03:12+00:00</time>
        <ele>2190.0</ele>
      </trkpt>
      <trkpt lat="42.6875262056" lon="0.1223342959">
        <time>2022-03-01T08:03:16+00:00</time>
        <ele>2190.0</ele>
      </trkpt>
      <trkpt lat="42.687566774" lon="0.1224710885">
        <time>2022-03-01T08:03:31+00:00</time>
        <ele>2192.0</ele>
      </trkpt>
      <trkpt lat="42.6876254473" lon="0.1225557458">
        <time>2022-03-01T08:03:47+00:00</time>
        <ele>2196.0</ele>
      </trkpt>
      <trkpt lat="42.6876650937" lon="0.1226412412">
        <time>2022-03-01T08:04:04+00:00</time>
        <ele>2199.0</ele>
      </trkpt>
      <trkpt lat="42.6877072547" lon="0.1225041971">
        <time>2022-03-01T08:04:21+00:00</time>
        <ele>2201.0</ele>
      </trkpt>
      <trkpt lat="42.6877602283" lon="0.1224437635">
        <time>2022-03-01T08:04:37+00:00</time>
        <ele>2204.0</ele>
      </trkpt>
      <trkpt lat="42.6878250204" lon="0.1223746128">
        <time>2022-03-01T08:04:51+00:00</time>
        <ele>2207.0</ele>
      </trkpt>
      <trkpt lat="42.6878389344" lon="0.122362962">
        <time>2022-03-01T08:04:53+00:00</time>
        <ele>2207.0</ele>
      </trkpt>
      <trkpt lat="42.6879429538" lon="0.1223647222">
        <time>2022-03-01T08:05:11+00:00</time>
        <ele>2211.0</ele>
      </trkpt>
      <trkpt lat="42.6879779063" lon="0.1224137563">
        <time>2022-03-01T08:05:17+00:00</time>
        <ele>2213.0</ele>
      </trkpt>
      <trkpt lat="42.6880183071" lon="0.1225464419">
        <time>2022-03-01T08:05:32+00:00</time>
        <ele>2215.0</ele>
      </trkpt>
      <trkpt lat="42.6880552713" lon="0.1226565801">
        <time>2022-03-01T08:05:47+00:00</time>
        <ele>2218.0</ele>
      </trkpt>
      <trkpt lat="42.68805678" lon="0.122764539">
        <time>2022-03-01T08:06:02+00:00</time>
        <ele>2219.0</ele>
      </trkpt>
      <trkpt lat="42.6880625635" lon="0.1228833105">
        <time>2022-03-01T08:06:18+00:00</time>
        <ele>2220.0</ele>
      </trkpt>
      <trkpt lat="42.6880793273" lon="0.1229738351">
        <time>2022-03-01T08:06:29+00:00</time>
        <ele>2221.0</ele>
      </trkpt>
      <trkpt lat="42.688122578" lon="0.1229560655">
        <time>2022-03-01T08:06:45+00:00</time>
        <ele>2223.0</ele>
      </trkpt>
      <trkpt lat="42.6882158685" lon="0.12293268">
        <time>2022-03-01T08:07:00+00:00</time>
        <ele>2226.0</ele>
      </trkpt>
      <trkpt lat="42.6883436088" lon="0.1229859889">
        <time>2022-03-01T08:07:20+00:00</time>
        <ele>2231.0</ele>
      </trkpt>
      <trkpt lat="42.6884227339" lon="0.1229898445">
        <time>2022-03-01T08:07:38+00:00</time>
        <ele>2235.0</ele>
      </trkpt>
      <trkpt lat="42.6885135099" lon="0.123093361">
        <time>2022-03-01T08:07:58+00:00</time>
        <ele>2240.0</ele>
      </trkpt>
      <trkpt lat="42.6885198802" lon="0.1232185867">
        <time>2022-03-01T08:08:14+00:00</time>
        <ele>2242.0</ele>
      </trkpt>
      <trkpt lat="42.6885263342" lon="0.1233281381">
        <time>2022-03-01T08:08:28+00:00</time>
        <ele>2244.0</ele>
      </trkpt>
      <trkpt lat="42.6885158569" lon="0.1234310679">
        <time>2022-03-01T08:08:43+00:00</time>
        <ele>2244.0</ele>
      </trkpt>
      <trkpt lat="42.6885165274" lon="0.123575991">
        <time>2022-03-01T08:08:57+00:00</time>
        <ele>2245.0</ele>
      </trkpt>
      <trkpt lat="42.6885632984" lon="0.1236327365">
        <time>2022-03-01T08:09:11+00:00</time>
        <ele>2248.0</ele>
      </trkpt>
      <trkpt lat="42.688645022" lon="0.1236049924">
        <time>2022-03-01T08:09:28+00:00</time>
        <ele>2253.0</ele>
      </trkpt>
      <trkpt lat="42.6887005102" lon="0.1236515958">
        <time>2022-03-01T08:09:41+00:00</time>
        <ele>2256.0</ele>
      </trkpt>
      <trkpt lat="42.688695481" lon="0.123783946">
        <time>2022-03-01T08:09:55+00:00</time>
        <ele>2255.0</ele>
      </trkpt>
      <trkpt lat="42.688691793" lon="0.1238701958">
        <time>2022-03-01T08:10:09+00:00</time>
        <ele>2251.0</ele>
      </trkpt>
      <trkpt lat="42.6886527333" lon="0.1239786576">
        <time>2022-03-01T08:10:24+00:00</time>
        <ele>2244.0</ele>
      </trkpt>
      <trkpt lat="42.6886128355" lon="0.1240497362">
        <time>2022-03-01T08:10:36+00:00</time>
        <ele>2237.0</ele>
      </trkpt>
      <trkpt lat="42.6886192895" lon="0.1240978483">
        <time>2022-03-01T08:10:55+00:00</time>
        <ele>2236.0</ele>
      </trkpt>
      <trkpt lat="42.6885628793" lon="0.124224918">
        <time>2022-03-01T08:11:08+00:00</time>
        <ele>2225.0</ele>
      </trkpt>
      <trkpt lat="42.688567657" lon="0.1243037079">
        <time>2022-03-01T08:11:23+00:00</time>
        <ele>2222.0</ele>
      </trkpt>
      <trkpt lat="42.6886170264" lon="0.1243717689">
        <time>2022-03-01T08:11:38+00:00</time>
        <ele>2222.0</ele>
      </trkpt>
      <trkpt lat="42.6886641327" lon="0.1242683362">
        <time>2022-03-01T08:11:55+00:00</time>
        <ele>2233.0</ele>
      </trkpt>
      <trkpt lat="42.6887454372" lon="0.1242104173">
        <time>2022-03-01T08:12:13+00:00</time>
        <ele>2240.0</ele>
      </trkpt>
      <trkpt lat="42.6888365485" lon="0.124195246">
        <time>2022-03-01T08:12:27+00:00</time>
        <ele>2247.0</ele>
      </trkpt>
      <trkpt lat="42.6888955571" lon="0.1241434459">
        <time>2022-03-01T08:12:43+00:00</time>
        <ele>2253.0</ele>
      </trkpt>
      <trkpt lat="42.6889299229" lon="0.1241529174">
        <time>2022-03-01T08:13:00+00:00</time>
        <ele>2255.0</ele>
      </trkpt>
      <trkpt lat="42.6890314277" lon="0.1240942441">
        <time>2022-03-01T08:13:16+00:00</time>
        <ele>2265.0</ele>
      </trkpt>
      <trkpt lat="42.689051209" lon="0.1240793243">
        <time>2022-03-01T08:13:27+00:00</time>
        <ele>2267.0</ele>
      </trkpt>
      <trkpt lat="42.6890839823" lon="0.1241229102">
        <time>2022-03-01T08:13:45+00:00</time>
        <ele>2268.0</ele>
      </trkpt>
      <trkpt lat="42.6890201122" lon="0.1242362335">
        <time>2022-03-01T08:14:00+00:00</time>
        <ele>2260.0</ele>
      </trkpt>
      <trkpt lat="42.6889769454" lon="0.1243491378">
        <time>2022-03-01T08:14:13+00:00</time>
        <ele>2251.0</ele>
      </trkpt>
      <trkpt lat="42.688992871" lon="0.124451397">
        <time>2022-03-01T08:14:27+00:00</time>
        <ele>2247.0</ele>
      </trkpt>
      <trkpt lat="42.6890144125" lon="0.1244976651">
        <time>2022-03-01T08:14:42+00:00</time>
        <ele>2247.0</ele>
      </trkpt>
      <trkpt lat="42.6890649553" lon="0.1244270895">
        <time>2022-03-01T08:14:55+00:00</time>
        <ele>2255.0</ele>
      </trkpt>
      <trkpt lat="42.6891590841" lon="0.1243756246">
        <time>2022-03-01T08:15:09+00:00</time>
        <ele>2265.0</ele>
      </trkpt>
      <trkpt lat="42.6892256364" lon="0.1243634708">
        <time>2022-03-01T08:15:23+00:00</time>
        <ele>2271.0</ele>
      </trkpt>
      <trkpt lat="42.6892774366" lon="0.1242997684">
        <time>2022-03-01T08:15:35+00:00</time>
        <ele>2277.0</ele>
      </trkpt>
      <trkpt lat="42.6893285662" lon="0.1242433582">
        <time>2022-03-01T08:15:48+00:00</time>
        <ele>2282.0</ele>
      </trkpt>
      <trkpt lat="42.6893452462" lon="0.1242535841">
        <time>2022-03-01T08:16:04+00:00</time>
        <ele>2282.0</ele>
      </trkpt>
      <trkpt lat="42.6893884968" lon="0.1241840143">
        <time>2022-03-01T08:16:19+00:00</time>
        <ele>2285.0</ele>
      </trkpt>
      <trkpt lat="42.6894071884" lon="0.1242105849">
        <time>2022-03-01T08:16:42+00:00</time>
        <ele>2286.0</ele>
      </trkpt>
      <trkpt lat="42.6894152351" lon="0.1242893748">
        <time>2022-03-01T08:16:58+00:00</time>
        <ele>2285.0</ele>
      </trkpt>
      <trkpt lat="42.6894646883" lon="0.1243981719">
        <time>2022-03-01T08:17:12+00:00</time>
        <ele>2284.0</ele>
      </trkpt>
      <trkpt lat="42.6894775126" lon="0.1245234814">
        <time>2022-03-01T08:17:27+00:00</time>
        <ele>2280.0</ele>
      </trkpt>
      <trkpt lat="42.6894952822" lon="0.1246518921">
        <time>2022-03-01T08:17:42+00:00</time>
        <ele>2275.0</ele>
      </trkpt>
      <trkpt lat="42.6895665284" lon="0.1247135829">
        <time>2022-03-01T08:17:57+00:00</time>
        <ele>2277.0</ele>
      </trkpt>
      <trkpt lat="42.6896046661" lon="0.1246293448">
        <time>2022-03-01T08:18:13+00:00</time>
        <ele>2285.0</ele>
      </trkpt>
      <trkpt lat="42.6896630041" lon="0.1245604455">
        <time>2022-03-01T08:18:29+00:00</time>
        <ele>2293.0</ele>
      </trkpt>
      <trkpt lat="42.6896745712" lon="0.1246071327">
        <time>2022-03-01T08:18:52+00:00</time>
        <ele>2292.0</ele>
      </trkpt>
      <trkpt lat="42.6896672789" lon="0.1245969906">
        <time>2022-03-01T08:19:13+00:00</time>
        <ele>2292.0</ele>
      </trkpt>
      <trkpt lat="42.6897127926" lon="0.1246578433">
        <time>2022-03-01T08:19:30+00:00</time>
        <ele>2292.0</ele>
      </trkpt>
      <trkpt lat="42.689753864" lon="0.124744596">
        <time>2022-03-01T08:19:44+00:00</time>
        <ele>2291.0</ele>
      </trkpt>
      <trkpt lat="42.6897729747" lon="0.1247803029">
        <time>2022-03-01T08:20:00+00:00</time>
        <ele>2291.0</ele>
      </trkpt>
      <trkpt lat="42.6897941809" lon="0.1247148402">
        <time>2022-03-01T08:20:15+00:00</time>
        <ele>2296.0</ele>
      </trkpt>
      <trkpt lat="42.6898080949" lon="0.1246016007">
        <time>2022-03-01T08:20:30+00:00</time>
        <ele>2303.0</ele>
      </trkpt>
      <trkpt lat="42.6898197457" lon="0.1245793048">
        <time>2022-03-01T08:20:47+00:00</time>
        <ele>2305.0</ele>
      </trkpt>
      <trkpt lat="42.6898314804" lon="0.1245954819">
        <time>2022-03-01T08:21:17+00:00</time>
        <ele>2305.0</ele>
      </trkpt>
      <trkpt lat="42.6898976974" lon="0.1246319432">
        <time>2022-03-01T08:21:31+00:00</time>
        <ele>2307.0</ele>
      </trkpt>
      <trkpt lat="42.6899531856" lon="0.1247054525">
        <time>2022-03-01T08:21:44+00:00</time>
        <ele>2307.0</ele>
      </trkpt>
      <trkpt lat="42.6899932511" lon="0.124802012">
        <time>2022-03-01T08:21:57+00:00</time>
        <ele>2305.0</ele>
      </trkpt>
      <trkpt lat="42.6899958495" lon="0.124798324">
        <time>2022-03-01T08:22:03+00:00</time>
        <ele>2305.0</ele>
      </trkpt>
      <trkpt lat="42.6900098473" lon="0.1246889401">
        <time>2022-03-01T08:22:17+00:00</time>
        <ele>2310.0</ele>
      </trkpt>
      <trkpt lat="42.6899933349" lon="0.1245555002">
        <time>2022-03-01T08:22:33+00:00</time>
        <ele>2315.0</ele>
      </trkpt>
      <trkpt lat="42.6900006272" lon="0.1244899537">
        <time>2022-03-01T08:22:51+00:00</time>
        <ele>2318.0</ele>
      </trkpt>
      <trkpt lat="42.6900291257" lon="0.1245057117">
        <time>2022-03-01T08:23:04+00:00</time>
        <ele>2318.0</ele>
      </trkpt>
      <trkpt lat="42.6900616474" lon="0.1245407481">
        <time>2022-03-01T08:23:25+00:00</time>
        <ele>2320.0</ele>
      </trkpt>
      <trkpt lat="42.690118812" lon="0.1246202085">
        <time>2022-03-01T08:23:39+00:00</time>
        <ele>2321.0</ele>
      </trkpt>
      <trkpt lat="42.690180419" lon="0.1247106493">
        <time>2022-03-01T08:23:54+00:00</time>
        <ele>2323.0</ele>
      </trkpt>
      <trkpt lat="42.6902443729" lon="0.1248184405">
        <time>2022-03-01T08:24:12+00:00</time>
        <ele>2325.0</ele>
      </trkpt>
      <trkpt lat="42.6902566943" lon="0.1248591766">
        <time>2022-03-01T08:24:17+00:00</time>
        <ele>2326.0</ele>
      </trkpt>
      <trkpt lat="42.6903290302" lon="0.1249549817">
        <time>2022-03-01T08:24:31+00:00</time>
        <ele>2331.0</ele>
      </trkpt>
      <trkpt lat="42.6903737057" lon="0.1250604261">
        <time>2022-03-01T08:24:47+00:00</time>
        <ele>2334.0</ele>
      </trkpt>
      <trkpt lat="42.6903654076" lon="0.1250874996">
        <time>2022-03-01T08:25:08+00:00</time>
        <ele>2332.0</ele>
      </trkpt>
      <trkpt lat="42.6903997734" lon="0.1251279004">
        <time>2022-03-01T08:25:22+00:00</time>
        <ele>2334.0</ele>
      </trkpt>
      <trkpt lat="42.6904184651" lon="0.1251538843">
        <time>2022-03-01T08:25:29+00:00</time>
        <ele>2335.0</ele>
      </trkpt>
      <trkpt lat="42.6904577762" lon="0.1252634358">
        <time>2022-03-01T08:25:45+00:00</time>
        <ele>2333.0</ele>
      </trkpt>
      <trkpt lat="42.6905121747" lon="0.1253479254">
        <time>2022-03-01T08:25:58+00:00</time>
        <ele>2332.0</ele>
      </trkpt>
      <trkpt lat="42.6905408408" lon="0.1253972109">
        <time>2022-03-01T08:26:04+00:00</time>
        <ele>2331.0</ele>
      </trkpt>
      <trkpt lat="42.6906109974" lon="0.1254848018">
        <time>2022-03-01T08:26:22+00:00</time>
        <ele>2331.0</ele>
      </trkpt>
      <trkpt lat="42.6906651445" lon="0.1255408768">
        <time>2022-03-01T08:26:38+00:00</time>
        <ele>2331.0</ele>
      </trkpt>
      <trkpt lat="42.6906617917" lon="0.1255537011">
        <time>2022-03-01T08:26:59+00:00</time>
        <ele>2330.0</ele>
      </trkpt>
      <trkpt lat="42.6907410007" lon="0.1255627535">
        <time>2022-03-01T08:27:13+00:00</time>
        <ele>2334.0</ele>
      </trkpt>
      <trkpt lat="42.6907466166" lon="0.1254812814">
        <time>2022-03-01T08:27:29+00:00</time>
        <ele>2338.0</ele>
      </trkpt>
      <trkpt lat="42.6907505561" lon="0.1254465804">
        <time>2022-03-01T08:27:43+00:00</time>
        <ele>2340.0</ele>
      </trkpt>
      <trkpt lat="42.6907363068" lon="0.125476839">
        <time>2022-03-01T08:28:10+00:00</time>
        <ele>2338.0</ele>
      </trkpt>
      <trkpt lat="42.6907433476" lon="0.1254630089">
        <time>2022-03-01T08:28:38+00:00</time>
        <ele>2339.0</ele>
      </trkpt>
      <trkpt lat="42.6907613687" lon="0.1254232787">
        <time>2022-03-01T08:28:56+00:00</time>
        <ele>2341.0</ele>
      </trkpt>
      <trkpt lat="42.6908000931" lon="0.1253325865">
        <time>2022-03-01T08:29:11+00:00</time>
        <ele>2347.0</ele>
      </trkpt>
      <trkpt lat="42.690844601" lon="0.1252295729">
        <time>2022-03-01T08:29:27+00:00</time>
        <ele>2354.0</ele>
      </trkpt>
      <trkpt lat="42.6908897795" lon="0.125129493">
        <time>2022-03-01T08:29:42+00:00</time>
        <ele>2360.0</ele>
      </trkpt>
      <trkpt lat="42.6909284201" lon="0.1250408962">
        <time>2022-03-01T08:30:00+00:00</time>
        <ele>2364.0</ele>
      </trkpt>
      <trkpt lat="42.6909621991" lon="0.1249695662">
        <time>2022-03-01T08:30:14+00:00</time>
        <ele>2366.0</ele>
      </trkpt>
      <trkpt lat="42.6909849141" lon="0.124908546">
        <time>2022-03-01T08:30:28+00:00</time>
        <ele>2368.0</ele>
      </trkpt>
      <trkpt lat="42.690981729" lon="0.1249366254">
        <time>2022-03-01T08:30:50+00:00</time>
        <ele>2367.0</ele>
      </trkpt>
      <trkpt lat="42.6910049468" lon="0.1249639504">
        <time>2022-03-01T08:31:13+00:00</time>
        <ele>2368.0</ele>
      </trkpt>
      <trkpt lat="42.6910520531" lon="0.1250499487">
        <time>2022-03-01T08:31:27+00:00</time>
        <ele>2368.0</ele>
      </trkpt>
      <trkpt lat="42.6911170967" lon="0.1251379587">
        <time>2022-03-01T08:31:42+00:00</time>
        <ele>2368.0</ele>
      </trkpt>
      <trkpt lat="42.6911906898" lon="0.1252255496">
        <time>2022-03-01T08:31:58+00:00</time>
        <ele>2367.0</ele>
      </trkpt>
      <trkpt lat="42.6912588347" lon="0.1252639387">
        <time>2022-03-01T08:32:12+00:00</time>
        <ele>2368.0</ele>
      </trkpt>
      <trkpt lat="42.691310551" lon="0.1253162418">
        <time>2022-03-01T08:32:28+00:00</time>
        <ele>2369.0</ele>
      </trkpt>
      <trkpt lat="42.6913932804" lon="0.1253491826">
        <time>2022-03-01T08:32:44+00:00</time>
        <ele>2372.0</ele>
      </trkpt>
      <trkpt lat="42.6914355252" lon="0.1253078599">
        <time>2022-03-01T08:32:57+00:00</time>
        <ele>2375.0</ele>
      </trkpt>
      <trkpt lat="42.6914387941" lon="0.1251776889">
        <time>2022-03-01T08:33:15+00:00</time>
        <ele>2379.0</ele>
      </trkpt>
      <trkpt lat="42.6914486848" lon="0.1250456739">
        <time>2022-03-01T08:33:34+00:00</time>
        <ele>2384.0</ele>
      </trkpt>
      <trkpt lat="42.6914461702" lon="0.1250211988">
        <time>2022-03-01T08:33:38+00:00</time>
        <ele>2384.0</ele>
      </trkpt>
      <trkpt lat="42.6914649457" lon="0.1250388846">
        <time>2022-03-01T08:33:58+00:00</time>
        <ele>2385.0</ele>
      </trkpt>
      <trkpt lat="42.6914545521" lon="0.1250305865">
        <time>2022-03-01T08:34:20+00:00</time>
        <ele>2384.0</ele>
      </trkpt>
      <trkpt lat="42.6915102918" lon="0.1250474341">
        <time>2022-03-01T08:34:36+00:00</time>
        <ele>2386.0</ele>
      </trkpt>
      <trkpt lat="42.6915835496" lon="0.1251023356">
        <time>2022-03-01T08:34:54+00:00</time>
        <ele>2388.0</ele>
      </trkpt>
      <trkpt lat="42.691639876" lon="0.1251729112">
        <time>2022-03-01T08:35:10+00:00</time>
        <ele>2388.0</ele>
      </trkpt>
      <trkpt lat="42.6917386148" lon="0.1252314169">
        <time>2022-03-01T08:35:27+00:00</time>
        <ele>2389.0</ele>
      </trkpt>
      <trkpt lat="42.6918298099" lon="0.1252890844">
        <time>2022-03-01T08:35:44+00:00</time>
        <ele>2390.0</ele>
      </trkpt>
      <trkpt lat="42.6919193286" lon="0.1253299881">
        <time>2022-03-01T08:36:04+00:00</time>
        <ele>2392.0</ele>
      </trkpt>
      <trkpt lat="42.6919864677" lon="0.1253574807">
        <time>2022-03-01T08:36:18+00:00</time>
        <ele>2393.0</ele>
      </trkpt>
      <trkpt lat="42.692030808" lon="0.1253785193">
        <time>2022-03-01T08:36:37+00:00</time>
        <ele>2394.0</ele>
      </trkpt>
      <trkpt lat="42.6920949295" lon="0.1254060958">
        <time>2022-03-01T08:36:49+00:00</time>
        <ele>2396.0</ele>
      </trkpt>
      <trkpt lat="42.6921448857" lon="0.1254511066">
        <time>2022-03-01T08:37:04+00:00</time>
        <ele>2396.0</ele>
      </trkpt>
      <trkpt lat="42.6922352426" lon="0.1254623383">
        <time>2022-03-01T08:37:18+00:00</time>
        <ele>2399.0</ele>
      </trkpt>
      <trkpt lat="42.6923344843" lon="0.1254769228">
        <time>2022-03-01T08:37:36+00:00</time>
        <ele>2402.0</ele>
      </trkpt>
      <trkpt lat="42.6924654935" lon="0.1255033258">
        <time>2022-03-01T08:37:55+00:00</time>
        <ele>2406.0</ele>
      </trkpt>
      <trkpt lat="42.6925497316" lon="0.1255874801">
        <time>2022-03-01T08:38:14+00:00</time>
        <ele>2405.0</ele>
      </trkpt>
      <trkpt lat="42.6926182117" lon="0.1255873963">
        <time>2022-03-01T08:38:29+00:00</time>
        <ele>2407.0</ele>
      </trkpt>
      <trkpt lat="42.6926641446" lon="0.125610698">
        <time>2022-03-01T08:38:44+00:00</time>
        <ele>2408.0</ele>
      </trkpt>
      <trkpt lat="42.692768164" lon="0.1256568823">
        <time>2022-03-01T08:38:59+00:00</time>
        <ele>2409.0</ele>
      </trkpt>
      <trkpt lat="42.692763051" lon="0.1256933436">
        <time>2022-03-01T08:39:14+00:00</time>
        <ele>2408.0</ele>
      </trkpt>
      <trkpt lat="42.6927333791" lon="0.1256474946">
        <time>2022-03-01T08:39:34+00:00</time>
        <ele>2408.0</ele>
      </trkpt>
      <trkpt lat="42.6927504782" lon="0.1256818604">
        <time>2022-03-01T08:39:52+00:00</time>
        <ele>2408.0</ele>
      </trkpt>
      <trkpt lat="42.6927627996" lon="0.1256379392">
        <time>2022-03-01T08:40:11+00:00</time>
        <ele>2409.0</ele>
      </trkpt>
      <trkpt lat="42.6928508095" lon="0.1255986281">
        <time>2022-03-01T08:40:37+00:00</time>
        <ele>2413.0</ele>
      </trkpt>
      <trkpt lat="42.6928536594" lon="0.1255889889">
        <time>2022-03-01T08:41:09+00:00</time>
        <ele>2414.0</ele>
      </trkpt>
      <trkpt lat="42.6927762106" lon="0.1257310621">
        <time>2022-03-01T08:41:28+00:00</time>
        <ele>2407.0</ele>
      </trkpt>
      <trkpt lat="42.6927935611" lon="0.1256910805">
        <time>2022-03-01T08:41:44+00:00</time>
        <ele>2408.0</ele>
      </trkpt>
      <trkpt lat="42.6928073913" lon="0.1256811898">
        <time>2022-03-01T08:42:08+00:00</time>
        <ele>2409.0</ele>
      </trkpt>
      <trkpt lat="42.6928060502" lon="0.1256609894">
        <time>2022-03-01T08:42:29+00:00</time>
        <ele>2410.0</ele>
      </trkpt>
      <trkpt lat="42.6928073913" lon="0.125649171">
        <time>2022-03-01T08:42:59+00:00</time>
        <ele>2410.0</ele>
      </trkpt>
      <trkpt lat="42.6928011049" lon="0.1256302278">
        <time>2022-03-01T08:43:25+00:00</time>
        <ele>2411.0</ele>
      </trkpt>
      <trkpt lat="42.6927835029" lon="0.1256739814">
        <time>2022-03-01T08:43:47+00:00</time>
        <ele>2409.0</ele>
      </trkpt>
      <trkpt lat="42.692752406" lon="0.1256767474">
        <time>2022-03-01T08:44:17+00:00</time>
        <ele>2408.0</ele>
      </trkpt>
      <trkpt lat="42.6927410904" lon="0.1256904937">
        <time>2022-03-01T08:44:47+00:00</time>
        <ele>2407.0</ele>
      </trkpt>
      <trkpt lat="42.6927486341" lon="0.12568295">
        <time>2022-03-01T08:45:07+00:00</time>
        <ele>2408.0</ele>
      </trkpt>
      <trkpt lat="42.6927722711" lon="0.125630144">
        <time>2022-03-01T08:45:27+00:00</time>
        <ele>2410.0</ele>
      </trkpt>
      <trkpt lat="42.6927930582" lon="0.1256681141">
        <time>2022-03-01T08:45:58+00:00</time>
        <ele>2409.0</ele>
      </trkpt>
      <trkpt lat="42.6927513164" lon="0.1256216783">
        <time>2022-03-01T08:46:26+00:00</time>
        <ele>2410.0</ele>
      </trkpt>
      <trkpt lat="42.6927383244" lon="0.1256720535">
        <time>2022-03-01T08:47:00+00:00</time>
        <ele>2408.0</ele>
      </trkpt>
      <trkpt lat="42.6928345487" lon="0.1256298088">
        <time>2022-03-01T08:47:20+00:00</time>
        <ele>2412.0</ele>
      </trkpt>
      <trkpt lat="42.6928902045" lon="0.1256413758">
        <time>2022-03-01T08:47:35+00:00</time>
        <ele>2413.0</ele>
      </trkpt>
      <trkpt lat="42.6929203793" lon="0.1256545354">
        <time>2022-03-01T08:47:52+00:00</time>
        <ele>2413.0</ele>
      </trkpt>
      <trkpt lat="42.6929777116" lon="0.1256497577">
        <time>2022-03-01T08:48:05+00:00</time>
        <ele>2415.0</ele>
      </trkpt>
      <trkpt lat="42.6930366363" lon="0.1256404538">
        <time>2022-03-01T08:48:20+00:00</time>
        <ele>2418.0</ele>
      </trkpt>
      <trkpt lat="42.6930694934" lon="0.1256492548">
        <time>2022-03-01T08:48:34+00:00</time>
        <ele>2418.0</ele>
      </trkpt>
      <trkpt lat="42.6931579225" lon="0.1256744005">
        <time>2022-03-01T08:48:49+00:00</time>
        <ele>2421.0</ele>
      </trkpt>
      <trkpt lat="42.6931985747" lon="0.1257110294">
        <time>2022-03-01T08:49:03+00:00</time>
        <ele>2421.0</ele>
      </trkpt>
      <trkpt lat="42.6932577509" lon="0.1256987918">
        <time>2022-03-01T08:49:15+00:00</time>
        <ele>2424.0</ele>
      </trkpt>
      <trkpt lat="42.6933274046" lon="0.1257407852">
        <time>2022-03-01T08:49:29+00:00</time>
        <ele>2425.0</ele>
      </trkpt>
      <trkpt lat="42.6934070326" lon="0.125764925">
        <time>2022-03-01T08:49:44+00:00</time>
        <ele>2427.0</ele>
      </trkpt>
      <trkpt lat="42.6935158297" lon="0.1258121151">
        <time>2022-03-01T08:49:59+00:00</time>
        <ele>2432.0</ele>
      </trkpt>
      <trkpt lat="42.6936155744" lon="0.125927031">
        <time>2022-03-01T08:50:18+00:00</time>
        <ele>2435.0</ele>
      </trkpt>
      <trkpt lat="42.6936682127" lon="0.1259562001">
        <time>2022-03-01T08:50:35+00:00</time>
        <ele>2437.0</ele>
      </trkpt>
      <trkpt lat="42.6937322505" lon="0.1260255184">
        <time>2022-03-01T08:50:49+00:00</time>
        <ele>2439.0</ele>
      </trkpt>
      <trkpt lat="42.6937242877" lon="0.1260372531">
        <time>2022-03-01T08:51:05+00:00</time>
        <ele>2438.0</ele>
      </trkpt>
      <trkpt lat="42.6936794445" lon="0.1259706169">
        <time>2022-03-01T08:51:22+00:00</time>
        <ele>2437.0</ele>
      </trkpt>
      <trkpt lat="42.6936577354" lon="0.1258790866">
        <time>2022-03-01T08:51:37+00:00</time>
        <ele>2438.0</ele>
      </trkpt>
      <trkpt lat="42.6937055122" lon="0.1258982811">
        <time>2022-03-01T08:51:56+00:00</time>
        <ele>2440.0</ele>
      </trkpt>
      <trkpt lat="42.6937865652" lon="0.1259428728">
        <time>2022-03-01T08:52:11+00:00</time>
        <ele>2444.0</ele>
      </trkpt>
      <trkpt lat="42.6938848011" lon="0.1259511709">
        <time>2022-03-01T08:52:26+00:00</time>
        <ele>2447.0</ele>
      </trkpt>
      <trkpt lat="42.6939518563" lon="0.125978915">
        <time>2022-03-01T08:52:41+00:00</time>
        <ele>2448.0</ele>
      </trkpt>
      <trkpt lat="42.6939932629" lon="0.1260153763">
        <time>2022-03-01T08:52:57+00:00</time>
        <ele>2448.0</ele>
      </trkpt>
      <trkpt lat="42.6940324903" lon="0.1259356644">
        <time>2022-03-01T08:53:12+00:00</time>
        <ele>2451.0</ele>
      </trkpt>
      <trkpt lat="42.6939749904" lon="0.1259950083">
        <time>2022-03-01T08:53:36+00:00</time>
        <ele>2448.0</ele>
      </trkpt>
      <trkpt lat="42.6939091086" lon="0.1259656716">
        <time>2022-03-01T08:53:55+00:00</time>
        <ele>2447.0</ele>
      </trkpt>
      <trkpt lat="42.6938607451" lon="0.1258961018">
        <time>2022-03-01T08:54:10+00:00</time>
        <ele>2448.0</ele>
      </trkpt>
      <trkpt lat="42.6938736532" lon="0.1258241851">
        <time>2022-03-01T08:54:27+00:00</time>
        <ele>2450.0</ele>
      </trkpt>
      <trkpt lat="42.6939247828" lon="0.125801973">
        <time>2022-03-01T08:54:46+00:00</time>
        <ele>2451.0</ele>
      </trkpt>
      <trkpt lat="42.6940158103" lon="0.1257976983">
        <time>2022-03-01T08:55:02+00:00</time>
        <ele>2454.0</ele>
      </trkpt>
      <trkpt lat="42.6940891519" lon="0.1258649211">
        <time>2022-03-01T08:55:15+00:00</time>
        <ele>2453.0</ele>
      </trkpt>
      <trkpt lat="42.6941250265" lon="0.1258771587">
        <time>2022-03-01T08:55:21+00:00</time>
        <ele>2454.0</ele>
      </trkpt>
      <trkpt lat="42.6942112762" lon="0.1259138715">
        <time>2022-03-01T08:55:37+00:00</time>
        <ele>2454.0</ele>
      </trkpt>
      <trkpt lat="42.6943018846" lon="0.1259292103">
        <time>2022-03-01T08:55:52+00:00</time>
        <ele>2454.0</ele>
      </trkpt>
      <trkpt lat="42.6943106856" lon="0.1259110216">
        <time>2022-03-01T08:56:11+00:00</time>
        <ele>2455.0</ele>
      </trkpt>
      <trkpt lat="42.6943009626" lon="0.125944633">
        <time>2022-03-01T08:56:26+00:00</time>
        <ele>2454.0</ele>
      </trkpt>
      <trkpt lat="42.69431144" lon="0.1259542722">
        <time>2022-03-01T08:56:45+00:00</time>
        <ele>2454.0</ele>
      </trkpt>
      <trkpt lat="42.6943106018" lon="0.1259834412">
        <time>2022-03-01T08:57:02+00:00</time>
        <ele>2453.0</ele>
      </trkpt>
      <trkpt lat="42.6943913195" lon="0.1259737182">
        <time>2022-03-01T08:57:17+00:00</time>
        <ele>2454.0</ele>
      </trkpt>
      <trkpt lat="42.694423506" lon="0.1259815972">
        <time>2022-03-01T08:57:31+00:00</time>
        <ele>2454.0</ele>
      </trkpt>
      <trkpt lat="42.6944444608" lon="0.1259810943">
        <time>2022-03-01T08:57:47+00:00</time>
        <ele>2454.0</ele>
      </trkpt>
      <trkpt lat="42.6944352407" lon="0.1260027196">
        <time>2022-03-01T08:58:01+00:00</time>
        <ele>2453.0</ele>
      </trkpt>
      <trkpt lat="42.694460135" lon="0.125988638">
        <time>2022-03-01T08:58:22+00:00</time>
        <ele>2454.0</ele>
      </trkpt>
      <trkpt lat="42.6944671758" lon="0.1259945054">
        <time>2022-03-01T08:58:44+00:00</time>
        <ele>2454.0</ele>
      </trkpt>
      <trkpt lat="42.6944699418" lon="0.1260230038">
        <time>2022-03-01T08:59:05+00:00</time>
        <ele>2453.0</ele>
      </trkpt>
      <trkpt lat="42.6944680139" lon="0.1260244288">
        <time>2022-03-01T08:59:29+00:00</time>
        <ele>2453.0</ele>
      </trkpt>
      <trkpt lat="42.6945370808" lon="0.1259635761">
        <time>2022-03-01T08:59:46+00:00</time>
        <ele>2455.0</ele>
      </trkpt>
      <trkpt lat="42.6946176309" lon="0.125976149">
        <time>2022-03-01T08:59:58+00:00</time>
        <ele>2455.0</ele>
      </trkpt>
      <trkpt lat="42.6947237458" lon="0.1260074973">
        <time>2022-03-01T09:00:14+00:00</time>
        <ele>2457.0</ele>
      </trkpt>
      <trkpt lat="42.6948490553" lon="0.1260706969">
        <time>2022-03-01T09:00:27+00:00</time>
        <ele>2459.0</ele>
      </trkpt>
      <trkpt lat="42.6949777175" lon="0.1261397637">
        <time>2022-03-01T09:00:41+00:00</time>
        <ele>2461.0</ele>
      </trkpt>
      <trkpt lat="42.6950873528" lon="0.1261434518">
        <time>2022-03-01T09:00:54+00:00</time>
        <ele>2463.0</ele>
      </trkpt>
      <trkpt lat="42.695123814" lon="0.1261867862">
        <time>2022-03-01T09:01:08+00:00</time>
        <ele>2462.0</ele>
      </trkpt>
      <trkpt lat="42.695151642" lon="0.1261999458">
        <time>2022-03-01T09:01:25+00:00</time>
        <ele>2463.0</ele>
      </trkpt>
      <trkpt lat="42.6952737663" lon="0.126201706">
        <time>2022-03-01T09:01:41+00:00</time>
        <ele>2464.0</ele>
      </trkpt>
      <trkpt lat="42.6953864191" lon="0.126201706">
        <time>2022-03-01T09:01:57+00:00</time>
        <ele>2465.0</ele>
      </trkpt>
      <trkpt lat="42.6954630297" lon="0.1262268517">
        <time>2022-03-01T09:02:11+00:00</time>
        <ele>2466.0</ele>
      </trkpt>
      <trkpt lat="42.6955739222" lon="0.1262569427">
        <time>2022-03-01T09:02:27+00:00</time>
        <ele>2468.0</ele>
      </trkpt>
      <trkpt lat="42.6956714038" lon="0.1262754668">
        <time>2022-03-01T09:02:46+00:00</time>
        <ele>2469.0</ele>
      </trkpt>
      <trkpt lat="42.6956999023" lon="0.1262778137">
        <time>2022-03-01T09:02:51+00:00</time>
        <ele>2469.0</ele>
      </trkpt>
      <trkpt lat="42.6957686339" lon="0.1262356527">
        <time>2022-03-01T09:03:08+00:00</time>
        <ele>2471.0</ele>
      </trkpt>
      <trkpt lat="42.6958353538" lon="0.1262607984">
        <time>2022-03-01T09:03:28+00:00</time>
        <ele>2472.0</ele>
      </trkpt>
      <trkpt lat="42.6959435642" lon="0.1262765564">
        <time>2022-03-01T09:03:44+00:00</time>
        <ele>2474.0</ele>
      </trkpt>
      <trkpt lat="42.696048338" lon="0.1262761373">
        <time>2022-03-01T09:04:02+00:00</time>
        <ele>2477.0</ele>
      </trkpt>
      <trkpt lat="42.6961490046" lon="0.1263056416">
        <time>2022-03-01T09:04:20+00:00</time>
        <ele>2480.0</ele>
      </trkpt>
      <trkpt lat="42.6962480787" lon="0.1263177954">
        <time>2022-03-01T09:04:36+00:00</time>
        <ele>2483.0</ele>
      </trkpt>
      <trkpt lat="42.6963348314" lon="0.1263402589">
        <time>2022-03-01T09:04:53+00:00</time>
        <ele>2485.0</ele>
      </trkpt>
      <trkpt lat="42.6964448858" lon="0.1263530832">
        <time>2022-03-01T09:05:09+00:00</time>
        <ele>2489.0</ele>
      </trkpt>
      <trkpt lat="42.6965713687" lon="0.1263534185">
        <time>2022-03-01T09:05:26+00:00</time>
        <ele>2494.0</ele>
      </trkpt>
      <trkpt lat="42.6967156213" lon="0.1263768878">
        <time>2022-03-01T09:05:46+00:00</time>
        <ele>2500.0</ele>
      </trkpt>
      <trkpt lat="42.6968016196" lon="0.1263826713">
        <time>2022-03-01T09:06:02+00:00</time>
        <ele>2504.0</ele>
      </trkpt>
      <trkpt lat="42.6969048847" lon="0.1263974234">
        <time>2022-03-01T09:06:20+00:00</time>
        <ele>2507.0</ele>
      </trkpt>
      <trkpt lat="42.697038576" lon="0.1263966691">
        <time>2022-03-01T09:06:39+00:00</time>
        <ele>2513.0</ele>
      </trkpt>
      <trkpt lat="42.6971133426" lon="0.1263807435">
        <time>2022-03-01T09:06:53+00:00</time>
        <ele>2516.0</ele>
      </trkpt>
      <trkpt lat="42.6971535757" lon="0.126347132">
        <time>2022-03-01T09:07:09+00:00</time>
        <ele>2518.0</ele>
      </trkpt>
      <trkpt lat="42.6972380653" lon="0.1263514906">
        <time>2022-03-01T09:07:30+00:00</time>
        <ele>2522.0</ele>
      </trkpt>
      <trkpt lat="42.6973147597" lon="0.1263282727">
        <time>2022-03-01T09:07:46+00:00</time>
        <ele>2526.0</ele>
      </trkpt>
      <trkpt lat="42.6974080503" lon="0.1262977626">
        <time>2022-03-01T09:08:01+00:00</time>
        <ele>2529.0</ele>
      </trkpt>
      <trkpt lat="42.6974654663" lon="0.1262680069">
        <time>2022-03-01T09:08:22+00:00</time>
        <ele>2531.0</ele>
      </trkpt>
      <trkpt lat="42.6975692343" lon="0.1262444537">
        <time>2022-03-01T09:08:39+00:00</time>
        <ele>2534.0</ele>
      </trkpt>
      <trkpt lat="42.6976697333" lon="0.1261984371">
        <time>2022-03-01T09:08:54+00:00</time>
        <ele>2537.0</ele>
      </trkpt>
      <trkpt lat="42.6976794563" lon="0.1261281967">
        <time>2022-03-01T09:09:10+00:00</time>
        <ele>2535.0</ele>
      </trkpt>
      <trkpt lat="42.6977516245" lon="0.1262727007">
        <time>2022-03-01T09:09:32+00:00</time>
        <ele>2541.0</ele>
      </trkpt>
      <trkpt lat="42.6978512015" lon="0.1263699308">
        <time>2022-03-01T09:10:02+00:00</time>
        <ele>2547.0</ele>
      </trkpt>
      <trkpt lat="42.6978500281" lon="0.1263910532">
        <time>2022-03-01T09:10:25+00:00</time>
        <ele>2547.0</ele>
      </trkpt>
      <trkpt lat="42.6978821307" lon="0.1262856927">
        <time>2022-03-01T09:10:36+00:00</time>
        <ele>2545.0</ele>
      </trkpt>
      <trkpt lat="42.6979873236" lon="0.1263055578">
        <time>2022-03-01T09:10:52+00:00</time>
        <ele>2548.0</ele>
      </trkpt>
      <trkpt lat="42.698000567" lon="0.126311006">
        <time>2022-03-01T09:10:54+00:00</time>
        <ele>2548.0</ele>
      </trkpt>
      <trkpt lat="42.6981776766" lon="0.1261395123">
        <time>2022-03-01T09:11:10+00:00</time>
        <ele>2546.0</ele>
      </trkpt>
      <trkpt lat="42.6981715579" lon="0.1260901429">
        <time>2022-03-01T09:11:38+00:00</time>
        <ele>2545.0</ele>
      </trkpt>
      <trkpt lat="42.6981359348" lon="0.1260660868">
        <time>2022-03-01T09:12:02+00:00</time>
        <ele>2543.0</ele>
      </trkpt>
      <trkpt lat="42.6981489267" lon="0.1260939986">
        <time>2022-03-01T09:12:25+00:00</time>
        <ele>2544.0</ele>
      </trkpt>
      <trkpt lat="42.6981209312" lon="0.1260977704">
        <time>2022-03-01T09:12:32+00:00</time>
        <ele>2544.0</ele>
      </trkpt>
      <trkpt lat="42.6980930194" lon="0.1261392608">
        <time>2022-03-01T09:12:46+00:00</time>
        <ele>2545.0</ele>
      </trkpt>
      <trkpt lat="42.6980963722" lon="0.1261260174">
        <time>2022-03-01T09:13:22+00:00</time>
        <ele>2544.0</ele>
      </trkpt>
      <trkpt lat="42.6981151477" lon="0.126142865">
        <time>2022-03-01T09:13:58+00:00</time>
        <ele>2545.0</ele>
      </trkpt>
      <trkpt lat="42.6981099509" lon="0.1261240896">
        <time>2022-03-01T09:14:33+00:00</time>
        <ele>2545.0</ele>
      </trkpt>
      <trkpt lat="42.6980585698" lon="0.1260793302">
        <time>2022-03-01T09:15:08+00:00</time>
        <ele>2542.0</ele>
      </trkpt>
      <trkpt lat="42.6980672032" lon="0.126088215">
        <time>2022-03-01T09:15:38+00:00</time>
        <ele>2543.0</ele>
      </trkpt>
      <trkpt lat="42.6980388723" lon="0.1260769833">
        <time>2022-03-01T09:16:13+00:00</time>
        <ele>2542.0</ele>
      </trkpt>
      <trkpt lat="42.6980758365" lon="0.126120653">
        <time>2022-03-01T09:16:45+00:00</time>
        <ele>2544.0</ele>
      </trkpt>
      <trkpt lat="42.6980744954" lon="0.1261514984">
        <time>2022-03-01T09:17:14+00:00</time>
        <ele>2545.0</ele>
      </trkpt>
      <trkpt lat="42.6980651077" lon="0.1261047274">
        <time>2022-03-01T09:17:48+00:00</time>
        <ele>2543.0</ele>
      </trkpt>
      <trkpt lat="42.6981100347" lon="0.1261320524">
        <time>2022-03-01T09:18:16+00:00</time>
        <ele>2545.0</ele>
      </trkpt>
      <trkpt lat="42.6981033292" lon="0.1261256821">
        <time>2022-03-01T09:18:31+00:00</time>
        <ele>2544.0</ele>
      </trkpt>
      <trkpt lat="42.6981319115" lon="0.1261164621">
        <time>2022-03-01T09:18:44+00:00</time>
        <ele>2545.0</ele>
      </trkpt>
      <trkpt lat="42.6981733181" lon="0.1260972675">
        <time>2022-03-01T09:19:03+00:00</time>
        <ele>2545.0</ele>
      </trkpt>
      <trkpt lat="42.6982448995" lon="0.1261142828">
        <time>2022-03-01T09:19:14+00:00</time>
        <ele>2547.0</ele>
      </trkpt>
      <trkpt lat="42.6983024832" lon="0.1261100918">
        <time>2022-03-01T09:19:27+00:00</time>
        <ele>2548.0</ele>
      </trkpt>
      <trkpt lat="42.6983985398" lon="0.126045635">
        <time>2022-03-01T09:19:42+00:00</time>
        <ele>2549.0</ele>
      </trkpt>
      <trkpt lat="42.6985093486" lon="0.125988638">
        <time>2022-03-01T09:19:58+00:00</time>
        <ele>2550.0</ele>
      </trkpt>
      <trkpt lat="42.6986209955" lon="0.1259183139">
        <time>2022-03-01T09:20:12+00:00</time>
        <ele>2550.0</ele>
      </trkpt>
      <trkpt lat="42.6986331493" lon="0.1259178948">
        <time>2022-03-01T09:20:13+00:00</time>
        <ele>2550.0</ele>
      </trkpt>
      <trkpt lat="42.6987910643" lon="0.1259095967">
        <time>2022-03-01T09:20:29+00:00</time>
        <ele>2551.0</ele>
      </trkpt>
      <trkpt lat="42.6989430282" lon="0.1259080879">
        <time>2022-03-01T09:20:46+00:00</time>
        <ele>2551.0</ele>
      </trkpt>
      <trkpt lat="42.6990419347" lon="0.1259422023">
        <time>2022-03-01T09:21:01+00:00</time>
        <ele>2552.0</ele>
      </trkpt>
      <trkpt lat="42.6990524959" lon="0.1259530149">
        <time>2022-03-01T09:21:15+00:00</time>
        <ele>2552.0</ele>
      </trkpt>
      <trkpt lat="42.6990928128" lon="0.1259404421">
        <time>2022-03-01T09:21:28+00:00</time>
        <ele>2552.0</ele>
      </trkpt>
      <trkpt lat="42.6991607901" lon="0.1259186491">
        <time>2022-03-01T09:21:38+00:00</time>
        <ele>2550.0</ele>
      </trkpt>
      <trkpt lat="42.6992379874" lon="0.1258542761">
        <time>2022-03-01T09:21:51+00:00</time>
        <ele>2546.0</ele>
      </trkpt>
      <trkpt lat="42.6992431004" lon="0.1258457266">
        <time>2022-03-01T09:21:52+00:00</time>
        <ele>2546.0</ele>
      </trkpt>
      <trkpt lat="42.6992718503" lon="0.1257154718">
        <time>2022-03-01T09:22:07+00:00</time>
        <ele>2541.0</ele>
      </trkpt>
      <trkpt lat="42.6993255783" lon="0.1256441418">
        <time>2022-03-01T09:22:19+00:00</time>
        <ele>2538.0</ele>
      </trkpt>
      <trkpt lat="42.6993371453" lon="0.1256373525">
        <time>2022-03-01T09:22:31+00:00</time>
        <ele>2537.0</ele>
      </trkpt>
      <trkpt lat="42.6993647218" lon="0.1255644299">
        <time>2022-03-01T09:22:37+00:00</time>
        <ele>2535.0</ele>
      </trkpt>
      <trkpt lat="42.6994411647" lon="0.1254076883">
        <time>2022-03-01T09:22:50+00:00</time>
        <ele>2529.0</ele>
      </trkpt>
      <trkpt lat="42.6994969882" lon="0.125303166">
        <time>2022-03-01T09:23:01+00:00</time>
        <ele>2526.0</ele>
      </trkpt>
      <trkpt lat="42.6995164342" lon="0.1252529584">
        <time>2022-03-01T09:23:05+00:00</time>
        <ele>2524.0</ele>
      </trkpt>
      <trkpt lat="42.6995870937" lon="0.1251132321">
        <time>2022-03-01T09:23:18+00:00</time>
        <ele>2521.0</ele>
      </trkpt>
      <trkpt lat="42.6996424142" lon="0.1249988191">
        <time>2022-03-01T09:23:29+00:00</time>
        <ele>2520.0</ele>
      </trkpt>
      <trkpt lat="42.6997269876" lon="0.1248421613">
        <time>2022-03-01T09:23:43+00:00</time>
        <ele>2520.0</ele>
      </trkpt>
      <trkpt lat="42.6998224575" lon="0.1247065421">
        <time>2022-03-01T09:23:58+00:00</time>
        <ele>2519.0</ele>
      </trkpt>
      <trkpt lat="42.6998657081" lon="0.1246455219">
        <time>2022-03-01T09:24:05+00:00</time>
        <ele>2519.0</ele>
      </trkpt>
      <trkpt lat="42.6998984814" lon="0.1246185321">
        <time>2022-03-01T09:24:09+00:00</time>
        <ele>2518.0</ele>
      </trkpt>
      <trkpt lat="42.6999267284" lon="0.1245815679">
        <time>2022-03-01T09:24:13+00:00</time>
        <ele>2518.0</ele>
      </trkpt>
      <trkpt lat="42.6999781933" lon="0.1245327014">
        <time>2022-03-01T09:24:20+00:00</time>
        <ele>2517.0</ele>
      </trkpt>
      <trkpt lat="42.7000814583" lon="0.124469921">
        <time>2022-03-01T09:24:34+00:00</time>
        <ele>2517.0</ele>
      </trkpt>
      <trkpt lat="42.7002079412" lon="0.1244071405">
        <time>2022-03-01T09:24:48+00:00</time>
        <ele>2517.0</ele>
      </trkpt>
      <trkpt lat="42.7001924347" lon="0.1244202163">
        <time>2022-03-01T09:25:03+00:00</time>
        <ele>2517.0</ele>
      </trkpt>
      <trkpt lat="42.7002016548" lon="0.1244194619">
        <time>2022-03-01T09:25:33+00:00</time>
        <ele>2517.0</ele>
      </trkpt>
      <trkpt lat="42.7002294827" lon="0.124380067">
        <time>2022-03-01T09:25:49+00:00</time>
        <ele>2517.0</ele>
      </trkpt>
      <trkpt lat="42.7003589831" lon="0.1243629679">
        <time>2022-03-01T09:26:02+00:00</time>
        <ele>2516.0</ele>
      </trkpt>
      <trkpt lat="42.7005015593" lon="0.1243693382">
        <time>2022-03-01T09:26:18+00:00</time>
        <ele>2516.0</ele>
      </trkpt>
      <trkpt lat="42.7006567921" lon="0.1243889518">
        <time>2022-03-01T09:26:34+00:00</time>
        <ele>2515.0</ele>
      </trkpt>
      <trkpt lat="42.7007712889" lon="0.1243840065">
        <time>2022-03-01T09:26:48+00:00</time>
        <ele>2515.0</ele>
      </trkpt>
      <trkpt lat="42.7009293716" lon="0.1243823301">
        <time>2022-03-01T09:27:05+00:00</time>
        <ele>2515.0</ele>
      </trkpt>
      <trkpt lat="42.7010613866" lon="0.1243681647">
        <time>2022-03-01T09:27:20+00:00</time>
        <ele>2514.0</ele>
      </trkpt>
      <trkpt lat="42.7011852711" lon="0.1243183762">
        <time>2022-03-01T09:27:34+00:00</time>
        <ele>2514.0</ele>
      </trkpt>
      <trkpt lat="42.7013251651" lon="0.1242190506">
        <time>2022-03-01T09:27:52+00:00</time>
        <ele>2514.0</ele>
      </trkpt>
      <trkpt lat="42.7014037874" lon="0.1240499876">
        <time>2022-03-01T09:28:09+00:00</time>
        <ele>2515.0</ele>
      </trkpt>
      <trkpt lat="42.7015178651" lon="0.1238909829">
        <time>2022-03-01T09:28:28+00:00</time>
        <ele>2516.0</ele>
      </trkpt>
      <trkpt lat="42.701674439" lon="0.1237842813">
        <time>2022-03-01T09:28:48+00:00</time>
        <ele>2517.0</ele>
      </trkpt>
      <trkpt lat="42.7018312644" lon="0.1237064134">
        <time>2022-03-01T09:29:06+00:00</time>
        <ele>2517.0</ele>
      </trkpt>
      <trkpt lat="42.7019640338" lon="0.1236418728">
        <time>2022-03-01T09:29:22+00:00</time>
        <ele>2518.0</ele>
      </trkpt>
      <trkpt lat="42.7021078672" lon="0.1236114465">
        <time>2022-03-01T09:29:37+00:00</time>
        <ele>2518.0</ele>
      </trkpt>
      <trkpt lat="42.7022484317" lon="0.1235621609">
        <time>2022-03-01T09:29:55+00:00</time>
        <ele>2518.0</ele>
      </trkpt>
      <trkpt lat="42.7023822907" lon="0.1235773321">
        <time>2022-03-01T09:30:10+00:00</time>
        <ele>2517.0</ele>
      </trkpt>
      <trkpt lat="42.7025533654" lon="0.1235526055">
        <time>2022-03-01T09:30:30+00:00</time>
        <ele>2517.0</ele>
      </trkpt>
      <trkpt lat="42.7026919182" lon="0.1235733926">
        <time>2022-03-01T09:30:48+00:00</time>
        <ele>2517.0</ele>
      </trkpt>
      <trkpt lat="42.7028072532" lon="0.1235411223">
        <time>2022-03-01T09:31:05+00:00</time>
        <ele>2517.0</ele>
      </trkpt>
      <trkpt lat="42.7029330656" lon="0.1234990451">
        <time>2022-03-01T09:31:24+00:00</time>
        <ele>2518.0</ele>
      </trkpt>
      <trkpt lat="42.70300515" lon="0.1234735642">
        <time>2022-03-01T09:31:38+00:00</time>
        <ele>2518.0</ele>
      </trkpt>
      <trkpt lat="42.7030930761" lon="0.1234493405">
        <time>2022-03-01T09:31:53+00:00</time>
        <ele>2519.0</ele>
      </trkpt>
      <trkpt lat="42.703176979" lon="0.1234366838">
        <time>2022-03-01T09:32:11+00:00</time>
        <ele>2521.0</ele>
      </trkpt>
      <trkpt lat="42.7032688446" lon="0.1234225184">
        <time>2022-03-01T09:32:27+00:00</time>
        <ele>2524.0</ele>
      </trkpt>
      <trkpt lat="42.7033274341" lon="0.1234275475">
        <time>2022-03-01T09:32:40+00:00</time>
        <ele>2526.0</ele>
      </trkpt>
      <trkpt lat="42.7033931483" lon="0.1234141365">
        <time>2022-03-01T09:32:56+00:00</time>
        <ele>2527.0</ele>
      </trkpt>
      <trkpt lat="42.7035357244" lon="0.1234085206">
        <time>2022-03-01T09:33:16+00:00</time>
        <ele>2531.0</ele>
      </trkpt>
      <trkpt lat="42.7036745287" lon="0.123518575">
        <time>2022-03-01T09:33:36+00:00</time>
        <ele>2534.0</ele>
      </trkpt>
      <trkpt lat="42.7038170211" lon="0.1233908348">
        <time>2022-03-01T09:33:55+00:00</time>
        <ele>2534.0</ele>
      </trkpt>
      <trkpt lat="42.7039626148" lon="0.1233271323">
        <time>2022-03-01T09:34:10+00:00</time>
        <ele>2534.0</ele>
      </trkpt>
      <trkpt lat="42.704094965" lon="0.123253623">
        <time>2022-03-01T09:34:27+00:00</time>
        <ele>2534.0</ele>
      </trkpt>
      <trkpt lat="42.70426495" lon="0.1232361048">
        <time>2022-03-01T09:34:45+00:00</time>
        <ele>2533.0</ele>
      </trkpt>
      <trkpt lat="42.704398809" lon="0.1231939439">
        <time>2022-03-01T09:35:02+00:00</time>
        <ele>2532.0</ele>
      </trkpt>
      <trkpt lat="42.7045082767" lon="0.123175839">
        <time>2022-03-01T09:35:17+00:00</time>
        <ele>2532.0</ele>
      </trkpt>
      <trkpt lat="42.7045441512" lon="0.1231829636">
        <time>2022-03-01T09:35:32+00:00</time>
        <ele>2532.0</ele>
      </trkpt>
      <trkpt lat="42.7045376133" lon="0.1231799461">
        <time>2022-03-01T09:35:56+00:00</time>
        <ele>2532.0</ele>
      </trkpt>
      <trkpt lat="42.7046374418" lon="0.1230124757">
        <time>2022-03-01T09:36:11+00:00</time>
        <ele>2533.0</ele>
      </trkpt>
      <trkpt lat="42.7047131304" lon="0.1229525451">
        <time>2022-03-01T09:36:26+00:00</time>
        <ele>2533.0</ele>
      </trkpt>
      <trkpt lat="42.7047467418" lon="0.1229283214">
        <time>2022-03-01T09:36:41+00:00</time>
        <ele>2533.0</ele>
      </trkpt>
      <trkpt lat="42.7048306447" lon="0.1228047721">
        <time>2022-03-01T09:36:58+00:00</time>
        <ele>2534.0</ele>
      </trkpt>
      <trkpt lat="42.7048829477" lon="0.1227504574">
        <time>2022-03-01T09:37:13+00:00</time>
        <ele>2534.0</ele>
      </trkpt>
      <trkpt lat="42.7048941795" lon="0.1227732562">
        <time>2022-03-01T09:37:34+00:00</time>
        <ele>2534.0</ele>
      </trkpt>
      <trkpt lat="42.7049411181" lon="0.1226931252">
        <time>2022-03-01T09:37:50+00:00</time>
        <ele>2534.0</ele>
      </trkpt>
      <trkpt lat="42.7049667668" lon="0.122659849">
        <time>2022-03-01T09:37:55+00:00</time>
        <ele>2534.0</ele>
      </trkpt>
      <trkpt lat="42.7050900646" lon="0.1225251518">
        <time>2022-03-01T09:38:14+00:00</time>
        <ele>2534.0</ele>
      </trkpt>
      <trkpt lat="42.7052270249" lon="0.1224293467">
        <time>2022-03-01T09:38:31+00:00</time>
        <ele>2533.0</ele>
      </trkpt>
      <trkpt lat="42.7053294517" lon="0.1223857608">
        <time>2022-03-01T09:38:48+00:00</time>
        <ele>2533.0</ele>
      </trkpt>
      <trkpt lat="42.7054322977" lon="0.1223779656">
        <time>2022-03-01T09:39:01+00:00</time>
        <ele>2533.0</ele>
      </trkpt>
      <trkpt lat="42.7055526618" lon="0.1223589387">
        <time>2022-03-01T09:39:14+00:00</time>
        <ele>2533.0</ele>
      </trkpt>
      <trkpt lat="42.7055376582" lon="0.1223515626">
        <time>2022-03-01T09:39:29+00:00</time>
        <ele>2533.0</ele>
      </trkpt>
      <trkpt lat="42.705496503" lon="0.1223242376">
        <time>2022-03-01T09:39:54+00:00</time>
        <ele>2533.0</ele>
      </trkpt>
      <trkpt lat="42.7055415977" lon="0.12232407">
        <time>2022-03-01T09:40:17+00:00</time>
        <ele>2533.0</ele>
      </trkpt>
      <trkpt lat="42.7055797353" lon="0.1223269198">
        <time>2022-03-01T09:40:34+00:00</time>
        <ele>2533.0</ele>
      </trkpt>
      <trkpt lat="42.7055740356" lon="0.122341672">
        <time>2022-03-01T09:40:54+00:00</time>
        <ele>2533.0</ele>
      </trkpt>
      <trkpt lat="42.705610916" lon="0.1223210525">
        <time>2022-03-01T09:41:00+00:00</time>
        <ele>2534.0</ele>
      </trkpt>
      <trkpt lat="42.7057008538" lon="0.1222776342">
        <time>2022-03-01T09:41:17+00:00</time>
        <ele>2534.0</ele>
      </trkpt>
      <trkpt lat="42.705720719" lon="0.1222699229">
        <time>2022-03-01T09:41:19+00:00</time>
        <ele>2535.0</ele>
      </trkpt>
      <trkpt lat="42.7058497164" lon="0.122262463">
        <time>2022-03-01T09:41:35+00:00</time>
        <ele>2536.0</ele>
      </trkpt>
      <trkpt lat="42.7059015166" lon="0.1222576015">
        <time>2022-03-01T09:41:48+00:00</time>
        <ele>2536.0</ele>
      </trkpt>
      <trkpt lat="42.7059504669" lon="0.1222140156">
        <time>2022-03-01T09:42:05+00:00</time>
        <ele>2537.0</ele>
      </trkpt>
      <trkpt lat="42.7060772851" lon="0.1221736148">
        <time>2022-03-01T09:42:21+00:00</time>
        <ele>2539.0</ele>
      </trkpt>
      <trkpt lat="42.7061828133" lon="0.122155929">
        <time>2022-03-01T09:42:36+00:00</time>
        <ele>2542.0</ele>
      </trkpt>
      <trkpt lat="42.7062503714" lon="0.1221319567">
        <time>2022-03-01T09:42:52+00:00</time>
        <ele>2544.0</ele>
      </trkpt>
      <trkpt lat="42.7063188516" lon="0.1221047156">
        <time>2022-03-01T09:43:07+00:00</time>
        <ele>2545.0</ele>
      </trkpt>
      <trkpt lat="42.7062975615" lon="0.1221147738">
        <time>2022-03-01T09:43:28+00:00</time>
        <ele>2545.0</ele>
      </trkpt>
      <trkpt lat="42.7063405607" lon="0.1220876165">
        <time>2022-03-01T09:43:50+00:00</time>
        <ele>2546.0</ele>
      </trkpt>
      <trkpt lat="42.7064061072" lon="0.1220436953">
        <time>2022-03-01T09:44:06+00:00</time>
        <ele>2547.0</ele>
      </trkpt>
      <trkpt lat="42.7064783592" lon="0.1220300328">
        <time>2022-03-01T09:44:23+00:00</time>
        <ele>2549.0</ele>
      </trkpt>
      <trkpt lat="42.7065392118" lon="0.1219739579">
        <time>2022-03-01T09:44:39+00:00</time>
        <ele>2551.0</ele>
      </trkpt>
      <trkpt lat="42.7066094521" lon="0.1219494827">
        <time>2022-03-01T09:44:53+00:00</time>
        <ele>2552.0</ele>
      </trkpt>
      <trkpt lat="42.7066975459" lon="0.1219607145">
        <time>2022-03-01T09:45:12+00:00</time>
        <ele>2555.0</ele>
      </trkpt>
      <trkpt lat="42.7068297286" lon="0.1219679229">
        <time>2022-03-01T09:45:31+00:00</time>
        <ele>2560.0</ele>
      </trkpt>
      <trkpt lat="42.706799889" lon="0.121927103">
        <time>2022-03-01T09:45:46+00:00</time>
        <ele>2559.0</ele>
      </trkpt>
      <trkpt lat="42.7067776769" lon="0.1219509076">
        <time>2022-03-01T09:46:13+00:00</time>
        <ele>2558.0</ele>
      </trkpt>
      <trkpt lat="42.7067576442" lon="0.1218971796">
        <time>2022-03-01T09:46:28+00:00</time>
        <ele>2558.0</ele>
      </trkpt>
      <trkpt lat="42.7067833766" lon="0.1218271907">
        <time>2022-03-01T09:46:42+00:00</time>
        <ele>2559.0</ele>
      </trkpt>
      <trkpt lat="42.706787819" lon="0.1217111852">
        <time>2022-03-01T09:47:01+00:00</time>
        <ele>2562.0</ele>
      </trkpt>
      <trkpt lat="42.7067765873" lon="0.1216599718">
        <time>2022-03-01T09:47:12+00:00</time>
        <ele>2563.0</ele>
      </trkpt>
      <trkpt lat="42.7067465801" lon="0.1215858757">
        <time>2022-03-01T09:47:25+00:00</time>
        <ele>2563.0</ele>
      </trkpt>
      <trkpt lat="42.7067252062" lon="0.121546397">
        <time>2022-03-01T09:47:32+00:00</time>
        <ele>2563.0</ele>
      </trkpt>
      <trkpt lat="42.7067110408" lon="0.1215434633">
        <time>2022-03-01T09:47:49+00:00</time>
        <ele>2563.0</ele>
      </trkpt>
      <trkpt lat="42.7067467477" lon="0.1215271186">
        <time>2022-03-01T09:48:06+00:00</time>
        <ele>2565.0</ele>
      </trkpt>
      <trkpt lat="42.7068547066" lon="0.1214852929">
        <time>2022-03-01T09:48:24+00:00</time>
        <ele>2570.0</ele>
      </trkpt>
      <trkpt lat="42.7069441415" lon="0.1214860473">
        <time>2022-03-01T09:48:38+00:00</time>
        <ele>2574.0</ele>
      </trkpt>
      <trkpt lat="42.7070043236" lon="0.1214897353">
        <time>2022-03-01T09:48:53+00:00</time>
        <ele>2577.0</ele>
      </trkpt>
      <trkpt lat="42.7069941815" lon="0.1215122826">
        <time>2022-03-01T09:49:20+00:00</time>
        <ele>2576.0</ele>
      </trkpt>
      <trkpt lat="42.7070044912" lon="0.1215261128">
        <time>2022-03-01T09:49:35+00:00</time>
        <ele>2576.0</ele>
      </trkpt>
      <trkpt lat="42.707112534" lon="0.1215631608">
        <time>2022-03-01T09:49:52+00:00</time>
        <ele>2581.0</ele>
      </trkpt>
      <trkpt lat="42.7071326505" lon="0.121554276">
        <time>2022-03-01T09:50:04+00:00</time>
        <ele>2583.0</ele>
      </trkpt>
      <trkpt lat="42.7071054932" lon="0.1214841194">
        <time>2022-03-01T09:50:16+00:00</time>
        <ele>2583.0</ele>
      </trkpt>
      <trkpt lat="42.7070765756" lon="0.1214004681">
        <time>2022-03-01T09:50:31+00:00</time>
        <ele>2583.0</ele>
      </trkpt>
      <trkpt lat="42.7070726361" lon="0.1213376876">
        <time>2022-03-01T09:50:47+00:00</time>
        <ele>2584.0</ele>
      </trkpt>
      <trkpt lat="42.7070479933" lon="0.1212630887">
        <time>2022-03-01T09:51:03+00:00</time>
        <ele>2585.0</ele>
      </trkpt>
      <trkpt lat="42.7070369292" lon="0.1211817004">
        <time>2022-03-01T09:51:19+00:00</time>
        <ele>2587.0</ele>
      </trkpt>
      <trkpt lat="42.7070311457" lon="0.12116611">
        <time>2022-03-01T09:51:34+00:00</time>
        <ele>2588.0</ele>
      </trkpt>
      <trkpt lat="42.7070171479" lon="0.1211030781">
        <time>2022-03-01T09:51:53+00:00</time>
        <ele>2589.0</ele>
      </trkpt>
      <trkpt lat="42.7070190758" lon="0.1210936904">
        <time>2022-03-01T09:52:06+00:00</time>
        <ele>2589.0</ele>
      </trkpt>
      <trkpt lat="42.7070173994" lon="0.1211013179">
        <time>2022-03-01T09:52:24+00:00</time>
        <ele>2589.0</ele>
      </trkpt>
      <trkpt lat="42.7070734743" lon="0.1210827101">
        <time>2022-03-01T09:52:37+00:00</time>
        <ele>2591.0</ele>
      </trkpt>
      <trkpt lat="42.7071743924" lon="0.1210885774">
        <time>2022-03-01T09:52:53+00:00</time>
        <ele>2598.0</ele>
      </trkpt>
      <trkpt lat="42.707251925" lon="0.1211033296">
        <time>2022-03-01T09:53:06+00:00</time>
        <ele>2603.0</ele>
      </trkpt>
      <trkpt lat="42.7072615642" lon="0.1211175788">
        <time>2022-03-01T09:53:23+00:00</time>
        <ele>2603.0</ele>
      </trkpt>
      <trkpt lat="42.7072293777" lon="0.1211249549">
        <time>2022-03-01T09:53:42+00:00</time>
        <ele>2601.0</ele>
      </trkpt>
      <trkpt lat="42.7072144579" lon="0.1210436504">
        <time>2022-03-01T09:53:57+00:00</time>
        <ele>2602.0</ele>
      </trkpt>
      <trkpt lat="42.7071983647" lon="0.1209618431">
        <time>2022-03-01T09:54:13+00:00</time>
        <ele>2603.0</ele>
      </trkpt>
      <trkpt lat="42.7071936708" lon="0.1208607573">
        <time>2022-03-01T09:54:28+00:00</time>
        <ele>2606.0</ele>
      </trkpt>
      <trkpt lat="42.7071509231" lon="0.12078817">
        <time>2022-03-01T09:54:43+00:00</time>
        <ele>2606.0</ele>
      </trkpt>
      <trkpt lat="42.707105577" lon="0.120727988">
        <time>2022-03-01T09:54:59+00:00</time>
        <ele>2605.0</ele>
      </trkpt>
      <trkpt lat="42.7070619911" lon="0.1206717454">
        <time>2022-03-01T09:55:14+00:00</time>
        <ele>2606.0</ele>
      </trkpt>
      <trkpt lat="42.7069878951" lon="0.1206454262">
        <time>2022-03-01T09:55:30+00:00</time>
        <ele>2606.0</ele>
      </trkpt>
      <trkpt lat="42.7069829497" lon="0.1206683926">
        <time>2022-03-01T09:55:53+00:00</time>
        <ele>2605.0</ele>
      </trkpt>
      <trkpt lat="42.7069624141" lon="0.1206346974">
        <time>2022-03-01T09:56:12+00:00</time>
        <ele>2606.0</ele>
      </trkpt>
      <trkpt lat="42.706920756" lon="0.1205989905">
        <time>2022-03-01T09:56:26+00:00</time>
        <ele>2607.0</ele>
      </trkpt>
      <trkpt lat="42.7068120427" lon="0.1205414068">
        <time>2022-03-01T09:56:42+00:00</time>
        <ele>2610.0</ele>
      </trkpt>
      <trkpt lat="42.7067889925" lon="0.1205008384">
        <time>2022-03-01T09:56:57+00:00</time>
        <ele>2612.0</ele>
      </trkpt>
      <trkpt lat="42.70675404" lon="0.1204583421">
        <time>2022-03-01T09:57:13+00:00</time>
        <ele>2614.0</ele>
      </trkpt>
      <trkpt lat="42.7067122143" lon="0.1203588489">
        <time>2022-03-01T09:57:29+00:00</time>
        <ele>2619.0</ele>
      </trkpt>
      <trkpt lat="42.7066841349" lon="0.1202834118">
        <time>2022-03-01T09:57:44+00:00</time>
        <ele>2623.0</ele>
      </trkpt>
      <trkpt lat="42.7066496015" lon="0.1202455256">
        <time>2022-03-01T09:57:58+00:00</time>
        <ele>2625.0</ele>
      </trkpt>
      <trkpt lat="42.7066587377" lon="0.1202558354">
        <time>2022-03-01T09:58:26+00:00</time>
        <ele>2624.0</ele>
      </trkpt>
      <trkpt lat="42.7066565584" lon="0.1202528179">
        <time>2022-03-01T09:58:49+00:00</time>
        <ele>2624.0</ele>
      </trkpt>
      <trkpt lat="42.7066180855" lon="0.1202406641">
        <time>2022-03-01T09:59:03+00:00</time>
        <ele>2625.0</ele>
      </trkpt>
      <trkpt lat="42.7065687161" lon="0.1202132553">
        <time>2022-03-01T09:59:18+00:00</time>
        <ele>2628.0</ele>
      </trkpt>
      <trkpt lat="42.7065313328" lon="0.1201917138">
        <time>2022-03-01T09:59:30+00:00</time>
        <ele>2630.0</ele>
      </trkpt>
      <trkpt lat="42.7064722404" lon="0.120174028">
        <time>2022-03-01T09:59:43+00:00</time>
        <ele>2632.0</ele>
      </trkpt>
      <trkpt lat="42.7064281516" lon="0.1201899536">
        <time>2022-03-01T09:59:56+00:00</time>
        <ele>2631.0</ele>
      </trkpt>
      <trkpt lat="42.7064092923" lon="0.1202263311">
        <time>2022-03-01T10:00:20+00:00</time>
        <ele>2628.0</ele>
      </trkpt>
      <trkpt lat="42.7063670475" lon="0.1202029455">
        <time>2022-03-01T10:00:33+00:00</time>
        <ele>2630.0</ele>
      </trkpt>
      <trkpt lat="42.7063221205" lon="0.1201585215">
        <time>2022-03-01T10:00:49+00:00</time>
        <ele>2633.0</ele>
      </trkpt>
      <trkpt lat="42.7063052729" lon="0.1201504748">
        <time>2022-03-01T10:01:04+00:00</time>
        <ele>2634.0</ele>
      </trkpt>
      <trkpt lat="42.706289934" lon="0.1201405842">
        <time>2022-03-01T10:01:24+00:00</time>
        <ele>2634.0</ele>
      </trkpt>
      <trkpt lat="42.706277445" lon="0.1201416738">
        <time>2022-03-01T10:01:56+00:00</time>
        <ele>2634.0</ele>
      </trkpt>
      <trkpt lat="42.7062702365" lon="0.1201280113">
        <time>2022-03-01T10:02:17+00:00</time>
        <ele>2635.0</ele>
      </trkpt>
      <trkpt lat="42.7062543947" lon="0.1201278437">
        <time>2022-03-01T10:02:50+00:00</time>
        <ele>2635.0</ele>
      </trkpt>
      <trkpt lat="42.7063108888" lon="0.1201324537">
        <time>2022-03-01T10:03:18+00:00</time>
        <ele>2635.0</ele>
      </trkpt>
      <trkpt lat="42.7062846534" lon="0.1201543305">
        <time>2022-03-01T10:03:39+00:00</time>
        <ele>2634.0</ele>
      </trkpt>
      <trkpt lat="42.7062645368" lon="0.1200992614">
        <time>2022-03-01T10:03:51+00:00</time>
        <ele>2637.0</ele>
      </trkpt>
      <trkpt lat="42.7062523831" lon="0.1200861856">
        <time>2022-03-01T10:04:23+00:00</time>
        <ele>2638.0</ele>
      </trkpt>
      <trkpt lat="42.7062324341" lon="0.1200742833">
        <time>2022-03-01T10:04:54+00:00</time>
        <ele>2638.0</ele>
      </trkpt>
      <trkpt lat="42.7063054405" lon="0.1200446114">
        <time>2022-03-01T10:05:16+00:00</time>
        <ele>2641.0</ele>
      </trkpt>
      <trkpt lat="42.7062785346" lon="0.120047126">
        <time>2022-03-01T10:05:35+00:00</time>
        <ele>2641.0</ele>
      </trkpt>
      <trkpt lat="42.7062904369" lon="0.1200716011">
        <time>2022-03-01T10:05:50+00:00</time>
        <ele>2639.0</ele>
      </trkpt>
      <trkpt lat="42.7062933706" lon="0.1200873591">
        <time>2022-03-01T10:06:17+00:00</time>
        <ele>2638.0</ele>
      </trkpt>
      <trkpt lat="42.7062532213" lon="0.1200912986">
        <time>2022-03-01T10:06:34+00:00</time>
        <ele>2638.0</ele>
      </trkpt>
      <trkpt lat="42.7062203642" lon="0.1200312842">
        <time>2022-03-01T10:06:49+00:00</time>
        <ele>2641.0</ele>
      </trkpt>
      <trkpt lat="42.7062726673" lon="0.1199887879">
        <time>2022-03-01T10:07:00+00:00</time>
        <ele>2645.0</ele>
      </trkpt>
      <trkpt lat="42.7063411474" lon="0.1199214812">
        <time>2022-03-01T10:07:17+00:00</time>
        <ele>2650.0</ele>
      </trkpt>
      <trkpt lat="42.7064060234" lon="0.1198629756">
        <time>2022-03-01T10:07:31+00:00</time>
        <ele>2655.0</ele>
      </trkpt>
      <trkpt lat="42.7064601704" lon="0.1198096666">
        <time>2022-03-01T10:07:45+00:00</time>
        <ele>2659.0</ele>
      </trkpt>
      <trkpt lat="42.7065416425" lon="0.1197361574">
        <time>2022-03-01T10:08:05+00:00</time>
        <ele>2663.0</ele>
      </trkpt>
      <trkpt lat="42.706592856" lon="0.1196988579">
        <time>2022-03-01T10:08:17+00:00</time>
        <ele>2666.0</ele>
      </trkpt>
      <trkpt lat="42.706642393" lon="0.1196406875">
        <time>2022-03-01T10:08:33+00:00</time>
        <ele>2667.0</ele>
      </trkpt>
      <trkpt lat="42.7066771779" lon="0.1196188107">
        <time>2022-03-01T10:08:47+00:00</time>
        <ele>2668.0</ele>
      </trkpt>
      <trkpt lat="42.7066764235" lon="0.1196126919">
        <time>2022-03-01T10:09:14+00:00</time>
        <ele>2668.0</ele>
      </trkpt>
      <trkpt lat="42.7067604102" lon="0.1195994485">
        <time>2022-03-01T10:09:30+00:00</time>
        <ele>2668.0</ele>
      </trkpt>
      <trkpt lat="42.7068154793" lon="0.1196073275">
        <time>2022-03-01T10:09:45+00:00</time>
        <ele>2668.0</ele>
      </trkpt>
      <trkpt lat="42.7067961171" lon="0.1195773203">
        <time>2022-03-01T10:10:06+00:00</time>
        <ele>2669.0</ele>
      </trkpt>
      <trkpt lat="42.7067861427" lon="0.1195463911">
        <time>2022-03-01T10:10:22+00:00</time>
        <ele>2670.0</ele>
      </trkpt>
      <trkpt lat="42.7067558002" lon="0.1194643322">
        <time>2022-03-01T10:10:35+00:00</time>
        <ele>2673.0</ele>
      </trkpt>
      <trkpt lat="42.7067185845" lon="0.1193940081">
        <time>2022-03-01T10:10:51+00:00</time>
        <ele>2675.0</ele>
      </trkpt>
      <trkpt lat="42.7067173272" lon="0.1193344966">
        <time>2022-03-01T10:11:08+00:00</time>
        <ele>2678.0</ele>
      </trkpt>
      <trkpt lat="42.706738282" lon="0.1193237677">
        <time>2022-03-01T10:11:20+00:00</time>
        <ele>2678.0</ele>
      </trkpt>
      <trkpt lat="42.7068083547" lon="0.1192847081">
        <time>2022-03-01T10:11:34+00:00</time>
        <ele>2680.0</ele>
      </trkpt>
      <trkpt lat="42.7068816125" lon="0.1192400325">
        <time>2022-03-01T10:11:49+00:00</time>
        <ele>2682.0</ele>
      </trkpt>
      <trkpt lat="42.7069839556" lon="0.1192484144">
        <time>2022-03-01T10:12:06+00:00</time>
        <ele>2683.0</ele>
      </trkpt>
      <trkpt lat="42.7070611529" lon="0.1192092709">
        <time>2022-03-01T10:12:22+00:00</time>
        <ele>2685.0</ele>
      </trkpt>
      <trkpt lat="42.707109265" lon="0.1191756595">
        <time>2022-03-01T10:12:38+00:00</time>
        <ele>2689.0</ele>
      </trkpt>
      <trkpt lat="42.7071852889" lon="0.1191883162">
        <time>2022-03-01T10:13:02+00:00</time>
        <ele>2692.0</ele>
      </trkpt>
      <trkpt lat="42.7072822675" lon="0.1191946026">
        <time>2022-03-01T10:13:22+00:00</time>
        <ele>2697.0</ele>
      </trkpt>
      <trkpt lat="42.7073521726" lon="0.1192251965">
        <time>2022-03-01T10:13:38+00:00</time>
        <ele>2703.0</ele>
      </trkpt>
      <trkpt lat="42.7074630652" lon="0.1192229334">
        <time>2022-03-01T10:13:58+00:00</time>
        <ele>2716.0</ele>
      </trkpt>
      <trkpt lat="42.7075504046" lon="0.1191877294">
        <time>2022-03-01T10:14:13+00:00</time>
        <ele>2721.0</ele>
      </trkpt>
      <trkpt lat="42.7076208126" lon="0.1191400364">
        <time>2022-03-01T10:14:26+00:00</time>
        <ele>2725.0</ele>
      </trkpt>
      <trkpt lat="42.7076864429" lon="0.1190808602">
        <time>2022-03-01T10:14:40+00:00</time>
        <ele>2728.0</ele>
      </trkpt>
      <trkpt lat="42.7077729441" lon="0.119076753">
        <time>2022-03-01T10:14:58+00:00</time>
        <ele>2729.0</ele>
      </trkpt>
      <trkpt lat="42.7078820765" lon="0.1190250367">
        <time>2022-03-01T10:15:20+00:00</time>
        <ele>2733.0</ele>
      </trkpt>
      <trkpt lat="42.7078884467" lon="0.1189928502">
        <time>2022-03-01T10:15:38+00:00</time>
        <ele>2734.0</ele>
      </trkpt>
      <trkpt lat="42.707897583" lon="0.1189869829">
        <time>2022-03-01T10:15:54+00:00</time>
        <ele>2734.0</ele>
      </trkpt>
      <trkpt lat="42.7078793943" lon="0.1189791877">
        <time>2022-03-01T10:16:14+00:00</time>
        <ele>2734.0</ele>
      </trkpt>
      <trkpt lat="42.7078817412" lon="0.1189785171">
        <time>2022-03-01T10:16:33+00:00</time>
        <ele>2734.0</ele>
      </trkpt>
      <trkpt lat="42.707873024" lon="0.1189153176">
        <time>2022-03-01T10:16:49+00:00</time>
        <ele>2737.0</ele>
      </trkpt>
      <trkpt lat="42.7078421786" lon="0.1188124716">
        <time>2022-03-01T10:17:05+00:00</time>
        <ele>2739.0</ele>
      </trkpt>
      <trkpt lat="42.7078192122" lon="0.1187113859">
        <time>2022-03-01T10:17:19+00:00</time>
        <ele>2740.0</ele>
      </trkpt>
      <trkpt lat="42.7078201342" lon="0.1186014153">
        <time>2022-03-01T10:17:32+00:00</time>
        <ele>2742.0</ele>
      </trkpt>
      <trkpt lat="42.707809573" lon="0.1184790395">
        <time>2022-03-01T10:17:48+00:00</time>
        <ele>2744.0</ele>
      </trkpt>
      <trkpt lat="42.7078266721" lon="0.1184360404">
        <time>2022-03-01T10:18:06+00:00</time>
        <ele>2745.0</ele>
      </trkpt>
      <trkpt lat="42.7078250796" lon="0.1184414886">
        <time>2022-03-01T10:18:33+00:00</time>
        <ele>2745.0</ele>
      </trkpt>
      <trkpt lat="42.7078194637" lon="0.1184425782">
        <time>2022-03-01T10:19:02+00:00</time>
        <ele>2744.0</ele>
      </trkpt>
      <trkpt lat="42.7078287676" lon="0.1184259821">
        <time>2022-03-01T10:19:29+00:00</time>
        <ele>2745.0</ele>
      </trkpt>
      <trkpt lat="42.7078222297" lon="0.1184208691">
        <time>2022-03-01T10:19:50+00:00</time>
        <ele>2745.0</ele>
      </trkpt>
      <trkpt lat="42.7078145184" lon="0.118432017">
        <time>2022-03-01T10:20:10+00:00</time>
        <ele>2744.0</ele>
      </trkpt>
      <trkpt lat="42.7078172006" lon="0.1184313465">
        <time>2022-03-01T10:20:30+00:00</time>
        <ele>2744.0</ele>
      </trkpt>
      <trkpt lat="42.7078519855" lon="0.1183531433">
        <time>2022-03-01T10:20:47+00:00</time>
        <ele>2747.0</ele>
      </trkpt>
      <trkpt lat="42.7078901231" lon="0.118244933">
        <time>2022-03-01T10:21:03+00:00</time>
        <ele>2749.0</ele>
      </trkpt>
      <trkpt lat="42.7079130057" lon="0.1181682386">
        <time>2022-03-01T10:21:11+00:00</time>
        <ele>2750.0</ele>
      </trkpt>
      <trkpt lat="42.7079668175" lon="0.1180800609">
        <time>2022-03-01T10:21:27+00:00</time>
        <ele>2753.0</ele>
      </trkpt>
      <trkpt lat="42.7080671489" lon="0.1180083118">
        <time>2022-03-01T10:21:45+00:00</time>
        <ele>2757.0</ele>
      </trkpt>
      <trkpt lat="42.7081383951" lon="0.1179431006">
        <time>2022-03-01T10:21:59+00:00</time>
        <ele>2759.0</ele>
      </trkpt>
      <trkpt lat="42.7082341164" lon="0.1179016102">
        <time>2022-03-01T10:22:13+00:00</time>
        <ele>2761.0</ele>
      </trkpt>
      <trkpt lat="42.7082973998" lon="0.1178408414">
        <time>2022-03-01T10:22:26+00:00</time>
        <ele>2761.0</ele>
      </trkpt>
      <trkpt lat="42.7083976474" lon="0.1177343912">
        <time>2022-03-01T10:22:45+00:00</time>
        <ele>2762.0</ele>
      </trkpt>
      <trkpt lat="42.70846311" lon="0.1176972594">
        <time>2022-03-01T10:23:01+00:00</time>
        <ele>2762.0</ele>
      </trkpt>
      <trkpt lat="42.7084796224" lon="0.1176749635">
        <time>2022-03-01T10:23:18+00:00</time>
        <ele>2763.0</ele>
      </trkpt>
      <trkpt lat="42.7085760143" lon="0.1175810024">
        <time>2022-03-01T10:23:36+00:00</time>
        <ele>2764.0</ele>
      </trkpt>
      <trkpt lat="42.7086304966" lon="0.1175641548">
        <time>2022-03-01T10:23:43+00:00</time>
        <ele>2765.0</ele>
      </trkpt>
      <trkpt lat="42.7087250445" lon="0.11752191">
        <time>2022-03-01T10:23:57+00:00</time>
        <ele>2766.0</ele>
      </trkpt>
      <trkpt lat="42.7087965421" lon="0.1174639072">
        <time>2022-03-01T10:24:13+00:00</time>
        <ele>2768.0</ele>
      </trkpt>
      <trkpt lat="42.7088705543" lon="0.1173568703">
        <time>2022-03-01T10:24:30+00:00</time>
        <ele>2770.0</ele>
      </trkpt>
      <trkpt lat="42.7089371905" lon="0.1172780804">
        <time>2022-03-01T10:24:44+00:00</time>
        <ele>2773.0</ele>
      </trkpt>
      <trkpt lat="42.708993936" lon="0.1172246039">
        <time>2022-03-01T10:24:59+00:00</time>
        <ele>2775.0</ele>
      </trkpt>
      <trkpt lat="42.709074989" lon="0.1171878073">
        <time>2022-03-01T10:25:17+00:00</time>
        <ele>2777.0</ele>
      </trkpt>
      <trkpt lat="42.7091908269" lon="0.1171105262">
        <time>2022-03-01T10:25:41+00:00</time>
        <ele>2780.0</ele>
      </trkpt>
      <trkpt lat="42.7092909906" lon="0.1170433871">
        <time>2022-03-01T10:26:00+00:00</time>
        <ele>2782.0</ele>
      </trkpt>
      <trkpt lat="42.7093639132" lon="0.116996197">
        <time>2022-03-01T10:26:17+00:00</time>
        <ele>2783.0</ele>
      </trkpt>
      <trkpt lat="42.7094473131" lon="0.116945738">
        <time>2022-03-01T10:26:35+00:00</time>
        <ele>2785.0</ele>
      </trkpt>
      <trkpt lat="42.7095129434" lon="0.1168844663">
        <time>2022-03-01T10:26:51+00:00</time>
        <ele>2787.0</ele>
      </trkpt>
      <trkpt lat="42.7095582895" lon="0.1168065984">
        <time>2022-03-01T10:27:06+00:00</time>
        <ele>2789.0</ele>
      </trkpt>
      <trkpt lat="42.7095749695" lon="0.1167101227">
        <time>2022-03-01T10:27:21+00:00</time>
        <ele>2792.0</ele>
      </trkpt>
      <trkpt lat="42.7095684316" lon="0.1166725717">
        <time>2022-03-01T10:27:35+00:00</time>
        <ele>2792.0</ele>
      </trkpt>
      <trkpt lat="42.7095876262" lon="0.1166372839">
        <time>2022-03-01T10:27:59+00:00</time>
        <ele>2794.0</ele>
      </trkpt>
      <trkpt lat="42.7096124366" lon="0.1165470108">
        <time>2022-03-01T10:28:12+00:00</time>
        <ele>2796.0</ele>
      </trkpt>
      <trkpt lat="42.7096399292" lon="0.1164614316">
        <time>2022-03-01T10:28:28+00:00</time>
        <ele>2799.0</ele>
      </trkpt>
      <trkpt lat="42.7096635662" lon="0.1163733378">
        <time>2022-03-01T10:28:43+00:00</time>
        <ele>2800.0</ele>
      </trkpt>
      <trkpt lat="42.7096825931" lon="0.1162887644">
        <time>2022-03-01T10:28:57+00:00</time>
        <ele>2802.0</ele>
      </trkpt>
      <trkpt lat="42.7097166236" lon="0.1163029298">
        <time>2022-03-01T10:29:13+00:00</time>
        <ele>2803.0</ele>
      </trkpt>
      <trkpt lat="42.7097400092" lon="0.1163138263">
        <time>2022-03-01T10:29:43+00:00</time>
        <ele>2804.0</ele>
      </trkpt>
      <trkpt lat="42.7097291965" lon="0.1163098868">
        <time>2022-03-01T10:30:07+00:00</time>
        <ele>2803.0</ele>
      </trkpt>
      <trkpt lat="42.7097295318" lon="0.116318604">
        <time>2022-03-01T10:30:29+00:00</time>
        <ele>2803.0</ele>
      </trkpt>
      <trkpt lat="42.7097644005" lon="0.1163619384">
        <time>2022-03-01T10:30:44+00:00</time>
        <ele>2804.0</ele>
      </trkpt>
      <trkpt lat="42.7097997721" lon="0.1163878385">
        <time>2022-03-01T10:30:58+00:00</time>
        <ele>2805.0</ele>
      </trkpt>
      <trkpt lat="42.7097756322" lon="0.1163367927">
        <time>2022-03-01T10:31:14+00:00</time>
        <ele>2805.0</ele>
      </trkpt>
      <trkpt lat="42.7097789012" lon="0.1162455138">
        <time>2022-03-01T10:31:28+00:00</time>
        <ele>2807.0</ele>
      </trkpt>
      <trkpt lat="42.7098030411" lon="0.1162134949">
        <time>2022-03-01T10:31:43+00:00</time>
        <ele>2808.0</ele>
      </trkpt>
      <trkpt lat="42.7098462079" lon="0.1162681449">
        <time>2022-03-01T10:32:01+00:00</time>
        <ele>2809.0</ele>
      </trkpt>
      <trkpt lat="42.7099025343" lon="0.1162644569">
        <time>2022-03-01T10:32:17+00:00</time>
        <ele>2811.0</ele>
      </trkpt>
      <trkpt lat="42.7099218965" lon="0.1162702404">
        <time>2022-03-01T10:32:36+00:00</time>
        <ele>2811.0</ele>
      </trkpt>
      <trkpt lat="42.7099884488" lon="0.1162358746">
        <time>2022-03-01T10:32:51+00:00</time>
        <ele>2814.0</ele>
      </trkpt>
      <trkpt lat="42.7099845093" lon="0.1162549015">
        <time>2022-03-01T10:33:11+00:00</time>
        <ele>2813.0</ele>
      </trkpt>
      <trkpt lat="42.7099316195" lon="0.1161600184">
        <time>2022-03-01T10:33:27+00:00</time>
        <ele>2815.0</ele>
      </trkpt>
      <trkpt lat="42.7099365648" lon="0.1160820667">
        <time>2022-03-01T10:33:44+00:00</time>
        <ele>2817.0</ele>
      </trkpt>
      <trkpt lat="42.7099569328" lon="0.1160780434">
        <time>2022-03-01T10:33:59+00:00</time>
        <ele>2818.0</ele>
      </trkpt>
      <trkpt lat="42.7100177016" lon="0.1160424203">
        <time>2022-03-01T10:34:15+00:00</time>
        <ele>2822.0</ele>
      </trkpt>
      <trkpt lat="42.7100540791" lon="0.116038816">
        <time>2022-03-01T10:34:30+00:00</time>
        <ele>2823.0</ele>
      </trkpt>
      <trkpt lat="42.7100395784" lon="0.1160677336">
        <time>2022-03-01T10:34:44+00:00</time>
        <ele>2822.0</ele>
      </trkpt>
      <trkpt lat="42.7100337949" lon="0.1160010975">
        <time>2022-03-01T10:34:59+00:00</time>
        <ele>2824.0</ele>
      </trkpt>
      <trkpt lat="42.7100269217" lon="0.1159081422">
        <time>2022-03-01T10:35:13+00:00</time>
        <ele>2826.0</ele>
      </trkpt>
      <trkpt lat="42.7100441046" lon="0.1157962438">
        <time>2022-03-01T10:35:26+00:00</time>
        <ele>2830.0</ele>
      </trkpt>
      <trkpt lat="42.7100645564" lon="0.1156911347">
        <time>2022-03-01T10:35:41+00:00</time>
        <ele>2833.0</ele>
      </trkpt>
      <trkpt lat="42.7100880258" lon="0.1157204714">
        <time>2022-03-01T10:36:00+00:00</time>
        <ele>2834.0</ele>
      </trkpt>
      <trkpt lat="42.7101275884" lon="0.1157348044">
        <time>2022-03-01T10:36:20+00:00</time>
        <ele>2835.0</ele>
      </trkpt>
      <trkpt lat="42.7101792209" lon="0.115757687">
        <time>2022-03-01T10:36:32+00:00</time>
        <ele>2837.0</ele>
      </trkpt>
      <trkpt lat="42.7102394868" lon="0.1157550886">
        <time>2022-03-01T10:36:47+00:00</time>
        <ele>2839.0</ele>
      </trkpt>
      <trkpt lat="42.7102461085" lon="0.1157710981">
        <time>2022-03-01T10:37:04+00:00</time>
        <ele>2839.0</ele>
      </trkpt>
      <trkpt lat="42.7102377266" lon="0.1156689227">
        <time>2022-03-01T10:37:18+00:00</time>
        <ele>2842.0</ele>
      </trkpt>
      <trkpt lat="42.7102317754" lon="0.1155431941">
        <time>2022-03-01T10:37:35+00:00</time>
        <ele>2845.0</ele>
      </trkpt>
      <trkpt lat="42.7102432586" lon="0.115433475">
        <time>2022-03-01T10:37:50+00:00</time>
        <ele>2848.0</ele>
      </trkpt>
      <trkpt lat="42.7102436777" lon="0.1154286973">
        <time>2022-03-01T10:38:08+00:00</time>
        <ele>2848.0</ele>
      </trkpt>
      <trkpt lat="42.7102471981" lon="0.1154420245">
        <time>2022-03-01T10:38:21+00:00</time>
        <ele>2848.0</ele>
      </trkpt>
      <trkpt lat="42.7103041951" lon="0.1154694334">
        <time>2022-03-01T10:38:37+00:00</time>
        <ele>2850.0</ele>
      </trkpt>
      <trkpt lat="42.7103658859" lon="0.115486281">
        <time>2022-03-01T10:38:50+00:00</time>
        <ele>2853.0</ele>
      </trkpt>
      <trkpt lat="42.7104436699" lon="0.1154922321">
        <time>2022-03-01T10:39:08+00:00</time>
        <ele>2857.0</ele>
      </trkpt>
      <trkpt lat="42.7104406524" lon="0.115514528">
        <time>2022-03-01T10:39:27+00:00</time>
        <ele>2856.0</ele>
      </trkpt>
      <trkpt lat="42.7104224637" lon="0.1153989416">
        <time>2022-03-01T10:39:42+00:00</time>
        <ele>2858.0</ele>
      </trkpt>
      <trkpt lat="42.7104389761" lon="0.1152725425">
        <time>2022-03-01T10:39:59+00:00</time>
        <ele>2862.0</ele>
      </trkpt>
      <trkpt lat="42.710467726" lon="0.1151944231">
        <time>2022-03-01T10:40:14+00:00</time>
        <ele>2865.0</ele>
      </trkpt>
      <trkpt lat="42.7105010021" lon="0.1150676887">
        <time>2022-03-01T10:40:30+00:00</time>
        <ele>2869.0</ele>
      </trkpt>
      <trkpt lat="42.710539978" lon="0.1149546169">
        <time>2022-03-01T10:40:49+00:00</time>
        <ele>2872.0</ele>
      </trkpt>
      <trkpt lat="42.7105724998" lon="0.1148560457">
        <time>2022-03-01T10:41:05+00:00</time>
        <ele>2875.0</ele>
      </trkpt>
      <trkpt lat="42.7106004953" lon="0.1147700474">
        <time>2022-03-01T10:41:16+00:00</time>
        <ele>2877.0</ele>
      </trkpt>
      <trkpt lat="42.7106363699" lon="0.1146994717">
        <time>2022-03-01T10:41:32+00:00</time>
        <ele>2879.0</ele>
      </trkpt>
      <trkpt lat="42.7106688078" lon="0.1146088634">
        <time>2022-03-01T10:41:44+00:00</time>
        <ele>2881.0</ele>
      </trkpt>
      <trkpt lat="42.7107147407" lon="0.1145149022">
        <time>2022-03-01T10:41:59+00:00</time>
        <ele>2885.0</ele>
      </trkpt>
      <trkpt lat="42.7107571531" lon="0.1144278143">
        <time>2022-03-01T10:42:16+00:00</time>
        <ele>2887.0</ele>
      </trkpt>
      <trkpt lat="42.7107965481" lon="0.1143413968">
        <time>2022-03-01T10:42:34+00:00</time>
        <ele>2890.0</ele>
      </trkpt>
      <trkpt lat="42.7108286507" lon="0.1142586675">
        <time>2022-03-01T10:42:49+00:00</time>
        <ele>2892.0</ele>
      </trkpt>
      <trkpt lat="42.7108382061" lon="0.1141493674">
        <time>2022-03-01T10:43:03+00:00</time>
        <ele>2893.0</ele>
      </trkpt>
      <trkpt lat="42.7108363621" lon="0.1140195318">
        <time>2022-03-01T10:43:19+00:00</time>
        <ele>2894.0</ele>
      </trkpt>
      <trkpt lat="42.7108242922" lon="0.1139584277">
        <time>2022-03-01T10:43:35+00:00</time>
        <ele>2893.0</ele>
      </trkpt>
      <trkpt lat="42.7108212747" lon="0.1139053702">
        <time>2022-03-01T10:43:48+00:00</time>
        <ele>2893.0</ele>
      </trkpt>
      <trkpt lat="42.7108319197" lon="0.1138870139">
        <time>2022-03-01T10:44:08+00:00</time>
        <ele>2894.0</ele>
      </trkpt>
      <trkpt lat="42.7108320873" lon="0.1139194518">
        <time>2022-03-01T10:44:28+00:00</time>
        <ele>2894.0</ele>
      </trkpt>
      <trkpt lat="42.7108690515" lon="0.1140160952">
        <time>2022-03-01T10:44:42+00:00</time>
        <ele>2894.0</ele>
      </trkpt>
      <trkpt lat="42.7108880784" lon="0.1141239703">
        <time>2022-03-01T10:44:56+00:00</time>
        <ele>2894.0</ele>
      </trkpt>
      <trkpt lat="42.710900316" lon="0.1142325159">
        <time>2022-03-01T10:45:11+00:00</time>
        <ele>2894.0</ele>
      </trkpt>
      <trkpt lat="42.7109106258" lon="0.1143131498">
        <time>2022-03-01T10:45:23+00:00</time>
        <ele>2894.0</ele>
      </trkpt>
      <trkpt lat="42.7109085303" lon="0.1143206935">
        <time>2022-03-01T10:45:37+00:00</time>
        <ele>2894.0</ele>
      </trkpt>
      <trkpt lat="42.7108972147" lon="0.1143124793">
        <time>2022-03-01T10:45:39+00:00</time>
        <ele>2894.0</ele>
      </trkpt>
      <trkpt lat="42.7108941972" lon="0.1143410616">
        <time>2022-03-01T10:45:50+00:00</time>
        <ele>2893.0</ele>
      </trkpt>
      <trkpt lat="42.7108744998" lon="0.1143495273">
        <time>2022-03-01T10:46:24+00:00</time>
        <ele>2893.0</ele>
      </trkpt>
      <trkpt lat="42.7108709794" lon="0.1143396366">
        <time>2022-03-01T10:47:10+00:00</time>
        <ele>2893.0</ele>
      </trkpt>
      <trkpt lat="42.7108667046" lon="0.1143597532">
        <time>2022-03-01T10:47:54+00:00</time>
        <ele>2893.0</ele>
      </trkpt>
      <trkpt lat="42.7108772658" lon="0.1143578254">
        <time>2022-03-01T10:48:31+00:00</time>
        <ele>2893.0</ele>
      </trkpt>
      <trkpt lat="42.7108699735" lon="0.1143580768">
        <time>2022-03-01T10:49:05+00:00</time>
        <ele>2893.0</ele>
      </trkpt>
      <trkpt lat="42.7108746674" lon="0.1143313386">
        <time>2022-03-01T10:49:41+00:00</time>
        <ele>2893.0</ele>
      </trkpt>
      <trkpt lat="42.7109014057" lon="0.1143488567">
        <time>2022-03-01T10:50:18+00:00</time>
        <ele>2893.0</ele>
      </trkpt>
      <trkpt lat="42.7109033335" lon="0.1143450849">
        <time>2022-03-01T10:50:58+00:00</time>
        <ele>2893.0</ele>
      </trkpt>
      <trkpt lat="42.7109095361" lon="0.1143706497">
        <time>2022-03-01T10:51:37+00:00</time>
        <ele>2893.0</ele>
      </trkpt>
      <trkpt lat="42.7109464165" lon="0.114370482">
        <time>2022-03-01T10:52:17+00:00</time>
        <ele>2894.0</ele>
      </trkpt>
      <trkpt lat="42.7109289821" lon="0.1143496949">
        <time>2022-03-01T10:52:56+00:00</time>
        <ele>2894.0</ele>
      </trkpt>
      <trkpt lat="42.7109009866" lon="0.114351036">
        <time>2022-03-01T10:53:38+00:00</time>
        <ele>2893.0</ele>
      </trkpt>
      <trkpt lat="42.7108881623" lon="0.1143593341">
        <time>2022-03-01T10:54:20+00:00</time>
        <ele>2893.0</ele>
      </trkpt>
      <trkpt lat="42.7108917665" lon="0.1143527962">
        <time>2022-03-01T10:54:53+00:00</time>
        <ele>2893.0</ele>
      </trkpt>
      <trkpt lat="42.7109028306" lon="0.114322789">
        <time>2022-03-01T10:55:15+00:00</time>
        <ele>2894.0</ele>
      </trkpt>
      <trkpt lat="42.7109011542" lon="0.1143335178">
        <time>2022-03-01T10:55:48+00:00</time>
        <ele>2893.0</ele>
      </trkpt>
      <trkpt lat="42.7109153196" lon="0.1143818814">
        <time>2022-03-01T10:56:34+00:00</time>
        <ele>2893.0</ele>
      </trkpt>
      <trkpt lat="42.7109024953" lon="0.1143506169">
        <time>2022-03-01T10:57:16+00:00</time>
        <ele>2893.0</ele>
      </trkpt>
      <trkpt lat="42.7108953707" lon="0.1143141557">
        <time>2022-03-01T10:57:41+00:00</time>
        <ele>2893.0</ele>
      </trkpt>
      <trkpt lat="42.7108978853" lon="0.1143257227">
        <time>2022-03-01T10:58:14+00:00</time>
        <ele>2893.0</ele>
      </trkpt>
      <trkpt lat="42.7108803671" lon="0.1143307518">
        <time>2022-03-01T10:58:50+00:00</time>
        <ele>2893.0</ele>
      </trkpt>
      <trkpt lat="42.7108744159" lon="0.1143371221">
        <time>2022-03-01T10:59:33+00:00</time>
        <ele>2893.0</ele>
      </trkpt>
      <trkpt lat="42.7108999807" lon="0.114313988">
        <time>2022-03-01T11:00:05+00:00</time>
        <ele>2894.0</ele>
      </trkpt>
      <trkpt lat="42.7108983882" lon="0.1143425703">
        <time>2022-03-01T11:00:43+00:00</time>
        <ele>2893.0</ele>
      </trkpt>
      <trkpt lat="42.7109039202" lon="0.114341313">
        <time>2022-03-01T11:01:24+00:00</time>
        <ele>2893.0</ele>
      </trkpt>
      <trkpt lat="42.7109003998" lon="0.1143180951">
        <time>2022-03-01T11:01:28+00:00</time>
        <ele>2894.0</ele>
      </trkpt>
      <trkpt lat="42.7109092008" lon="0.1142900996">
        <time>2022-03-01T11:01:51+00:00</time>
        <ele>2894.0</ele>
      </trkpt>
      <trkpt lat="42.7109074406" lon="0.114284819">
        <time>2022-03-01T11:02:15+00:00</time>
        <ele>2894.0</ele>
      </trkpt>
      <trkpt lat="42.7108874917" lon="0.1142683905">
        <time>2022-03-01T11:02:43+00:00</time>
        <ele>2893.0</ele>
      </trkpt>
      <trkpt lat="42.710874835" lon="0.1142455917">
        <time>2022-03-01T11:03:12+00:00</time>
        <ele>2893.0</ele>
      </trkpt>
      <trkpt lat="42.7109243721" lon="0.1143004093">
        <time>2022-03-01T11:03:35+00:00</time>
        <ele>2894.0</ele>
      </trkpt>
      <trkpt lat="42.7109278087" lon="0.1143287402">
        <time>2022-03-01T11:03:56+00:00</time>
        <ele>2894.0</ele>
      </trkpt>
      <trkpt lat="42.7109287307" lon="0.1143189333">
        <time>2022-03-01T11:04:14+00:00</time>
        <ele>2894.0</ele>
      </trkpt>
      <trkpt lat="42.710934598" lon="0.1143154129">
        <time>2022-03-01T11:04:37+00:00</time>
        <ele>2894.0</ele>
      </trkpt>
      <trkpt lat="42.7109258808" lon="0.1143485215">
        <time>2022-03-01T11:04:59+00:00</time>
        <ele>2894.0</ele>
      </trkpt>
      <trkpt lat="42.7108971309" lon="0.1144647785">
        <time>2022-03-01T11:05:03+00:00</time>
        <ele>2892.0</ele>
      </trkpt>
      <trkpt lat="42.7108877432" lon="0.1145723183">
        <time>2022-03-01T11:05:06+00:00</time>
        <ele>2891.0</ele>
      </trkpt>
      <trkpt lat="42.7109131403" lon="0.1148287207">
        <time>2022-03-01T11:05:14+00:00</time>
        <ele>2887.0</ele>
      </trkpt>
      <trkpt lat="42.7108585741" lon="0.114926286">
        <time>2022-03-01T11:05:17+00:00</time>
        <ele>2884.0</ele>
      </trkpt>
      <trkpt lat="42.710838709" lon="0.1149388589">
        <time>2022-03-01T11:05:18+00:00</time>
        <ele>2884.0</ele>
      </trkpt>
      <trkpt lat="42.7108265553" lon="0.1149365958">
        <time>2022-03-01T11:05:19+00:00</time>
        <ele>2884.0</ele>
      </trkpt>
      <trkpt lat="42.7108108811" lon="0.1149222627">
        <time>2022-03-01T11:05:21+00:00</time>
        <ele>2883.0</ele>
      </trkpt>
      <trkpt lat="42.7107833885" lon="0.114874905">
        <time>2022-03-01T11:05:34+00:00</time>
        <ele>2883.0</ele>
      </trkpt>
      <trkpt lat="42.7106867451" lon="0.1147481706">
        <time>2022-03-01T11:05:40+00:00</time>
        <ele>2881.0</ele>
      </trkpt>
      <trkpt lat="42.710632598" lon="0.1147079375">
        <time>2022-03-01T11:05:44+00:00</time>
        <ele>2879.0</ele>
      </trkpt>
      <trkpt lat="42.7106187679" lon="0.114817908">
        <time>2022-03-01T11:05:47+00:00</time>
        <ele>2878.0</ele>
      </trkpt>
      <trkpt lat="42.7106288262" lon="0.1149452291">
        <time>2022-03-01T11:05:51+00:00</time>
        <ele>2876.0</ele>
      </trkpt>
      <trkpt lat="42.7105583344" lon="0.114976326">
        <time>2022-03-01T11:05:54+00:00</time>
        <ele>2873.0</ele>
      </trkpt>
      <trkpt lat="42.7105308417" lon="0.1149437204">
        <time>2022-03-01T11:05:55+00:00</time>
        <ele>2872.0</ele>
      </trkpt>
      <trkpt lat="42.7104917821" lon="0.1148732286">
        <time>2022-03-01T11:05:57+00:00</time>
        <ele>2871.0</ele>
      </trkpt>
      <trkpt lat="42.7104619425" lon="0.1148226857">
        <time>2022-03-01T11:05:59+00:00</time>
        <ele>2870.0</ele>
      </trkpt>
      <trkpt lat="42.7104089689" lon="0.1148522738">
        <time>2022-03-01T11:06:02+00:00</time>
        <ele>2867.0</ele>
      </trkpt>
      <trkpt lat="42.7103940491" lon="0.1149477437">
        <time>2022-03-01T11:06:04+00:00</time>
        <ele>2865.0</ele>
      </trkpt>
      <trkpt lat="42.7103089727" lon="0.1149468217">
        <time>2022-03-01T11:06:07+00:00</time>
        <ele>2860.0</ele>
      </trkpt>
      <trkpt lat="42.7102511376" lon="0.1149432175">
        <time>2022-03-01T11:06:09+00:00</time>
        <ele>2857.0</ele>
      </trkpt>
      <trkpt lat="42.710232446" lon="0.1150480751">
        <time>2022-03-01T11:06:11+00:00</time>
        <ele>2854.0</ele>
      </trkpt>
      <trkpt lat="42.7101945598" lon="0.1151220035">
        <time>2022-03-01T11:06:13+00:00</time>
        <ele>2851.0</ele>
      </trkpt>
      <trkpt lat="42.7101293486" lon="0.1151432097">
        <time>2022-03-01T11:06:15+00:00</time>
        <ele>2847.0</ele>
      </trkpt>
      <trkpt lat="42.7100519836" lon="0.1152723748">
        <time>2022-03-01T11:06:19+00:00</time>
        <ele>2840.0</ele>
      </trkpt>
      <trkpt lat="42.7100224793" lon="0.11526349">
        <time>2022-03-01T11:06:20+00:00</time>
        <ele>2838.0</ele>
      </trkpt>
      <trkpt lat="42.7099877782" lon="0.1152641606">
        <time>2022-03-01T11:06:21+00:00</time>
        <ele>2836.0</ele>
      </trkpt>
      <trkpt lat="42.7099680807" lon="0.1153361611">
        <time>2022-03-01T11:06:23+00:00</time>
        <ele>2833.0</ele>
      </trkpt>
      <trkpt lat="42.7099379897" lon="0.1154083293">
        <time>2022-03-01T11:06:26+00:00</time>
        <ele>2830.0</ele>
      </trkpt>
      <trkpt lat="42.7099407557" lon="0.1153813396">
        <time>2022-03-01T11:06:38+00:00</time>
        <ele>2831.0</ele>
      </trkpt>
      <trkpt lat="42.7099317033" lon="0.115540009">
        <time>2022-03-01T11:06:43+00:00</time>
        <ele>2828.0</ele>
      </trkpt>
      <trkpt lat="42.7099461202" lon="0.1157421805">
        <time>2022-03-01T11:06:47+00:00</time>
        <ele>2825.0</ele>
      </trkpt>
      <trkpt lat="42.7099395823" lon="0.1159270853">
        <time>2022-03-01T11:06:52+00:00</time>
        <ele>2821.0</ele>
      </trkpt>
      <trkpt lat="42.7098788135" lon="0.1159635466">
        <time>2022-03-01T11:06:55+00:00</time>
        <ele>2817.0</ele>
      </trkpt>
      <trkpt lat="42.7098548412" lon="0.1159563381">
        <time>2022-03-01T11:06:56+00:00</time>
        <ele>2816.0</ele>
      </trkpt>
      <trkpt lat="42.7098228224" lon="0.1159563381">
        <time>2022-03-01T11:06:57+00:00</time>
        <ele>2814.0</ele>
      </trkpt>
      <trkpt lat="42.7097623888" lon="0.1160401572">
        <time>2022-03-01T11:06:59+00:00</time>
        <ele>2809.0</ele>
      </trkpt>
      <trkpt lat="42.7097333875" lon="0.1161817275">
        <time>2022-03-01T11:07:02+00:00</time>
        <ele>2806.0</ele>
      </trkpt>
      <trkpt lat="42.7096204832" lon="0.116263032">
        <time>2022-03-01T11:07:05+00:00</time>
        <ele>2799.0</ele>
      </trkpt>
      <trkpt lat="42.7095472254" lon="0.1163360383">
        <time>2022-03-01T11:07:07+00:00</time>
        <ele>2795.0</ele>
      </trkpt>
      <trkpt lat="42.7094243467" lon="0.1164286584">
        <time>2022-03-01T11:07:10+00:00</time>
        <ele>2789.0</ele>
      </trkpt>
      <trkpt lat="42.7093525138" lon="0.1165770181">
        <time>2022-03-01T11:07:13+00:00</time>
        <ele>2786.0</ele>
      </trkpt>
      <trkpt lat="42.7093158849" lon="0.1165671274">
        <time>2022-03-01T11:07:14+00:00</time>
        <ele>2785.0</ele>
      </trkpt>
      <trkpt lat="42.7091723029" lon="0.1166356076">
        <time>2022-03-01T11:07:18+00:00</time>
        <ele>2781.0</ele>
      </trkpt>
      <trkpt lat="42.70915973" lon="0.1167105418">
        <time>2022-03-01T11:07:19+00:00</time>
        <ele>2781.0</ele>
      </trkpt>
      <trkpt lat="42.7091539465" lon="0.1167990547">
        <time>2022-03-01T11:07:22+00:00</time>
        <ele>2780.0</ele>
      </trkpt>
      <trkpt lat="42.7091660164" lon="0.1167856436">
        <time>2022-03-01T11:07:42+00:00</time>
        <ele>2781.0</ele>
      </trkpt>
      <trkpt lat="42.7091581374" lon="0.1167977136">
        <time>2022-03-01T11:07:47+00:00</time>
        <ele>2780.0</ele>
      </trkpt>
      <trkpt lat="42.7090789285" lon="0.1169115398">
        <time>2022-03-01T11:07:51+00:00</time>
        <ele>2779.0</ele>
      </trkpt>
      <trkpt lat="42.7090248652" lon="0.1170030702">
        <time>2022-03-01T11:07:53+00:00</time>
        <ele>2777.0</ele>
      </trkpt>
      <trkpt lat="42.7088951133" lon="0.1170142181">
        <time>2022-03-01T11:07:56+00:00</time>
        <ele>2773.0</ele>
      </trkpt>
      <trkpt lat="42.708771145" lon="0.1170863025">
        <time>2022-03-01T11:08:00+00:00</time>
        <ele>2770.0</ele>
      </trkpt>
      <trkpt lat="42.7087306604" lon="0.1172810979">
        <time>2022-03-01T11:08:04+00:00</time>
        <ele>2768.0</ele>
      </trkpt>
      <trkpt lat="42.7086285688" lon="0.1172905695">
        <time>2022-03-01T11:08:07+00:00</time>
        <ele>2765.0</ele>
      </trkpt>
      <trkpt lat="42.708542319" lon="0.117302807">
        <time>2022-03-01T11:08:09+00:00</time>
        <ele>2763.0</ele>
      </trkpt>
      <trkpt lat="42.7084122319" lon="0.1174247637">
        <time>2022-03-01T11:08:12+00:00</time>
        <ele>2760.0</ele>
      </trkpt>
      <trkpt lat="42.7083064523" lon="0.1174259372">
        <time>2022-03-01T11:08:14+00:00</time>
        <ele>2758.0</ele>
      </trkpt>
      <trkpt lat="42.708167145" lon="0.117469104">
        <time>2022-03-01T11:08:17+00:00</time>
        <ele>2754.0</ele>
      </trkpt>
      <trkpt lat="42.7080678195" lon="0.1175760571">
        <time>2022-03-01T11:08:20+00:00</time>
        <ele>2752.0</ele>
      </trkpt>
      <trkpt lat="42.7079327032" lon="0.1177413482">
        <time>2022-03-01T11:08:24+00:00</time>
        <ele>2749.0</ele>
      </trkpt>
      <trkpt lat="42.7078043763" lon="0.1179780532">
        <time>2022-03-01T11:08:30+00:00</time>
        <ele>2745.0</ele>
      </trkpt>
      <trkpt lat="42.7077545039" lon="0.1181239821">
        <time>2022-03-01T11:08:33+00:00</time>
        <ele>2743.0</ele>
      </trkpt>
      <trkpt lat="42.7076502331" lon="0.1181716751">
        <time>2022-03-01T11:08:36+00:00</time>
        <ele>2738.0</ele>
      </trkpt>
      <trkpt lat="42.7075473033" lon="0.1181943063">
        <time>2022-03-01T11:08:39+00:00</time>
        <ele>2734.0</ele>
      </trkpt>
      <trkpt lat="42.7075104229" lon="0.1181908697">
        <time>2022-03-01T11:08:40+00:00</time>
        <ele>2732.0</ele>
      </trkpt>
      <trkpt lat="42.7074250951" lon="0.1181725133">
        <time>2022-03-01T11:08:42+00:00</time>
        <ele>2727.0</ele>
      </trkpt>
      <trkpt lat="42.7073364146" lon="0.1182631217">
        <time>2022-03-01T11:08:44+00:00</time>
        <ele>2724.0</ele>
      </trkpt>
      <trkpt lat="42.7072175592" lon="0.1184253953">
        <time>2022-03-01T11:08:47+00:00</time>
        <ele>2719.0</ele>
      </trkpt>
      <trkpt lat="42.7071853727" lon="0.118482979">
        <time>2022-03-01T11:08:48+00:00</time>
        <ele>2718.0</ele>
      </trkpt>
      <trkpt lat="42.7071639989" lon="0.1186826359">
        <time>2022-03-01T11:08:52+00:00</time>
        <ele>2715.0</ele>
      </trkpt>
      <trkpt lat="42.7071469836" lon="0.1188185066">
        <time>2022-03-01T11:08:55+00:00</time>
        <ele>2710.0</ele>
      </trkpt>
      <trkpt lat="42.7071420383" lon="0.118960496">
        <time>2022-03-01T11:08:58+00:00</time>
        <ele>2703.0</ele>
      </trkpt>
      <trkpt lat="42.7070275415" lon="0.1190291438">
        <time>2022-03-01T11:09:05+00:00</time>
        <ele>2694.0</ele>
      </trkpt>
      <trkpt lat="42.7070141304" lon="0.1190357655">
        <time>2022-03-01T11:09:29+00:00</time>
        <ele>2694.0</ele>
      </trkpt>
      <trkpt lat="42.7070103586" lon="0.1190418005">
        <time>2022-03-01T11:09:54+00:00</time>
        <ele>2693.0</ele>
      </trkpt>
      <trkpt lat="42.707083784" lon="0.1191961113">
        <time>2022-03-01T11:10:01+00:00</time>
        <ele>2686.0</ele>
      </trkpt>
      <trkpt lat="42.7069887333" lon="0.1192675252">
        <time>2022-03-01T11:10:05+00:00</time>
        <ele>2682.0</ele>
      </trkpt>
      <trkpt lat="42.7069148049" lon="0.1192669384">
        <time>2022-03-01T11:10:08+00:00</time>
        <ele>2681.0</ele>
      </trkpt>
      <trkpt lat="42.7069183253" lon="0.1193655096">
        <time>2022-03-01T11:10:12+00:00</time>
        <ele>2676.0</ele>
      </trkpt>
      <trkpt lat="42.7068753261" lon="0.1194589678">
        <time>2022-03-01T11:10:15+00:00</time>
        <ele>2672.0</ele>
      </trkpt>
      <trkpt lat="42.7068149764" lon="0.1194673497">
        <time>2022-03-01T11:10:24+00:00</time>
        <ele>2672.0</ele>
      </trkpt>
      <trkpt lat="42.7068366017" lon="0.119433403">
        <time>2022-03-01T11:10:51+00:00</time>
        <ele>2673.0</ele>
      </trkpt>
      <trkpt lat="42.7068354283" lon="0.1194464788">
        <time>2022-03-01T11:10:56+00:00</time>
        <ele>2673.0</ele>
      </trkpt>
      <trkpt lat="42.7069083508" lon="0.119584864">
        <time>2022-03-01T11:11:02+00:00</time>
        <ele>2668.0</ele>
      </trkpt>
      <trkpt lat="42.7069560438" lon="0.1195774041">
        <time>2022-03-01T11:11:16+00:00</time>
        <ele>2669.0</ele>
      </trkpt>
      <trkpt lat="42.7070408687" lon="0.1196110994">
        <time>2022-03-01T11:11:36+00:00</time>
        <ele>2668.0</ele>
      </trkpt>
      <trkpt lat="42.7071370091" lon="0.1196729578">
        <time>2022-03-01T11:11:39+00:00</time>
        <ele>2666.0</ele>
      </trkpt>
      <trkpt lat="42.7072082553" lon="0.1197119337">
        <time>2022-03-01T11:11:42+00:00</time>
        <ele>2664.0</ele>
      </trkpt>
      <trkpt lat="42.7073715348" lon="0.1197778992">
        <time>2022-03-01T11:11:49+00:00</time>
        <ele>2669.0</ele>
      </trkpt>
      <trkpt lat="42.7074959222" lon="0.1199643966">
        <time>2022-03-01T11:11:55+00:00</time>
        <ele>2662.0</ele>
      </trkpt>
      <trkpt lat="42.7074656636" lon="0.1200209744">
        <time>2022-03-01T11:11:57+00:00</time>
        <ele>2655.0</ele>
      </trkpt>
      <trkpt lat="42.7074511629" lon="0.1200516522">
        <time>2022-03-01T11:11:58+00:00</time>
        <ele>2652.0</ele>
      </trkpt>
      <trkpt lat="42.7074263524" lon="0.1201394107">
        <time>2022-03-01T11:12:01+00:00</time>
        <ele>2645.0</ele>
      </trkpt>
      <trkpt lat="42.7074695192" lon="0.1201896183">
        <time>2022-03-01T11:12:05+00:00</time>
        <ele>2644.0</ele>
      </trkpt>
      <trkpt lat="42.7074601315" lon="0.120280562">
        <time>2022-03-01T11:12:09+00:00</time>
        <ele>2639.0</ele>
      </trkpt>
      <trkpt lat="42.7073923219" lon="0.1202864293">
        <time>2022-03-01T11:12:12+00:00</time>
        <ele>2635.0</ele>
      </trkpt>
      <trkpt lat="42.7073977701" lon="0.1203081384">
        <time>2022-03-01T11:12:13+00:00</time>
        <ele>2634.0</ele>
      </trkpt>
      <trkpt lat="42.7073902264" lon="0.1204187796">
        <time>2022-03-01T11:12:17+00:00</time>
        <ele>2630.0</ele>
      </trkpt>
      <trkpt lat="42.7073706128" lon="0.1204443444">
        <time>2022-03-01T11:12:18+00:00</time>
        <ele>2628.0</ele>
      </trkpt>
      <trkpt lat="42.7073561959" lon="0.1204513013">
        <time>2022-03-01T11:12:19+00:00</time>
        <ele>2627.0</ele>
      </trkpt>
      <trkpt lat="42.7073558606" lon="0.120528331">
        <time>2022-03-01T11:12:22+00:00</time>
        <ele>2625.0</ele>
      </trkpt>
      <trkpt lat="42.7073395159" lon="0.1205560751">
        <time>2022-03-01T11:12:23+00:00</time>
        <ele>2623.0</ele>
      </trkpt>
      <trkpt lat="42.7073105983" lon="0.1206667162">
        <time>2022-03-01T11:12:27+00:00</time>
        <ele>2618.0</ele>
      </trkpt>
      <trkpt lat="42.7073079161" lon="0.1207266469">
        <time>2022-03-01T11:12:29+00:00</time>
        <ele>2617.0</ele>
      </trkpt>
      <trkpt lat="42.7072878834" lon="0.120751122">
        <time>2022-03-01T11:12:31+00:00</time>
        <ele>2615.0</ele>
      </trkpt>
      <trkpt lat="42.707285285" lon="0.1207889244">
        <time>2022-03-01T11:12:33+00:00</time>
        <ele>2613.0</ele>
      </trkpt>
      <trkpt lat="42.7072877996" lon="0.1208457537">
        <time>2022-03-01T11:12:35+00:00</time>
        <ele>2612.0</ele>
      </trkpt>
      <trkpt lat="42.7072203252" lon="0.1208636072">
        <time>2022-03-01T11:12:37+00:00</time>
        <ele>2607.0</ele>
      </trkpt>
      <trkpt lat="42.707122257" lon="0.1209194306">
        <time>2022-03-01T11:12:40+00:00</time>
        <ele>2600.0</ele>
      </trkpt>
      <trkpt lat="42.7071115281" lon="0.1209478453">
        <time>2022-03-01T11:12:41+00:00</time>
        <ele>2598.0</ele>
      </trkpt>
      <trkpt lat="42.7071140427" lon="0.1210111286">
        <time>2022-03-01T11:12:43+00:00</time>
        <ele>2596.0</ele>
      </trkpt>
      <trkpt lat="42.7070551179" lon="0.1211040001">
        <time>2022-03-01T11:12:46+00:00</time>
        <ele>2590.0</ele>
      </trkpt>
      <trkpt lat="42.7070353366" lon="0.1211107057">
        <time>2022-03-01T11:12:47+00:00</time>
        <ele>2589.0</ele>
      </trkpt>
      <trkpt lat="42.7070501726" lon="0.1211096998">
        <time>2022-03-01T11:13:03+00:00</time>
        <ele>2590.0</ele>
      </trkpt>
      <trkpt lat="42.707047658" lon="0.1211048383">
        <time>2022-03-01T11:13:05+00:00</time>
        <ele>2590.0</ele>
      </trkpt>
      <trkpt lat="42.7070880588" lon="0.1212086063">
        <time>2022-03-01T11:13:09+00:00</time>
        <ele>2589.0</ele>
      </trkpt>
      <trkpt lat="42.7071997896" lon="0.1214394439">
        <time>2022-03-01T11:13:14+00:00</time>
        <ele>2591.0</ele>
      </trkpt>
      <trkpt lat="42.7072018012" lon="0.1217012946">
        <time>2022-03-01T11:13:19+00:00</time>
        <ele>2586.0</ele>
      </trkpt>
      <trkpt lat="42.7071121987" lon="0.1217126101">
        <time>2022-03-01T11:13:22+00:00</time>
        <ele>2579.0</ele>
      </trkpt>
      <trkpt lat="42.7070878074" lon="0.1217142027">
        <time>2022-03-01T11:13:23+00:00</time>
        <ele>2577.0</ele>
      </trkpt>
      <trkpt lat="42.7070042398" lon="0.1217687689">
        <time>2022-03-01T11:13:25+00:00</time>
        <ele>2572.0</ele>
      </trkpt>
      <trkpt lat="42.7068695426" lon="0.1218138635">
        <time>2022-03-01T11:13:28+00:00</time>
        <ele>2564.0</ele>
      </trkpt>
      <trkpt lat="42.7068242803" lon="0.121892821">
        <time>2022-03-01T11:13:30+00:00</time>
        <ele>2561.0</ele>
      </trkpt>
      <trkpt lat="42.7067335881" lon="0.121906735">
        <time>2022-03-01T11:13:32+00:00</time>
        <ele>2557.0</ele>
      </trkpt>
      <trkpt lat="42.7066815365" lon="0.1220118441">
        <time>2022-03-01T11:13:34+00:00</time>
        <ele>2554.0</ele>
      </trkpt>
      <trkpt lat="42.7066309098" lon="0.122142015">
        <time>2022-03-01T11:13:37+00:00</time>
        <ele>2552.0</ele>
      </trkpt>
      <trkpt lat="42.7065695543" lon="0.1221243292">
        <time>2022-03-01T11:13:38+00:00</time>
        <ele>2551.0</ele>
      </trkpt>
      <trkpt lat="42.7064840589" lon="0.1220274344">
        <time>2022-03-01T11:13:45+00:00</time>
        <ele>2549.0</ele>
      </trkpt>
      <trkpt lat="42.7065273933" lon="0.1219978463">
        <time>2022-03-01T11:14:10+00:00</time>
        <ele>2550.0</ele>
      </trkpt>
      <trkpt lat="42.7065315843" lon="0.1220162865">
        <time>2022-03-01T11:14:13+00:00</time>
        <ele>2550.0</ele>
      </trkpt>
      <trkpt lat="42.7064685524" lon="0.1220400073">
        <time>2022-03-01T11:14:16+00:00</time>
        <ele>2549.0</ele>
      </trkpt>
      <trkpt lat="42.7063896786" lon="0.1220574416">
        <time>2022-03-01T11:14:18+00:00</time>
        <ele>2547.0</ele>
      </trkpt>
      <trkpt lat="42.706115339" lon="0.122145284">
        <time>2022-03-01T11:14:24+00:00</time>
        <ele>2540.0</ele>
      </trkpt>
      <trkpt lat="42.7058419213" lon="0.1221991796">
        <time>2022-03-01T11:14:30+00:00</time>
        <ele>2536.0</ele>
      </trkpt>
      <trkpt lat="42.7056933939" lon="0.1222121716">
        <time>2022-03-01T11:14:33+00:00</time>
        <ele>2535.0</ele>
      </trkpt>
      <trkpt lat="42.7055806573" lon="0.1222198829">
        <time>2022-03-01T11:14:35+00:00</time>
        <ele>2534.0</ele>
      </trkpt>
      <trkpt lat="42.7054096665" lon="0.1222192962">
        <time>2022-03-01T11:14:38+00:00</time>
        <ele>2535.0</ele>
      </trkpt>
      <trkpt lat="42.7053815871" lon="0.1222233195">
        <time>2022-03-01T11:14:39+00:00</time>
        <ele>2535.0</ele>
      </trkpt>
      <trkpt lat="42.7053418569" lon="0.1222370658">
        <time>2022-03-01T11:14:40+00:00</time>
        <ele>2535.0</ele>
      </trkpt>
      <trkpt lat="42.7052510809" lon="0.1222921349">
        <time>2022-03-01T11:14:42+00:00</time>
        <ele>2534.0</ele>
      </trkpt>
      <trkpt lat="42.7050601412" lon="0.1224844158">
        <time>2022-03-01T11:14:45+00:00</time>
        <ele>2534.0</ele>
      </trkpt>
      <trkpt lat="42.7048469055" lon="0.1227644552">
        <time>2022-03-01T11:14:53+00:00</time>
        <ele>2534.0</ele>
      </trkpt>
      <trkpt lat="42.7047280502" lon="0.1229156647">
        <time>2022-03-01T11:14:58+00:00</time>
        <ele>2533.0</ele>
      </trkpt>
      <trkpt lat="42.704699384" lon="0.1229535509">
        <time>2022-03-01T11:14:59+00:00</time>
        <ele>2533.0</ele>
      </trkpt>
      <trkpt lat="42.704317756" lon="0.1231812872">
        <time>2022-03-01T11:15:10+00:00</time>
        <ele>2533.0</ele>
      </trkpt>
      <trkpt lat="42.7039795462" lon="0.1230998151">
        <time>2022-03-01T11:15:21+00:00</time>
        <ele>2534.0</ele>
      </trkpt>
      <trkpt lat="42.7037123311" lon="0.1231036708">
        <time>2022-03-01T11:15:33+00:00</time>
        <ele>2532.0</ele>
      </trkpt>
      <trkpt lat="42.7037008479" lon="0.1231011562">
        <time>2022-03-01T11:15:34+00:00</time>
        <ele>2532.0</ele>
      </trkpt>
      <trkpt lat="42.7034819964" lon="0.123215653">
        <time>2022-03-01T11:15:47+00:00</time>
        <ele>2529.0</ele>
      </trkpt>
      <trkpt lat="42.7032272704" lon="0.1232859772">
        <time>2022-03-01T11:15:58+00:00</time>
        <ele>2522.0</ele>
      </trkpt>
      <trkpt lat="42.7031758893" lon="0.1232791878">
        <time>2022-03-01T11:16:00+00:00</time>
        <ele>2521.0</ele>
      </trkpt>
      <trkpt lat="42.7031041402" lon="0.1232893299">
        <time>2022-03-01T11:16:02+00:00</time>
        <ele>2519.0</ele>
      </trkpt>
      <trkpt lat="42.7028280403" lon="0.1233704668">
        <time>2022-03-01T11:16:08+00:00</time>
        <ele>2518.0</ele>
      </trkpt>
      <trkpt lat="42.7026518527" lon="0.1233656053">
        <time>2022-03-01T11:16:12+00:00</time>
        <ele>2517.0</ele>
      </trkpt>
      <trkpt lat="42.7024596557" lon="0.1233597379">
        <time>2022-03-01T11:16:16+00:00</time>
        <ele>2517.0</ele>
      </trkpt>
      <trkpt lat="42.7023904212" lon="0.1233642641">
        <time>2022-03-01T11:16:17+00:00</time>
        <ele>2517.0</ele>
      </trkpt>
      <trkpt lat="42.7022803668" lon="0.1233572233">
        <time>2022-03-01T11:16:19+00:00</time>
        <ele>2518.0</ele>
      </trkpt>
      <trkpt lat="42.70217048" lon="0.1233744062">
        <time>2022-03-01T11:16:21+00:00</time>
        <ele>2518.0</ele>
      </trkpt>
      <trkpt lat="42.7019489463" lon="0.1235137973">
        <time>2022-03-01T11:16:27+00:00</time>
        <ele>2519.0</ele>
      </trkpt>
      <trkpt lat="42.7018429153" lon="0.1235898212">
        <time>2022-03-01T11:16:35+00:00</time>
        <ele>2519.0</ele>
      </trkpt>
      <trkpt lat="42.7018818911" lon="0.1236494165">
        <time>2022-03-01T11:16:55+00:00</time>
        <ele>2518.0</ele>
      </trkpt>
      <trkpt lat="42.7018979844" lon="0.123624187">
        <time>2022-03-01T11:17:14+00:00</time>
        <ele>2518.0</ele>
      </trkpt>
      <trkpt lat="42.7019016724" lon="0.1236480754">
        <time>2022-03-01T11:17:35+00:00</time>
        <ele>2518.0</ele>
      </trkpt>
      <trkpt lat="42.7018989902" lon="0.1236107759">
        <time>2022-03-01T11:17:58+00:00</time>
        <ele>2518.0</ele>
      </trkpt>
      <trkpt lat="42.7019183524" lon="0.1236226782">
        <time>2022-03-01T11:18:14+00:00</time>
        <ele>2518.0</ele>
      </trkpt>
      <trkpt lat="42.7019183524" lon="0.1236267015">
        <time>2022-03-01T11:18:48+00:00</time>
        <ele>2518.0</ele>
      </trkpt>
      <trkpt lat="42.7019007504" lon="0.1236279588">
        <time>2022-03-01T11:19:17+00:00</time>
        <ele>2518.0</ele>
      </trkpt>
      <trkpt lat="42.7019072045" lon="0.1236224268">
        <time>2022-03-01T11:19:48+00:00</time>
        <ele>2518.0</ele>
      </trkpt>
      <trkpt lat="42.7019255608" lon="0.1236230973">
        <time>2022-03-01T11:20:01+00:00</time>
        <ele>2518.0</ele>
      </trkpt>
      <trkpt lat="42.7019283269" lon="0.1236154698">
        <time>2022-03-01T11:20:15+00:00</time>
        <ele>2518.0</ele>
      </trkpt>
      <trkpt lat="42.7019124012" lon="0.1235927548">
        <time>2022-03-01T11:20:38+00:00</time>
        <ele>2519.0</ele>
      </trkpt>
      <trkpt lat="42.7019224595" lon="0.1235611551">
        <time>2022-03-01T11:21:03+00:00</time>
        <ele>2519.0</ele>
      </trkpt>
      <trkpt lat="42.7019491978" lon="0.1234537829">
        <time>2022-03-01T11:21:29+00:00</time>
        <ele>2519.0</ele>
      </trkpt>
      <trkpt lat="42.701928746" lon="0.1234756596">
        <time>2022-03-01T11:22:03+00:00</time>
        <ele>2519.0</ele>
      </trkpt>
      <trkpt lat="42.7018985711" lon="0.1235339977">
        <time>2022-03-01T11:22:32+00:00</time>
        <ele>2519.0</ele>
      </trkpt>
      <trkpt lat="42.7018985711" lon="0.1235588081">
        <time>2022-03-01T11:22:59+00:00</time>
        <ele>2519.0</ele>
      </trkpt>
      <trkpt lat="42.7019250579" lon="0.1236088481">
        <time>2022-03-01T11:23:32+00:00</time>
        <ele>2518.0</ele>
      </trkpt>
      <trkpt lat="42.7019901015" lon="0.1234700438">
        <time>2022-03-01T11:24:05+00:00</time>
        <ele>2519.0</ele>
      </trkpt>
      <trkpt lat="42.7019969746" lon="0.1234840415">
        <time>2022-03-01T11:24:38+00:00</time>
        <ele>2519.0</ele>
      </trkpt>
      <trkpt lat="42.701949114" lon="0.1234561298">
        <time>2022-03-01T11:25:08+00:00</time>
        <ele>2519.0</ele>
      </trkpt>
      <trkpt lat="42.7019401453" lon="0.123416651">
        <time>2022-03-01T11:25:40+00:00</time>
        <ele>2520.0</ele>
      </trkpt>
      <trkpt lat="42.7019255608" lon="0.1234737318">
        <time>2022-03-01T11:26:17+00:00</time>
        <ele>2519.0</ele>
      </trkpt>
      <trkpt lat="42.701881472" lon="0.1236018073">
        <time>2022-03-01T11:26:49+00:00</time>
        <ele>2518.0</ele>
      </trkpt>
      <trkpt lat="42.7019193582" lon="0.1235194132">
        <time>2022-03-01T11:27:18+00:00</time>
        <ele>2519.0</ele>
      </trkpt>
      <trkpt lat="42.7019807138" lon="0.1235289685">
        <time>2022-03-01T11:27:44+00:00</time>
        <ele>2519.0</ele>
      </trkpt>
      <trkpt lat="42.7019959688" lon="0.1235707942">
        <time>2022-03-01T11:28:14+00:00</time>
        <ele>2519.0</ele>
      </trkpt>
      <trkpt lat="42.7020456735" lon="0.1235553715">
        <time>2022-03-01T11:28:42+00:00</time>
        <ele>2519.0</ele>
      </trkpt>
      <trkpt lat="42.7021247987" lon="0.1235707942">
        <time>2022-03-01T11:29:15+00:00</time>
        <ele>2519.0</ele>
      </trkpt>
      <trkpt lat="42.7021081187" lon="0.1236285456">
        <time>2022-03-01T11:29:46+00:00</time>
        <ele>2518.0</ele>
      </trkpt>
      <trkpt lat="42.7019548137" lon="0.1236471534">
        <time>2022-03-01T11:30:16+00:00</time>
        <ele>2518.0</ele>
      </trkpt>
      <trkpt lat="42.7019626927" lon="0.1236096863">
        <time>2022-03-01T11:30:51+00:00</time>
        <ele>2518.0</ele>
      </trkpt>
      <trkpt lat="42.7019623574" lon="0.1235658489">
        <time>2022-03-01T11:31:28+00:00</time>
        <ele>2519.0</ele>
      </trkpt>
      <trkpt lat="42.7019401453" lon="0.1235739794">
        <time>2022-03-01T11:31:52+00:00</time>
        <ele>2519.0</ele>
      </trkpt>
      <trkpt lat="42.7019345295" lon="0.1236027293">
        <time>2022-03-01T11:32:23+00:00</time>
        <ele>2518.0</ele>
      </trkpt>
      <trkpt lat="42.7018896863" lon="0.1236308087">
        <time>2022-03-01T11:32:45+00:00</time>
        <ele>2518.0</ele>
      </trkpt>
      <trkpt lat="42.7018564101" lon="0.1235785056">
        <time>2022-03-01T11:33:07+00:00</time>
        <ele>2519.0</ele>
      </trkpt>
      <trkpt lat="42.7018855792" lon="0.1236355025">
        <time>2022-03-01T11:33:32+00:00</time>
        <ele>2518.0</ele>
      </trkpt>
      <trkpt lat="42.7019401453" lon="0.1236193255">
        <time>2022-03-01T11:33:56+00:00</time>
        <ele>2518.0</ele>
      </trkpt>
      <trkpt lat="42.7019255608" lon="0.1236094348">
        <time>2022-03-01T11:34:19+00:00</time>
        <ele>2518.0</ele>
      </trkpt>
      <trkpt lat="42.7019192744" lon="0.1236441359">
        <time>2022-03-01T11:34:41+00:00</time>
        <ele>2518.0</ele>
      </trkpt>
      <trkpt lat="42.7019144129" lon="0.1236443873">
        <time>2022-03-01T11:35:05+00:00</time>
        <ele>2518.0</ele>
      </trkpt>
      <trkpt lat="42.70191852" lon="0.1236044057">
        <time>2022-03-01T11:35:26+00:00</time>
        <ele>2518.0</ele>
      </trkpt>
      <trkpt lat="42.7019360382" lon="0.1234541181">
        <time>2022-03-01T11:36:00+00:00</time>
        <ele>2519.0</ele>
      </trkpt>
      <trkpt lat="42.7018867526" lon="0.123409275">
        <time>2022-03-01T11:36:35+00:00</time>
        <ele>2520.0</ele>
      </trkpt>
      <trkpt lat="42.7019020077" lon="0.1234362647">
        <time>2022-03-01T11:37:01+00:00</time>
        <ele>2520.0</ele>
      </trkpt>
      <trkpt lat="42.7018855792" lon="0.1235225983">
        <time>2022-03-01T11:37:34+00:00</time>
        <ele>2519.0</ele>
      </trkpt>
      <trkpt lat="42.7019045223" lon="0.1236104406">
        <time>2022-03-01T11:38:12+00:00</time>
        <ele>2518.0</ele>
      </trkpt>
      <trkpt lat="42.7019190229" lon="0.1236498356">
        <time>2022-03-01T11:38:44+00:00</time>
        <ele>2518.0</ele>
      </trkpt>
      <trkpt lat="42.7019346133" lon="0.1236479077">
        <time>2022-03-01T11:39:13+00:00</time>
        <ele>2518.0</ele>
      </trkpt>
      <trkpt lat="42.7019424085" lon="0.1236522663">
        <time>2022-03-01T11:39:47+00:00</time>
        <ele>2518.0</ele>
      </trkpt>
      <trkpt lat="42.7019624412" lon="0.1236724667">
        <time>2022-03-01T11:40:16+00:00</time>
        <ele>2518.0</ele>
      </trkpt>
      <trkpt lat="42.701937044" lon="0.1236489974">
        <time>2022-03-01T11:40:38+00:00</time>
        <ele>2518.0</ele>
      </trkpt>
      <trkpt lat="42.7019039355" lon="0.1236475725">
        <time>2022-03-01T11:40:59+00:00</time>
        <ele>2518.0</ele>
      </trkpt>
      <trkpt lat="42.7019162569" lon="0.1236603968">
        <time>2022-03-01T11:41:19+00:00</time>
        <ele>2518.0</ele>
      </trkpt>
      <trkpt lat="42.7019288298" lon="0.1236760709">
        <time>2022-03-01T11:41:38+00:00</time>
        <ele>2518.0</ele>
      </trkpt>
      <trkpt lat="42.7019070368" lon="0.1236604806">
        <time>2022-03-01T11:42:02+00:00</time>
        <ele>2518.0</ele>
      </trkpt>
      <trkpt lat="42.7018979006" lon="0.1236794237">
        <time>2022-03-01T11:42:04+00:00</time>
        <ele>2518.0</ele>
      </trkpt>
      <trkpt lat="42.7018290851" lon="0.1237585489">
        <time>2022-03-01T11:42:13+00:00</time>
        <ele>2517.0</ele>
      </trkpt>
      <trkpt lat="42.7017052006" lon="0.1238406077">
        <time>2022-03-01T11:42:27+00:00</time>
        <ele>2516.0</ele>
      </trkpt>
      <trkpt lat="42.7016204596" lon="0.1239509135">
        <time>2022-03-01T11:42:41+00:00</time>
        <ele>2516.0</ele>
      </trkpt>
      <trkpt lat="42.7014884446" lon="0.1241048891">
        <time>2022-03-01T11:42:57+00:00</time>
        <ele>2515.0</ele>
      </trkpt>
      <trkpt lat="42.7013783902" lon="0.1242301986">
        <time>2022-03-01T11:43:11+00:00</time>
        <ele>2514.0</ele>
      </trkpt>
      <trkpt lat="42.7012675814" lon="0.1243219804">
        <time>2022-03-01T11:43:26+00:00</time>
        <ele>2514.0</ele>
      </trkpt>
      <trkpt lat="42.701122826" lon="0.1243887004">
        <time>2022-03-01T11:43:40+00:00</time>
        <ele>2514.0</ele>
      </trkpt>
      <trkpt lat="42.7010395098" lon="0.1244254131">
        <time>2022-03-01T11:43:50+00:00</time>
        <ele>2514.0</ele>
      </trkpt>
      <trkpt lat="42.7008727938" lon="0.1244188752">
        <time>2022-03-01T11:44:05+00:00</time>
        <ele>2515.0</ele>
      </trkpt>
      <trkpt lat="42.7008125279" lon="0.1244106609">
        <time>2022-03-01T11:44:10+00:00</time>
        <ele>2515.0</ele>
      </trkpt>
      <trkpt lat="42.7006181516" lon="0.1244327053">
        <time>2022-03-01T11:44:27+00:00</time>
        <ele>2516.0</ele>
      </trkpt>
      <trkpt lat="42.7004479151" lon="0.1244327892">
        <time>2022-03-01T11:44:42+00:00</time>
        <ele>2516.0</ele>
      </trkpt>
      <trkpt lat="42.7003007289" lon="0.1245592721">
        <time>2022-03-01T11:44:58+00:00</time>
        <ele>2517.0</ele>
      </trkpt>
      <trkpt lat="42.7001796104" lon="0.1246829052">
        <time>2022-03-01T11:45:11+00:00</time>
        <ele>2517.0</ele>
      </trkpt>
      <trkpt lat="42.7000515349" lon="0.1248090528">
        <time>2022-03-01T11:45:25+00:00</time>
        <ele>2517.0</ele>
      </trkpt>
      <trkpt lat="42.7000234555" lon="0.1248403173">
        <time>2022-03-01T11:45:28+00:00</time>
        <ele>2517.0</ele>
      </trkpt>
      <trkpt lat="42.7000066079" lon="0.1248611882">
        <time>2022-03-01T11:45:30+00:00</time>
        <ele>2517.0</ele>
      </trkpt>
      <trkpt lat="42.6999418996" lon="0.124951629">
        <time>2022-03-01T11:45:38+00:00</time>
        <ele>2518.0</ele>
      </trkpt>
      <trkpt lat="42.6998001616" lon="0.1250972226">
        <time>2022-03-01T11:45:54+00:00</time>
        <ele>2520.0</ele>
      </trkpt>
      <trkpt lat="42.6996702421" lon="0.1252141502">
        <time>2022-03-01T11:46:08+00:00</time>
        <ele>2523.0</ele>
      </trkpt>
      <trkpt lat="42.6995696593" lon="0.1253195107">
        <time>2022-03-01T11:46:22+00:00</time>
        <ele>2525.0</ele>
      </trkpt>
      <trkpt lat="42.6994668134" lon="0.1254598238">
        <time>2022-03-01T11:46:39+00:00</time>
        <ele>2530.0</ele>
      </trkpt>
      <trkpt lat="42.6993923821" lon="0.1255718898">
        <time>2022-03-01T11:46:54+00:00</time>
        <ele>2535.0</ele>
      </trkpt>
      <trkpt lat="42.6993330382" lon="0.1257123705">
        <time>2022-03-01T11:47:10+00:00</time>
        <ele>2540.0</ele>
      </trkpt>
      <trkpt lat="42.6992006041" lon="0.1258220896">
        <time>2022-03-01T11:47:27+00:00</time>
        <ele>2546.0</ele>
      </trkpt>
      <trkpt lat="42.6991051342" lon="0.1259043161">
        <time>2022-03-01T11:47:43+00:00</time>
        <ele>2550.0</ele>
      </trkpt>
      <trkpt lat="42.6989641506" lon="0.1259661745">
        <time>2022-03-01T11:48:02+00:00</time>
        <ele>2554.0</ele>
      </trkpt>
      <trkpt lat="42.6988483127" lon="0.125981262">
        <time>2022-03-01T11:48:16+00:00</time>
        <ele>2554.0</ele>
      </trkpt>
      <trkpt lat="42.6987294573" lon="0.1259903144">
        <time>2022-03-01T11:48:29+00:00</time>
        <ele>2554.0</ele>
      </trkpt>
      <trkpt lat="42.6985965203" lon="0.1260103472">
        <time>2022-03-01T11:48:44+00:00</time>
        <ele>2552.0</ele>
      </trkpt>
      <trkpt lat="42.6984350011" lon="0.1260055695">
        <time>2022-03-01T11:49:00+00:00</time>
        <ele>2548.0</ele>
      </trkpt>
      <trkpt lat="42.6983261202" lon="0.1260732953">
        <time>2022-03-01T11:49:15+00:00</time>
        <ele>2548.0</ele>
      </trkpt>
      <trkpt lat="42.6982114557" lon="0.1261359919">
        <time>2022-03-01T11:49:29+00:00</time>
        <ele>2547.0</ele>
      </trkpt>
      <trkpt lat="42.6980615035" lon="0.126195671">
        <time>2022-03-01T11:49:45+00:00</time>
        <ele>2546.0</ele>
      </trkpt>
      <trkpt lat="42.6979508623" lon="0.1262601279">
        <time>2022-03-01T11:49:58+00:00</time>
        <ele>2546.0</ele>
      </trkpt>
      <trkpt lat="42.697920436" lon="0.1262983494">
        <time>2022-03-01T11:50:11+00:00</time>
        <ele>2546.0</ele>
      </trkpt>
      <trkpt lat="42.6979141496" lon="0.1262850221">
        <time>2022-03-01T11:50:17+00:00</time>
        <ele>2546.0</ele>
      </trkpt>
      <trkpt lat="42.6978776045" lon="0.1261074934">
        <time>2022-03-01T11:50:29+00:00</time>
        <ele>2540.0</ele>
      </trkpt>
      <trkpt lat="42.6978740841" lon="0.1261247601">
        <time>2022-03-01T11:50:45+00:00</time>
        <ele>2540.0</ele>
      </trkpt>
      <trkpt lat="42.6978667919" lon="0.126142865">
        <time>2022-03-01T11:50:55+00:00</time>
        <ele>2540.0</ele>
      </trkpt>
      <trkpt lat="42.6978711504" lon="0.1261580363">
        <time>2022-03-01T11:51:10+00:00</time>
        <ele>2541.0</ele>
      </trkpt>
      <trkpt lat="42.697888501" lon="0.1261417754">
        <time>2022-03-01T11:51:50+00:00</time>
        <ele>2541.0</ele>
      </trkpt>
      <trkpt lat="42.6979157422" lon="0.1261004526">
        <time>2022-03-01T11:52:23+00:00</time>
        <ele>2540.0</ele>
      </trkpt>
      <trkpt lat="42.6979027502" lon="0.1261408534">
        <time>2022-03-01T11:52:48+00:00</time>
        <ele>2541.0</ele>
      </trkpt>
      <trkpt lat="42.697852375" lon="0.1261183899">
        <time>2022-03-01T11:53:17+00:00</time>
        <ele>2539.0</ele>
      </trkpt>
      <trkpt lat="42.6978494413" lon="0.1261421945">
        <time>2022-03-01T11:53:50+00:00</time>
        <ele>2540.0</ele>
      </trkpt>
      <trkpt lat="42.6978010777" lon="0.1261193957">
        <time>2022-03-01T11:54:26+00:00</time>
        <ele>2538.0</ele>
      </trkpt>
      <trkpt lat="42.6978148241" lon="0.1261043921">
        <time>2022-03-01T11:54:53+00:00</time>
        <ele>2538.0</ele>
      </trkpt>
      <trkpt lat="42.6978361979" lon="0.1260829344">
        <time>2022-03-01T11:55:26+00:00</time>
        <ele>2538.0</ele>
      </trkpt>
      <trkpt lat="42.6978701446" lon="0.1261307951">
        <time>2022-03-01T11:55:50+00:00</time>
        <ele>2540.0</ele>
      </trkpt>
      <trkpt lat="42.6978553925" lon="0.1261355728">
        <time>2022-03-01T11:56:22+00:00</time>
        <ele>2540.0</ele>
      </trkpt>
      <trkpt lat="42.6978853159" lon="0.1261411887">
        <time>2022-03-01T11:56:52+00:00</time>
        <ele>2541.0</ele>
      </trkpt>
      <trkpt lat="42.6978581585" lon="0.126135489">
        <time>2022-03-01T11:57:02+00:00</time>
        <ele>2540.0</ele>
      </trkpt>
      <trkpt lat="42.6978530455" lon="0.1261538453">
        <time>2022-03-01T11:57:20+00:00</time>
        <ele>2540.0</ele>
      </trkpt>
      <trkpt lat="42.697856985" lon="0.1261555217">
        <time>2022-03-01T11:57:38+00:00</time>
        <ele>2540.0</ele>
      </trkpt>
      <trkpt lat="42.6978383772" lon="0.1261090022">
        <time>2022-03-01T11:58:07+00:00</time>
        <ele>2539.0</ele>
      </trkpt>
      <trkpt lat="42.6978159975" lon="0.1261073258">
        <time>2022-03-01T11:58:27+00:00</time>
        <ele>2538.0</ele>
      </trkpt>
      <trkpt lat="42.6978424005" lon="0.1261273585">
        <time>2022-03-01T11:58:44+00:00</time>
        <ele>2539.0</ele>
      </trkpt>
      <trkpt lat="42.697805604" lon="0.1261584554">
        <time>2022-03-01T11:58:57+00:00</time>
        <ele>2539.0</ele>
      </trkpt>
      <trkpt lat="42.6976425759" lon="0.1263000257">
        <time>2022-03-01T11:59:05+00:00</time>
        <ele>2538.0</ele>
      </trkpt>
      <trkpt lat="42.6976120658" lon="0.1263027918">
        <time>2022-03-01T11:59:06+00:00</time>
        <ele>2537.0</ele>
      </trkpt>
      <trkpt lat="42.6975194458" lon="0.1263463777">
        <time>2022-03-01T11:59:09+00:00</time>
        <ele>2535.0</ele>
      </trkpt>
      <trkpt lat="42.6973205432" lon="0.1263794862">
        <time>2022-03-01T11:59:13+00:00</time>
        <ele>2527.0</ele>
      </trkpt>
      <trkpt lat="42.6972632948" lon="0.1263641473">
        <time>2022-03-01T11:59:14+00:00</time>
        <ele>2524.0</ele>
      </trkpt>
      <trkpt lat="42.6971499715" lon="0.1263621356">
        <time>2022-03-01T11:59:16+00:00</time>
        <ele>2518.0</ele>
      </trkpt>
      <trkpt lat="42.6970323734" lon="0.1263976749">
        <time>2022-03-01T11:59:18+00:00</time>
        <ele>2512.0</ele>
      </trkpt>
      <trkpt lat="42.6969713531" lon="0.1263896283">
        <time>2022-03-01T11:59:19+00:00</time>
        <ele>2509.0</ele>
      </trkpt>
      <trkpt lat="42.6968527492" lon="0.1263629738">
        <time>2022-03-01T11:59:21+00:00</time>
        <ele>2505.0</ele>
      </trkpt>
      <trkpt lat="42.6967372466" lon="0.1263581123">
        <time>2022-03-01T11:59:23+00:00</time>
        <ele>2501.0</ele>
      </trkpt>
      <trkpt lat="42.6966225822" lon="0.1263743732">
        <time>2022-03-01T11:59:25+00:00</time>
        <ele>2496.0</ele>
      </trkpt>
      <trkpt lat="42.6965008769" lon="0.126377726">
        <time>2022-03-01T11:59:27+00:00</time>
        <ele>2491.0</ele>
      </trkpt>
      <trkpt lat="42.6961704623" lon="0.1263862755">
        <time>2022-03-01T11:59:31+00:00</time>
        <ele>2480.0</ele>
      </trkpt>
      <trkpt lat="42.6960609946" lon="0.126401782">
        <time>2022-03-01T11:59:33+00:00</time>
        <ele>2477.0</ele>
      </trkpt>
      <trkpt lat="42.6959677041" lon="0.126392981">
        <time>2022-03-01T11:59:34+00:00</time>
        <ele>2474.0</ele>
      </trkpt>
      <trkpt lat="42.6957045123" lon="0.1263959985">
        <time>2022-03-01T11:59:39+00:00</time>
        <ele>2469.0</ele>
      </trkpt>
      <trkpt lat="42.6955321804" lon="0.1263963338">
        <time>2022-03-01T11:59:42+00:00</time>
        <ele>2466.0</ele>
      </trkpt>
      <trkpt lat="42.6954195276" lon="0.1263903826">
        <time>2022-03-01T11:59:44+00:00</time>
        <ele>2464.0</ele>
      </trkpt>
      <trkpt lat="42.6952516381" lon="0.12638418">
        <time>2022-03-01T11:59:47+00:00</time>
        <ele>2462.0</ele>
      </trkpt>
      <trkpt lat="42.6950974949" lon="0.1263705175">
        <time>2022-03-01T11:59:50+00:00</time>
        <ele>2460.0</ele>
      </trkpt>
      <trkpt lat="42.6948902942" lon="0.1263650693">
        <time>2022-03-01T12:00:00+00:00</time>
        <ele>2457.0</ele>
      </trkpt>
      <trkpt lat="42.694845451" lon="0.1262877882">
        <time>2022-03-01T12:00:13+00:00</time>
        <ele>2457.0</ele>
      </trkpt>
      <trkpt lat="42.6947726123" lon="0.1262625586">
        <time>2022-03-01T12:00:27+00:00</time>
        <ele>2455.0</ele>
      </trkpt>
      <trkpt lat="42.6945697702" lon="0.1261823438">
        <time>2022-03-01T12:00:42+00:00</time>
        <ele>2451.0</ele>
      </trkpt>
      <trkpt lat="42.694448987" lon="0.1261983532">
        <time>2022-03-01T12:00:56+00:00</time>
        <ele>2450.0</ele>
      </trkpt>
      <trkpt lat="42.6943556964" lon="0.1261934917">
        <time>2022-03-01T12:01:12+00:00</time>
        <ele>2449.0</ele>
      </trkpt>
      <trkpt lat="42.6942878868" lon="0.1261685975">
        <time>2022-03-01T12:01:25+00:00</time>
        <ele>2449.0</ele>
      </trkpt>
      <trkpt lat="42.6943797525" lon="0.1261222456">
        <time>2022-03-01T12:01:40+00:00</time>
        <ele>2451.0</ele>
      </trkpt>
      <trkpt lat="42.6943822671" lon="0.1261233352">
        <time>2022-03-01T12:01:41+00:00</time>
        <ele>2451.0</ele>
      </trkpt>
      <trkpt lat="42.6943557803" lon="0.1260494068">
        <time>2022-03-01T12:02:03+00:00</time>
        <ele>2452.0</ele>
      </trkpt>
      <trkpt lat="42.6942823548" lon="0.1260833535">
        <time>2022-03-01T12:02:21+00:00</time>
        <ele>2451.0</ele>
      </trkpt>
      <trkpt lat="42.6942022238" lon="0.1259669289">
        <time>2022-03-01T12:02:35+00:00</time>
        <ele>2453.0</ele>
      </trkpt>
      <trkpt lat="42.6941808499" lon="0.1259156317">
        <time>2022-03-01T12:02:49+00:00</time>
        <ele>2453.0</ele>
      </trkpt>
      <trkpt lat="42.6941743121" lon="0.1259325631">
        <time>2022-03-01T12:03:06+00:00</time>
        <ele>2453.0</ele>
      </trkpt>
      <trkpt lat="42.6941282116" lon="0.1258780807">
        <time>2022-03-01T12:03:31+00:00</time>
        <ele>2454.0</ele>
      </trkpt>
      <trkpt lat="42.6941396948" lon="0.1259551104">
        <time>2022-03-01T12:03:53+00:00</time>
        <ele>2452.0</ele>
      </trkpt>
      <trkpt lat="42.6941711269" lon="0.1259981934">
        <time>2022-03-01T12:04:17+00:00</time>
        <ele>2451.0</ele>
      </trkpt>
      <trkpt lat="42.6941654272" lon="0.1260054018">
        <time>2022-03-01T12:04:37+00:00</time>
        <ele>2451.0</ele>
      </trkpt>
      <trkpt lat="42.6941816881" lon="0.1260293741">
        <time>2022-03-01T12:04:43+00:00</time>
        <ele>2451.0</ele>
      </trkpt>
      <trkpt lat="42.6942411158" lon="0.1259925775">
        <time>2022-03-01T12:05:07+00:00</time>
        <ele>2452.0</ele>
      </trkpt>
      <trkpt lat="42.6942346618" lon="0.1260067429">
        <time>2022-03-01T12:05:14+00:00</time>
        <ele>2452.0</ele>
      </trkpt>
      <trkpt lat="42.6939521916" lon="0.1259795018">
        <time>2022-03-01T12:05:25+00:00</time>
        <ele>2448.0</ele>
      </trkpt>
      <trkpt lat="42.6938268822" lon="0.1260027196">
        <time>2022-03-01T12:05:31+00:00</time>
        <ele>2444.0</ele>
      </trkpt>
      <trkpt lat="42.6937780995" lon="0.1260735467">
        <time>2022-03-01T12:05:35+00:00</time>
        <ele>2440.0</ele>
      </trkpt>
      <trkpt lat="42.6937631797" lon="0.1260925736">
        <time>2022-03-01T12:05:36+00:00</time>
        <ele>2439.0</ele>
      </trkpt>
      <trkpt lat="42.6936998125" lon="0.1260772347">
        <time>2022-03-01T12:05:39+00:00</time>
        <ele>2436.0</ele>
      </trkpt>
      <trkpt lat="42.6936604176" lon="0.1260507479">
        <time>2022-03-01T12:05:42+00:00</time>
        <ele>2434.0</ele>
      </trkpt>
      <trkpt lat="42.6935666241" lon="0.126012275">
        <time>2022-03-01T12:05:48+00:00</time>
        <ele>2430.0</ele>
      </trkpt>
      <trkpt lat="42.6935265586" lon="0.125991907">
        <time>2022-03-01T12:05:49+00:00</time>
        <ele>2428.0</ele>
      </trkpt>
      <trkpt lat="42.6933543943" lon="0.1259053219">
        <time>2022-03-01T12:05:53+00:00</time>
        <ele>2422.0</ele>
      </trkpt>
      <trkpt lat="42.6933037676" lon="0.1259013824">
        <time>2022-03-01T12:05:54+00:00</time>
        <ele>2420.0</ele>
      </trkpt>
      <trkpt lat="42.6932641212" lon="0.1258945931">
        <time>2022-03-01T12:05:55+00:00</time>
        <ele>2419.0</ele>
      </trkpt>
      <trkpt lat="42.6931972336" lon="0.1258919109">
        <time>2022-03-01T12:05:57+00:00</time>
        <ele>2417.0</ele>
      </trkpt>
      <trkpt lat="42.6929840818" lon="0.1258594729">
        <time>2022-03-01T12:06:02+00:00</time>
        <ele>2409.0</ele>
      </trkpt>
      <trkpt lat="42.6926180441" lon="0.125763081">
        <time>2022-03-01T12:06:11+00:00</time>
        <ele>2402.0</ele>
      </trkpt>
      <trkpt lat="42.6924128551" lon="0.125698708">
        <time>2022-03-01T12:06:16+00:00</time>
        <ele>2397.0</ele>
      </trkpt>
      <trkpt lat="42.6923706941" lon="0.1256878115">
        <time>2022-03-01T12:06:17+00:00</time>
        <ele>2396.0</ele>
      </trkpt>
      <trkpt lat="42.6923229173" lon="0.1256725565">
        <time>2022-03-01T12:06:18+00:00</time>
        <ele>2395.0</ele>
      </trkpt>
      <trkpt lat="42.6921833586" lon="0.1256224327">
        <time>2022-03-01T12:06:21+00:00</time>
        <ele>2392.0</ele>
      </trkpt>
      <trkpt lat="42.6921334025" lon="0.1256065071">
        <time>2022-03-01T12:06:22+00:00</time>
        <ele>2390.0</ele>
      </trkpt>
      <trkpt lat="42.6919771638" lon="0.1255515218">
        <time>2022-03-01T12:06:26+00:00</time>
        <ele>2386.0</ele>
      </trkpt>
      <trkpt lat="42.6919972803" lon="0.1254915074">
        <time>2022-03-01T12:06:35+00:00</time>
        <ele>2389.0</ele>
      </trkpt>
      <trkpt lat="42.6920593902" lon="0.1253345981">
        <time>2022-03-01T12:07:05+00:00</time>
        <ele>2397.0</ele>
      </trkpt>
      <trkpt lat="42.6920425426" lon="0.1253270544">
        <time>2022-03-01T12:07:06+00:00</time>
        <ele>2397.0</ele>
      </trkpt>
      <trkpt lat="42.6919490844" lon="0.1253010705">
        <time>2022-03-01T12:07:09+00:00</time>
        <ele>2394.0</ele>
      </trkpt>
      <trkpt lat="42.6918835379" lon="0.1254202612">
        <time>2022-03-01T12:07:13+00:00</time>
        <ele>2387.0</ele>
      </trkpt>
      <trkpt lat="42.6918402035" lon="0.1254283078">
        <time>2022-03-01T12:07:14+00:00</time>
        <ele>2385.0</ele>
      </trkpt>
      <trkpt lat="42.691797372" lon="0.1254213508">
        <time>2022-03-01T12:07:15+00:00</time>
        <ele>2384.0</ele>
      </trkpt>
      <trkpt lat="42.6917217672" lon="0.1255290583">
        <time>2022-03-01T12:07:19+00:00</time>
        <ele>2378.0</ele>
      </trkpt>
      <trkpt lat="42.6916803606" lon="0.1255598199">
        <time>2022-03-01T12:07:20+00:00</time>
        <ele>2376.0</ele>
      </trkpt>
      <trkpt lat="42.6915686298" lon="0.1255728956">
        <time>2022-03-01T12:07:22+00:00</time>
        <ele>2372.0</ele>
      </trkpt>
      <trkpt lat="42.6914403029" lon="0.1255125459">
        <time>2022-03-01T12:07:25+00:00</time>
        <ele>2368.0</ele>
      </trkpt>
      <trkpt lat="42.6913259737" lon="0.1252825465">
        <time>2022-03-01T12:07:30+00:00</time>
        <ele>2371.0</ele>
      </trkpt>
      <trkpt lat="42.6913177595" lon="0.12518364">
        <time>2022-03-01T12:07:43+00:00</time>
        <ele>2374.0</ele>
      </trkpt>
      <trkpt lat="42.6912237145" lon="0.1250673831">
        <time>2022-03-01T12:07:47+00:00</time>
        <ele>2373.0</ele>
      </trkpt>
      <trkpt lat="42.6911313459" lon="0.1249655429">
        <time>2022-03-01T12:07:50+00:00</time>
        <ele>2372.0</ele>
      </trkpt>
      <trkpt lat="42.6910304278" lon="0.1248345338">
        <time>2022-03-01T12:07:53+00:00</time>
        <ele>2371.0</ele>
      </trkpt>
      <trkpt lat="42.6909088902" lon="0.1246964">
        <time>2022-03-01T12:07:56+00:00</time>
        <ele>2368.0</ele>
      </trkpt>
      <trkpt lat="42.6907163579" lon="0.1245330367">
        <time>2022-03-01T12:08:05+00:00</time>
        <ele>2360.0</ele>
      </trkpt>
      <trkpt lat="42.6906736102" lon="0.1244640537">
        <time>2022-03-01T12:08:25+00:00</time>
        <ele>2359.0</ele>
      </trkpt>
      <trkpt lat="42.6906213071" lon="0.1245477051">
        <time>2022-03-01T12:08:28+00:00</time>
        <ele>2355.0</ele>
      </trkpt>
      <trkpt lat="42.6905709319" lon="0.1245617867">
        <time>2022-03-01T12:08:30+00:00</time>
        <ele>2353.0</ele>
      </trkpt>
      <trkpt lat="42.6905488037" lon="0.1245666482">
        <time>2022-03-01T12:08:31+00:00</time>
        <ele>2351.0</ele>
      </trkpt>
      <trkpt lat="42.690537069" lon="0.1246645488">
        <time>2022-03-01T12:08:34+00:00</time>
        <ele>2349.0</ele>
      </trkpt>
      <trkpt lat="42.6905461214" lon="0.1247379743">
        <time>2022-03-01T12:08:36+00:00</time>
        <ele>2349.0</ele>
      </trkpt>
      <trkpt lat="42.6904714387" lon="0.124810813">
        <time>2022-03-01T12:08:39+00:00</time>
        <ele>2344.0</ele>
      </trkpt>
      <trkpt lat="42.6904218178" lon="0.1248031855">
        <time>2022-03-01T12:08:40+00:00</time>
        <ele>2341.0</ele>
      </trkpt>
      <trkpt lat="42.6903666649" lon="0.1247747708">
        <time>2022-03-01T12:08:42+00:00</time>
        <ele>2337.0</ele>
      </trkpt>
      <trkpt lat="42.6902737096" lon="0.1248245593">
        <time>2022-03-01T12:08:45+00:00</time>
        <ele>2328.0</ele>
      </trkpt>
      <trkpt lat="42.6902331412" lon="0.1248309296">
        <time>2022-03-01T12:08:46+00:00</time>
        <ele>2324.0</ele>
      </trkpt>
      <trkpt lat="42.6901261043" lon="0.1247839071">
        <time>2022-03-01T12:08:49+00:00</time>
        <ele>2316.0</ele>
      </trkpt>
      <trkpt lat="42.6900971029" lon="0.1247526426">
        <time>2022-03-01T12:08:50+00:00</time>
        <ele>2314.0</ele>
      </trkpt>
      <trkpt lat="42.68995855" lon="0.1248152554">
        <time>2022-03-01T12:08:54+00:00</time>
        <ele>2302.0</ele>
      </trkpt>
      <trkpt lat="42.689910857" lon="0.1248188596">
        <time>2022-03-01T12:08:55+00:00</time>
        <ele>2300.0</ele>
      </trkpt>
      <trkpt lat="42.6897958573" lon="0.1248088852">
        <time>2022-03-01T12:08:58+00:00</time>
        <ele>2292.0</ele>
      </trkpt>
      <trkpt lat="42.6897813566" lon="0.1248702407">
        <time>2022-03-01T12:09:00+00:00</time>
        <ele>2289.0</ele>
      </trkpt>
      <trkpt lat="42.6897655986" lon="0.1249084622">
        <time>2022-03-01T12:09:01+00:00</time>
        <ele>2286.0</ele>
      </trkpt>
      <trkpt lat="42.6897156425" lon="0.124929836">
        <time>2022-03-01T12:09:04+00:00</time>
        <ele>2281.0</ele>
      </trkpt>
      <trkpt lat="42.6897118706" lon="0.124890022">
        <time>2022-03-01T12:09:05+00:00</time>
        <ele>2282.0</ele>
      </trkpt>
      <trkpt lat="42.6896751579" lon="0.1247283351">
        <time>2022-03-01T12:09:08+00:00</time>
        <ele>2286.0</ele>
      </trkpt>
      <trkpt lat="42.6896584779" lon="0.1246950589">
        <time>2022-03-01T12:09:09+00:00</time>
        <ele>2286.0</ele>
      </trkpt>
      <trkpt lat="42.6895205956" lon="0.1247372199">
        <time>2022-03-01T12:09:13+00:00</time>
        <ele>2272.0</ele>
      </trkpt>
      <trkpt lat="42.6894690469" lon="0.1246432588">
        <time>2022-03-01T12:09:15+00:00</time>
        <ele>2273.0</ele>
      </trkpt>
      <trkpt lat="42.6894350164" lon="0.1244321186">
        <time>2022-03-01T12:09:19+00:00</time>
        <ele>2281.0</ele>
      </trkpt>
      <trkpt lat="42.6894505229" lon="0.1244462002">
        <time>2022-03-01T12:09:31+00:00</time>
        <ele>2281.0</ele>
      </trkpt>
      <trkpt lat="42.689469466" lon="0.1244542468">
        <time>2022-03-01T12:09:45+00:00</time>
        <ele>2282.0</ele>
      </trkpt>
      <trkpt lat="42.6894320827" lon="0.1243259199">
        <time>2022-03-01T12:09:49+00:00</time>
        <ele>2284.0</ele>
      </trkpt>
      <trkpt lat="42.689394448" lon="0.1241426077">
        <time>2022-03-01T12:09:54+00:00</time>
        <ele>2286.0</ele>
      </trkpt>
      <trkpt lat="42.689286489" lon="0.1241397578">
        <time>2022-03-01T12:09:57+00:00</time>
        <ele>2281.0</ele>
      </trkpt>
      <trkpt lat="42.6892405562" lon="0.1240629796">
        <time>2022-03-01T12:09:59+00:00</time>
        <ele>2280.0</ele>
      </trkpt>
      <trkpt lat="42.6891915221" lon="0.1240297034">
        <time>2022-03-01T12:10:01+00:00</time>
        <ele>2278.0</ele>
      </trkpt>
      <trkpt lat="42.6891031768" lon="0.1240301225">
        <time>2022-03-01T12:10:04+00:00</time>
        <ele>2272.0</ele>
      </trkpt>
      <trkpt lat="42.6891051047" lon="0.1240095031">
        <time>2022-03-01T12:10:05+00:00</time>
        <ele>2272.0</ele>
      </trkpt>
      <trkpt lat="42.6891272329" lon="0.1239434537">
        <time>2022-03-01T12:10:07+00:00</time>
        <ele>2275.0</ele>
      </trkpt>
      <trkpt lat="42.6891273167" lon="0.1238554437">
        <time>2022-03-01T12:10:10+00:00</time>
        <ele>2277.0</ele>
      </trkpt>
      <trkpt lat="42.6891215332" lon="0.1238466427">
        <time>2022-03-01T12:10:11+00:00</time>
        <ele>2277.0</ele>
      </trkpt>
      <trkpt lat="42.6890283264" lon="0.1238147076">
        <time>2022-03-01T12:10:14+00:00</time>
        <ele>2272.0</ele>
      </trkpt>
      <trkpt lat="42.6889628638" lon="0.1238268614">
        <time>2022-03-01T12:10:16+00:00</time>
        <ele>2267.0</ele>
      </trkpt>
      <trkpt lat="42.6887662243" lon="0.1238759793">
        <time>2022-03-01T12:10:19+00:00</time>
        <ele>2254.0</ele>
      </trkpt>
      <trkpt lat="42.6886995882" lon="0.1237479039">
        <time>2022-03-01T12:10:21+00:00</time>
        <ele>2256.0</ele>
      </trkpt>
      <trkpt lat="42.6886366401" lon="0.1234618295">
        <time>2022-03-01T12:10:25+00:00</time>
        <ele>2251.0</ele>
      </trkpt>
      <trkpt lat="42.6885429304" lon="0.1233861409">
        <time>2022-03-01T12:10:27+00:00</time>
        <ele>2245.0</ele>
      </trkpt>
      <trkpt lat="42.6885293517" lon="0.1232653577">
        <time>2022-03-01T12:10:29+00:00</time>
        <ele>2243.0</ele>
      </trkpt>
      <trkpt lat="42.6885232329" lon="0.1231506933">
        <time>2022-03-01T12:10:31+00:00</time>
        <ele>2241.0</ele>
      </trkpt>
      <trkpt lat="42.6884250809" lon="0.1230287366">
        <time>2022-03-01T12:10:34+00:00</time>
        <ele>2235.0</ele>
      </trkpt>
      <trkpt lat="42.6884111669" lon="0.1229644474">
        <time>2022-03-01T12:10:35+00:00</time>
        <ele>2234.0</ele>
      </trkpt>
      <trkpt lat="42.6883307006" lon="0.1228431612">
        <time>2022-03-01T12:10:38+00:00</time>
        <ele>2229.0</ele>
      </trkpt>
      <trkpt lat="42.6882894617" lon="0.1228047721">
        <time>2022-03-01T12:10:39+00:00</time>
        <ele>2227.0</ele>
      </trkpt>
      <trkpt lat="42.6881768927" lon="0.1226645429">
        <time>2022-03-01T12:10:42+00:00</time>
        <ele>2221.0</ele>
      </trkpt>
      <trkpt lat="42.6881151181" lon="0.1224533189">
        <time>2022-03-01T12:10:45+00:00</time>
        <ele>2218.0</ele>
      </trkpt>
      <trkpt lat="42.6880843565" lon="0.1222472079">
        <time>2022-03-01T12:10:49+00:00</time>
        <ele>2216.0</ele>
      </trkpt>
      <trkpt lat="42.6879788283" lon="0.122160539">
        <time>2022-03-01T12:10:52+00:00</time>
        <ele>2211.0</ele>
      </trkpt>
      <trkpt lat="42.6879064925" lon="0.1221398357">
        <time>2022-03-01T12:10:54+00:00</time>
        <ele>2208.0</ele>
      </trkpt>
      <trkpt lat="42.6878282055" lon="0.1221160311">
        <time>2022-03-01T12:10:56+00:00</time>
        <ele>2205.0</ele>
      </trkpt>
      <trkpt lat="42.6877542771" lon="0.1220441982">
        <time>2022-03-01T12:10:58+00:00</time>
        <ele>2201.0</ele>
      </trkpt>
      <trkpt lat="42.6875971165" lon="0.1219506562">
        <time>2022-03-01T12:11:01+00:00</time>
        <ele>2193.0</ele>
      </trkpt>
      <trkpt lat="42.6875868905" lon="0.1218849421">
        <time>2022-03-01T12:11:02+00:00</time>
        <ele>2192.0</ele>
      </trkpt>
      <trkpt lat="42.6874568034" lon="0.1217729598">
        <time>2022-03-01T12:11:06+00:00</time>
        <ele>2185.0</ele>
      </trkpt>
      <trkpt lat="42.6873128861" lon="0.1217186451">
        <time>2022-03-01T12:11:08+00:00</time>
        <ele>2178.0</ele>
      </trkpt>
      <trkpt lat="42.686972497" lon="0.1215468999">
        <time>2022-03-01T12:11:13+00:00</time>
        <ele>2168.0</ele>
      </trkpt>
      <trkpt lat="42.68676362" lon="0.1213941816">
        <time>2022-03-01T12:11:17+00:00</time>
        <ele>2163.0</ele>
      </trkpt>
      <trkpt lat="42.6867627818" lon="0.1213290542">
        <time>2022-03-01T12:11:24+00:00</time>
        <ele>2163.0</ele>
      </trkpt>
      <trkpt lat="42.686732607" lon="0.1212860551">
        <time>2022-03-01T12:11:39+00:00</time>
        <ele>2162.0</ele>
      </trkpt>
      <trkpt lat="42.6867906097" lon="0.1212969515">
        <time>2022-03-01T12:12:01+00:00</time>
        <ele>2163.0</ele>
      </trkpt>
      <trkpt lat="42.6867958065" lon="0.1212243643">
        <time>2022-03-01T12:12:16+00:00</time>
        <ele>2164.0</ele>
      </trkpt>
      <trkpt lat="42.6868656278" lon="0.1211563032">
        <time>2022-03-01T12:12:27+00:00</time>
        <ele>2166.0</ele>
      </trkpt>
      <trkpt lat="42.6868895162" lon="0.1210403815">
        <time>2022-03-01T12:12:32+00:00</time>
        <ele>2167.0</ele>
      </trkpt>
      <trkpt lat="42.6867453475" lon="0.1210726518">
        <time>2022-03-01T12:12:37+00:00</time>
        <ele>2162.0</ele>
      </trkpt>
      <trkpt lat="42.68646162" lon="0.120978523">
        <time>2022-03-01T12:12:49+00:00</time>
        <ele>2155.0</ele>
      </trkpt>
      <trkpt lat="42.6862294413" lon="0.1208984759">
        <time>2022-03-01T12:13:02+00:00</time>
        <ele>2147.0</ele>
      </trkpt>
      <trkpt lat="42.6861589495" lon="0.1209891681">
        <time>2022-03-01T12:13:05+00:00</time>
        <ele>2143.0</ele>
      </trkpt>
      <trkpt lat="42.6860473026" lon="0.1210368611">
        <time>2022-03-01T12:13:07+00:00</time>
        <ele>2139.0</ele>
      </trkpt>
      <trkpt lat="42.6859415229" lon="0.1210806984">
        <time>2022-03-01T12:13:09+00:00</time>
        <ele>2137.0</ele>
      </trkpt>
      <trkpt lat="42.6857197378" lon="0.121197626">
        <time>2022-03-01T12:13:13+00:00</time>
        <ele>2133.0</ele>
      </trkpt>
      <trkpt lat="42.6856122818" lon="0.1212135516">
        <time>2022-03-01T12:13:15+00:00</time>
        <ele>2131.0</ele>
      </trkpt>
      <trkpt lat="42.6855625771" lon="0.1212546229">
        <time>2022-03-01T12:13:16+00:00</time>
        <ele>2129.0</ele>
      </trkpt>
      <trkpt lat="42.6853661053" lon="0.1212691236">
        <time>2022-03-01T12:13:19+00:00</time>
        <ele>2125.0</ele>
      </trkpt>
      <trkpt lat="42.685160581" lon="0.1212894917">
        <time>2022-03-01T12:13:22+00:00</time>
        <ele>2117.0</ele>
      </trkpt>
      <trkpt lat="42.6850417256" lon="0.1212302316">
        <time>2022-03-01T12:13:25+00:00</time>
        <ele>2114.0</ele>
      </trkpt>
      <trkpt lat="42.6849138178" lon="0.1212418824">
        <time>2022-03-01T12:13:28+00:00</time>
        <ele>2106.0</ele>
      </trkpt>
      <trkpt lat="42.6848399732" lon="0.121365767">
        <time>2022-03-01T12:13:31+00:00</time>
        <ele>2097.0</ele>
      </trkpt>
      <trkpt lat="42.6847874187" lon="0.121461153">
        <time>2022-03-01T12:13:33+00:00</time>
        <ele>2090.0</ele>
      </trkpt>
      <trkpt lat="42.6847649552" lon="0.1214720495">
        <time>2022-03-01T12:13:34+00:00</time>
        <ele>2089.0</ele>
      </trkpt>
      <trkpt lat="42.6847370435" lon="0.1214269549">
        <time>2022-03-01T12:13:44+00:00</time>
        <ele>2091.0</ele>
      </trkpt>
      <trkpt lat="42.6847383846" lon="0.1214308105">
        <time>2022-03-01T12:13:55+00:00</time>
        <ele>2090.0</ele>
      </trkpt>
      <trkpt lat="42.6846778672" lon="0.1214277092">
        <time>2022-03-01T12:13:59+00:00</time>
        <ele>2089.0</ele>
      </trkpt>
      <trkpt lat="42.6844663918" lon="0.1214450598">
        <time>2022-03-01T12:14:08+00:00</time>
        <ele>2087.0</ele>
      </trkpt>
      <trkpt lat="42.6842011046" lon="0.1216188166">
        <time>2022-03-01T12:14:18+00:00</time>
        <ele>2087.0</ele>
      </trkpt>
      <trkpt lat="42.6840324607" lon="0.1218406856">
        <time>2022-03-01T12:14:23+00:00</time>
        <ele>2086.0</ele>
      </trkpt>
      <trkpt lat="42.6837893017" lon="0.1222075615">
        <time>2022-03-01T12:14:36+00:00</time>
        <ele>2083.0</ele>
      </trkpt>
      <trkpt lat="42.6835933328" lon="0.1224929653">
        <time>2022-03-01T12:14:51+00:00</time>
        <ele>2077.0</ele>
      </trkpt>
      <trkpt lat="42.6834872179" lon="0.1226314344">
        <time>2022-03-01T12:14:55+00:00</time>
        <ele>2072.0</ele>
      </trkpt>
      <trkpt lat="42.6834127866" lon="0.1227344479">
        <time>2022-03-01T12:15:04+00:00</time>
        <ele>2067.0</ele>
      </trkpt>
      <trkpt lat="42.6834408659" lon="0.1226849109">
        <time>2022-03-01T12:15:27+00:00</time>
        <ele>2070.0</ele>
      </trkpt>
      <trkpt lat="42.6834380999" lon="0.1227003336">
        <time>2022-03-01T12:15:40+00:00</time>
        <ele>2069.0</ele>
      </trkpt>
      <trkpt lat="42.6834510081" lon="0.1227015071">
        <time>2022-03-01T12:15:42+00:00</time>
        <ele>2069.0</ele>
      </trkpt>
      <trkpt lat="42.6835134532" lon="0.1226840727">
        <time>2022-03-01T12:15:45+00:00</time>
        <ele>2070.0</ele>
      </trkpt>
      <trkpt lat="42.683563577" lon="0.1227764413">
        <time>2022-03-01T12:15:49+00:00</time>
        <ele>2064.0</ele>
      </trkpt>
      <trkpt lat="42.6835762337" lon="0.1228465978">
        <time>2022-03-01T12:15:51+00:00</time>
        <ele>2060.0</ele>
      </trkpt>
      <trkpt lat="42.6834962703" lon="0.1229719911">
        <time>2022-03-01T12:15:56+00:00</time>
        <ele>2052.0</ele>
      </trkpt>
      <trkpt lat="42.6834123675" lon="0.1230560616">
        <time>2022-03-01T12:16:00+00:00</time>
        <ele>2047.0</ele>
      </trkpt>
      <trkpt lat="42.6832535304" lon="0.1231130585">
        <time>2022-03-01T12:16:07+00:00</time>
        <ele>2045.0</ele>
      </trkpt>
      <trkpt lat="42.6831496786" lon="0.1231584884">
        <time>2022-03-01T12:16:09+00:00</time>
        <ele>2045.0</ele>
      </trkpt>
      <trkpt lat="42.6830491796" lon="0.1232024096">
        <time>2022-03-01T12:16:11+00:00</time>
        <ele>2044.0</ele>
      </trkpt>
      <trkpt lat="42.6828596648" lon="0.1233630907">
        <time>2022-03-01T12:16:20+00:00</time>
        <ele>2041.0</ele>
      </trkpt>
      <trkpt lat="42.6828908455" lon="0.1233933493">
        <time>2022-03-01T12:16:38+00:00</time>
        <ele>2039.0</ele>
      </trkpt>
      <trkpt lat="42.6828494389" lon="0.1235405356">
        <time>2022-03-01T12:16:43+00:00</time>
        <ele>2033.0</ele>
      </trkpt>
      <trkpt lat="42.6828853972" lon="0.1236562897">
        <time>2022-03-01T12:16:46+00:00</time>
        <ele>2026.0</ele>
      </trkpt>
      <trkpt lat="42.6828353573" lon="0.1237824373">
        <time>2022-03-01T12:16:48+00:00</time>
        <ele>2020.0</ele>
      </trkpt>
      <trkpt lat="42.6827677153" lon="0.1239325572">
        <time>2022-03-01T12:16:51+00:00</time>
        <ele>2014.0</ele>
      </trkpt>
      <trkpt lat="42.6827890892" lon="0.1240369957">
        <time>2022-03-01T12:16:54+00:00</time>
        <ele>2010.0</ele>
      </trkpt>
      <trkpt lat="42.6827918552" lon="0.12408318">
        <time>2022-03-01T12:16:55+00:00</time>
        <ele>2009.0</ele>
      </trkpt>
      <trkpt lat="42.6827934477" lon="0.1241203956">
        <time>2022-03-01T12:16:56+00:00</time>
        <ele>2008.0</ele>
      </trkpt>
      <trkpt lat="42.6827482693" lon="0.12420916">
        <time>2022-03-01T12:16:58+00:00</time>
        <ele>2005.0</ele>
      </trkpt>
      <trkpt lat="42.6826023404" lon="0.1243871078">
        <time>2022-03-01T12:17:02+00:00</time>
        <ele>1993.0</ele>
      </trkpt>
      <trkpt lat="42.6825333573" lon="0.1244887803">
        <time>2022-03-01T12:17:05+00:00</time>
        <ele>1986.0</ele>
      </trkpt>
      <trkpt lat="42.6824080478" lon="0.1246402413">
        <time>2022-03-01T12:17:09+00:00</time>
        <ele>1973.0</ele>
      </trkpt>
      <trkpt lat="42.6823850814" lon="0.1246557478">
        <time>2022-03-01T12:17:10+00:00</time>
        <ele>1971.0</ele>
      </trkpt>
      <trkpt lat="42.6823510509" lon="0.1247014292">
        <time>2022-03-01T12:17:17+00:00</time>
        <ele>1968.0</ele>
      </trkpt>
      <trkpt lat="42.682407042" lon="0.1246853359">
        <time>2022-03-01T12:17:21+00:00</time>
        <ele>1970.0</ele>
      </trkpt>
      <trkpt lat="42.6824294217" lon="0.1246728469">
        <time>2022-03-01T12:17:22+00:00</time>
        <ele>1972.0</ele>
      </trkpt>
      <trkpt lat="42.6824898552" lon="0.1247526426">
        <time>2022-03-01T12:17:25+00:00</time>
        <ele>1969.0</ele>
      </trkpt>
      <trkpt lat="42.6824852452" lon="0.1248057839">
        <time>2022-03-01T12:17:26+00:00</time>
        <ele>1966.0</ele>
      </trkpt>
      <trkpt lat="42.6824679784" lon="0.1249944605">
        <time>2022-03-01T12:17:30+00:00</time>
        <ele>1958.0</ele>
      </trkpt>
      <trkpt lat="42.6824568305" lon="0.1250675507">
        <time>2022-03-01T12:17:32+00:00</time>
        <ele>1955.0</ele>
      </trkpt>
      <trkpt lat="42.6824347023" lon="0.1251575723">
        <time>2022-03-01T12:17:34+00:00</time>
        <ele>1952.0</ele>
      </trkpt>
      <trkpt lat="42.6825962216" lon="0.125083141">
        <time>2022-03-01T12:17:38+00:00</time>
        <ele>1958.0</ele>
      </trkpt>
      <trkpt lat="42.682652045" lon="0.1251224522">
        <time>2022-03-01T12:17:40+00:00</time>
        <ele>1958.0</ele>
      </trkpt>
      <trkpt lat="42.6826565713" lon="0.1252073608">
        <time>2022-03-01T12:17:43+00:00</time>
        <ele>1956.0</ele>
      </trkpt>
      <trkpt lat="42.6826277375" lon="0.1252351888">
        <time>2022-03-01T12:17:45+00:00</time>
        <ele>1954.0</ele>
      </trkpt>
      <trkpt lat="42.6825851575" lon="0.1252138987">
        <time>2022-03-01T12:17:54+00:00</time>
        <ele>1954.0</ele>
      </trkpt>
      <trkpt lat="42.6825055294" lon="0.1251502801">
        <time>2022-03-01T12:18:06+00:00</time>
        <ele>1953.0</ele>
      </trkpt>
      <trkpt lat="42.6825096365" lon="0.1251446642">
        <time>2022-03-01T12:18:09+00:00</time>
        <ele>1954.0</ele>
      </trkpt>
      <trkpt lat="42.6826439146" lon="0.1251828857">
        <time>2022-03-01T12:18:14+00:00</time>
        <ele>1956.0</ele>
      </trkpt>
      <trkpt lat="42.6826830581" lon="0.1252828818">
        <time>2022-03-01T12:18:17+00:00</time>
        <ele>1955.0</ele>
      </trkpt>
      <trkpt lat="42.6826676354" lon="0.1253695507">
        <time>2022-03-01T12:18:19+00:00</time>
        <ele>1952.0</ele>
      </trkpt>
      <trkpt lat="42.682716921" lon="0.1254273858">
        <time>2022-03-01T12:18:21+00:00</time>
        <ele>1951.0</ele>
      </trkpt>
      <trkpt lat="42.6827879995" lon="0.1255506836">
        <time>2022-03-01T12:18:24+00:00</time>
        <ele>1950.0</ele>
      </trkpt>
      <trkpt lat="42.6828275621" lon="0.1256470755">
        <time>2022-03-01T12:18:26+00:00</time>
        <ele>1948.0</ele>
      </trkpt>
      <trkpt lat="42.6828370336" lon="0.1257202495">
        <time>2022-03-01T12:18:28+00:00</time>
        <ele>1948.0</ele>
      </trkpt>
      <trkpt lat="42.6828110497" lon="0.1257442217">
        <time>2022-03-01T12:18:29+00:00</time>
        <ele>1947.0</ele>
      </trkpt>
      <trkpt lat="42.682791939" lon="0.1257651765">
        <time>2022-03-01T12:18:30+00:00</time>
        <ele>1946.0</ele>
      </trkpt>
      <trkpt lat="42.6828411408" lon="0.1258973591">
        <time>2022-03-01T12:18:33+00:00</time>
        <ele>1945.0</ele>
      </trkpt>
      <trkpt lat="42.6828482654" lon="0.1260844432">
        <time>2022-03-01T12:18:36+00:00</time>
        <ele>1943.0</ele>
      </trkpt>
      <trkpt lat="42.6828424819" lon="0.1261320524">
        <time>2022-03-01T12:18:37+00:00</time>
        <ele>1942.0</ele>
      </trkpt>
      <trkpt lat="42.6827782765" lon="0.1261669211">
        <time>2022-03-01T12:18:45+00:00</time>
        <ele>1941.0</ele>
      </trkpt>
      <trkpt lat="42.6827996504" lon="0.1263162866">
        <time>2022-03-01T12:18:52+00:00</time>
        <ele>1939.0</ele>
      </trkpt>
      <trkpt lat="42.6828688011" lon="0.1265674084">
        <time>2022-03-01T12:18:59+00:00</time>
        <ele>1937.0</ele>
      </trkpt>
      <trkpt lat="42.6828916837" lon="0.1268922072">
        <time>2022-03-01T12:19:02+00:00</time>
        <ele>1935.0</ele>
      </trkpt>
      <trkpt lat="42.6829066034" lon="0.1271481067">
        <time>2022-03-01T12:19:04+00:00</time>
        <ele>1933.0</ele>
      </trkpt>
      <trkpt lat="42.6829149015" lon="0.1273597497">
        <time>2022-03-01T12:19:06+00:00</time>
        <ele>1931.0</ele>
      </trkpt>
      <trkpt lat="42.6829296537" lon="0.1275895815">
        <time>2022-03-01T12:19:09+00:00</time>
        <ele>1928.0</ele>
      </trkpt>
      <trkpt lat="42.6828136481" lon="0.1278899889">
        <time>2022-03-01T12:19:14+00:00</time>
        <ele>1924.0</ele>
      </trkpt>
      <trkpt lat="42.6826402266" lon="0.1280294638">
        <time>2022-03-01T12:19:17+00:00</time>
        <ele>1922.0</ele>
      </trkpt>
      <trkpt lat="42.682428835" lon="0.1281981077">
        <time>2022-03-01T12:19:21+00:00</time>
        <ele>1921.0</ele>
      </trkpt>
      <trkpt lat="42.6823254023" lon="0.1284452062">
        <time>2022-03-01T12:19:26+00:00</time>
        <ele>1918.0</ele>
      </trkpt>
      <trkpt lat="42.6822505519" lon="0.12858334">
        <time>2022-03-01T12:19:29+00:00</time>
        <ele>1915.0</ele>
      </trkpt>
      <trkpt lat="42.6821938064" lon="0.1286426">
        <time>2022-03-01T12:19:31+00:00</time>
        <ele>1915.0</ele>
      </trkpt>
      <trkpt lat="42.6821710914" lon="0.12867596">
        <time>2022-03-01T12:19:32+00:00</time>
        <ele>1914.0</ele>
      </trkpt>
      <trkpt lat="42.682153238" lon="0.1286104973">
        <time>2022-03-01T12:19:40+00:00</time>
        <ele>1915.0</ele>
      </trkpt>
      <trkpt lat="42.6822503004" lon="0.1284922287">
        <time>2022-03-01T12:19:58+00:00</time>
        <ele>1917.0</ele>
      </trkpt>
      <trkpt lat="42.6822420862" lon="0.1285380777">
        <time>2022-03-01T12:20:13+00:00</time>
        <ele>1916.0</ele>
      </trkpt>
      <trkpt lat="42.6822426729" lon="0.1285478007">
        <time>2022-03-01T12:20:31+00:00</time>
        <ele>1916.0</ele>
      </trkpt>
      <trkpt lat="42.6822271664" lon="0.1285491418">
        <time>2022-03-01T12:20:53+00:00</time>
        <ele>1916.0</ele>
      </trkpt>
      <trkpt lat="42.6822269149" lon="0.1285649836">
        <time>2022-03-01T12:20:55+00:00</time>
        <ele>1916.0</ele>
      </trkpt>
      <trkpt lat="42.6822326984" lon="0.1287328731">
        <time>2022-03-01T12:21:03+00:00</time>
        <ele>1913.0</ele>
      </trkpt>
      <trkpt lat="42.682241248" lon="0.128769502">
        <time>2022-03-01T12:21:04+00:00</time>
        <ele>1913.0</ele>
      </trkpt>
      <trkpt lat="42.682259772" lon="0.1289341226">
        <time>2022-03-01T12:21:08+00:00</time>
        <ele>1910.0</ele>
      </trkpt>
      <trkpt lat="42.6822155993" lon="0.1291670557">
        <time>2022-03-01T12:21:12+00:00</time>
        <ele>1907.0</ele>
      </trkpt>
      <trkpt lat="42.6822016016" lon="0.1293057762">
        <time>2022-03-01T12:21:15+00:00</time>
        <ele>1905.0</ele>
      </trkpt>
      <trkpt lat="42.6821959019" lon="0.1293358672">
        <time>2022-03-01T12:21:19+00:00</time>
        <ele>1905.0</ele>
      </trkpt>
      <trkpt lat="42.682266729" lon="0.1294356957">
        <time>2022-03-01T12:21:23+00:00</time>
        <ele>1906.0</ele>
      </trkpt>
      <trkpt lat="42.6822839119" lon="0.1295299921">
        <time>2022-03-01T12:21:25+00:00</time>
        <ele>1906.0</ele>
      </trkpt>
      <trkpt lat="42.6822837442" lon="0.1295628492">
        <time>2022-03-01T12:21:26+00:00</time>
        <ele>1906.0</ele>
      </trkpt>
      <trkpt lat="42.6823475305" lon="0.1296389569">
        <time>2022-03-01T12:21:31+00:00</time>
        <ele>1907.0</ele>
      </trkpt>
      <trkpt lat="42.682413999" lon="0.1296440698">
        <time>2022-03-01T12:21:34+00:00</time>
        <ele>1907.0</ele>
      </trkpt>
      <trkpt lat="42.6824224647" lon="0.1296344306">
        <time>2022-03-01T12:21:35+00:00</time>
        <ele>1907.0</ele>
      </trkpt>
      <trkpt lat="42.6824299246" lon="0.1296276413">
        <time>2022-03-01T12:21:54+00:00</time>
        <ele>1908.0</ele>
      </trkpt>
      <trkpt lat="42.682427913" lon="0.1296376996">
        <time>2022-03-01T12:22:19+00:00</time>
        <ele>1908.0</ele>
      </trkpt>
      <trkpt lat="42.6825398114" lon="0.1296084467">
        <time>2022-03-01T12:22:34+00:00</time>
        <ele>1908.0</ele>
      </trkpt>
      <trkpt lat="42.6826639473" lon="0.1295399666">
        <time>2022-03-01T12:22:47+00:00</time>
        <ele>1909.0</ele>
      </trkpt>
      <trkpt lat="42.6827838924" lon="0.1296102908">
        <time>2022-03-01T12:23:01+00:00</time>
        <ele>1910.0</ele>
      </trkpt>
      <trkpt lat="42.6828397997" lon="0.1297163218">
        <time>2022-03-01T12:23:17+00:00</time>
        <ele>1911.0</ele>
      </trkpt>
      <trkpt lat="42.6828435715" lon="0.1297164895">
        <time>2022-03-01T12:23:37+00:00</time>
        <ele>1911.0</ele>
      </trkpt>
      <trkpt lat="42.6828724891" lon="0.1296742447">
        <time>2022-03-01T12:23:54+00:00</time>
        <ele>1911.0</ele>
      </trkpt>
      <trkpt lat="42.682836866" lon="0.1297640149">
        <time>2022-03-01T12:24:10+00:00</time>
        <ele>1910.0</ele>
      </trkpt>
      <trkpt lat="42.682849858" lon="0.1299695391">
        <time>2022-03-01T12:24:19+00:00</time>
        <ele>1910.0</ele>
      </trkpt>
      <trkpt lat="42.6828276459" lon="0.1302758977">
        <time>2022-03-01T12:24:27+00:00</time>
        <ele>1909.0</ele>
      </trkpt>
      <trkpt lat="42.6828708965" lon="0.1305966731">
        <time>2022-03-01T12:24:33+00:00</time>
        <ele>1910.0</ele>
      </trkpt>
      <trkpt lat="42.6828589104" lon="0.1307082362">
        <time>2022-03-01T12:24:35+00:00</time>
        <ele>1910.0</ele>
      </trkpt>
      <trkpt lat="42.6828416437" lon="0.1308058016">
        <time>2022-03-01T12:24:37+00:00</time>
        <ele>1909.0</ele>
      </trkpt>
      <trkpt lat="42.6828162465" lon="0.1310401596">
        <time>2022-03-01T12:24:47+00:00</time>
        <ele>1908.0</ele>
      </trkpt>
      <trkpt lat="42.6828171685" lon="0.131063126">
        <time>2022-03-01T12:24:49+00:00</time>
        <ele>1908.0</ele>
      </trkpt>
      <trkpt lat="42.6827890892" lon="0.1314769406">
        <time>2022-03-01T12:25:02+00:00</time>
        <ele>1908.0</ele>
      </trkpt>
      <trkpt lat="42.6827493589" lon="0.1316851471">
        <time>2022-03-01T12:25:07+00:00</time>
        <ele>1907.0</ele>
      </trkpt>
      <trkpt lat="42.6827124786" lon="0.131787993">
        <time>2022-03-01T12:25:09+00:00</time>
        <ele>1906.0</ele>
      </trkpt>
      <trkpt lat="42.6826352812" lon="0.131979771">
        <time>2022-03-01T12:25:12+00:00</time>
        <ele>1903.0</ele>
      </trkpt>
      <trkpt lat="42.682552468" lon="0.1322694495">
        <time>2022-03-01T12:25:16+00:00</time>
        <ele>1899.0</ele>
      </trkpt>
      <trkpt lat="42.6823950559" lon="0.1325413585">
        <time>2022-03-01T12:25:20+00:00</time>
        <ele>1892.0</ele>
      </trkpt>
      <trkpt lat="42.6823325269" lon="0.1327719446">
        <time>2022-03-01T12:25:23+00:00</time>
        <ele>1887.0</ele>
      </trkpt>
      <trkpt lat="42.682332024" lon="0.1328466274">
        <time>2022-03-01T12:25:24+00:00</time>
        <ele>1886.0</ele>
      </trkpt>
      <trkpt lat="42.6823585946" lon="0.1330602821">
        <time>2022-03-01T12:25:27+00:00</time>
        <ele>1885.0</ele>
      </trkpt>
      <trkpt lat="42.6823644619" lon="0.1332037803">
        <time>2022-03-01T12:25:29+00:00</time>
        <ele>1884.0</ele>
      </trkpt>
      <trkpt lat="42.6823809743" lon="0.1333346218">
        <time>2022-03-01T12:25:31+00:00</time>
        <ele>1884.0</ele>
      </trkpt>
      <trkpt lat="42.6823978219" lon="0.1335712429">
        <time>2022-03-01T12:25:35+00:00</time>
        <ele>1883.0</ele>
      </trkpt>
      <trkpt lat="42.6824327745" lon="0.1340021566">
        <time>2022-03-01T12:25:46+00:00</time>
        <ele>1881.0</ele>
      </trkpt>
      <trkpt lat="42.6824655477" lon="0.134192761">
        <time>2022-03-01T12:25:50+00:00</time>
        <ele>1881.0</ele>
      </trkpt>
      <trkpt lat="42.6824383903" lon="0.1346145384">
        <time>2022-03-01T12:25:56+00:00</time>
        <ele>1876.0</ele>
      </trkpt>
      <trkpt lat="42.6824169327" lon="0.1349675003">
        <time>2022-03-01T12:26:00+00:00</time>
        <ele>1872.0</ele>
      </trkpt>
      <trkpt lat="42.682424644" lon="0.1351414248">
        <time>2022-03-01T12:26:03+00:00</time>
        <ele>1873.0</ele>
      </trkpt>
      <trkpt lat="42.682402432" lon="0.1353135053">
        <time>2022-03-01T12:26:06+00:00</time>
        <ele>1872.0</ele>
      </trkpt>
      <trkpt lat="42.6823418308" lon="0.1355238073">
        <time>2022-03-01T12:26:14+00:00</time>
        <ele>1869.0</ele>
      </trkpt>
      <trkpt lat="42.6823363826" lon="0.1355886832">
        <time>2022-03-01T12:26:16+00:00</time>
        <ele>1869.0</ele>
      </trkpt>
      <trkpt lat="42.6823742688" lon="0.1357320976">
        <time>2022-03-01T12:26:30+00:00</time>
        <ele>1873.0</ele>
      </trkpt>
      <trkpt lat="42.6824102271" lon="0.1357194409">
        <time>2022-03-01T12:26:50+00:00</time>
        <ele>1876.0</ele>
      </trkpt>
      <trkpt lat="42.6823801361" lon="0.1357087959">
        <time>2022-03-01T12:27:10+00:00</time>
        <ele>1873.0</ele>
      </trkpt>
      <trkpt lat="42.6823807228" lon="0.135815246">
        <time>2022-03-01T12:27:24+00:00</time>
        <ele>1874.0</ele>
      </trkpt>
      <trkpt lat="42.682363959" lon="0.1360025816">
        <time>2022-03-01T12:27:36+00:00</time>
        <ele>1878.0</ele>
      </trkpt>
      <trkpt lat="42.6823109854" lon="0.1362397894">
        <time>2022-03-01T12:27:52+00:00</time>
        <ele>1882.0</ele>
      </trkpt>
      <trkpt lat="42.6822545752" lon="0.1364790089">
        <time>2022-03-01T12:28:09+00:00</time>
        <ele>1883.0</ele>
      </trkpt>
      <trkpt lat="42.6822385658" lon="0.136505831">
        <time>2022-03-01T12:28:11+00:00</time>
        <ele>1882.0</ele>
      </trkpt>
      <trkpt lat="42.6821358036" lon="0.136714289">
        <time>2022-03-01T12:28:26+00:00</time>
        <ele>1876.0</ele>
      </trkpt>
      <trkpt lat="42.6820076443" lon="0.1368748862">
        <time>2022-03-01T12:28:41+00:00</time>
        <ele>1871.0</ele>
      </trkpt>
      <trkpt lat="42.6819995977" lon="0.1369188074">
        <time>2022-03-01T12:28:44+00:00</time>
        <ele>1871.0</ele>
      </trkpt>
      <trkpt lat="42.6819260046" lon="0.1371770538">
        <time>2022-03-01T12:29:00+00:00</time>
        <ele>1872.0</ele>
      </trkpt>
      <trkpt lat="42.6819229871" lon="0.1371916384">
        <time>2022-03-01T12:29:01+00:00</time>
        <ele>1872.0</ele>
      </trkpt>
      <trkpt lat="42.6819181256" lon="0.1372885332">
        <time>2022-03-01T12:29:07+00:00</time>
        <ele>1874.0</ele>
      </trkpt>
      <trkpt lat="42.6818791497" lon="0.1375065465">
        <time>2022-03-01T12:29:20+00:00</time>
        <ele>1877.0</ele>
      </trkpt>
      <trkpt lat="42.6817794051" lon="0.137739731">
        <time>2022-03-01T12:29:35+00:00</time>
        <ele>1880.0</ele>
      </trkpt>
      <trkpt lat="42.6817903854" lon="0.1377764437">
        <time>2022-03-01T12:29:50+00:00</time>
        <ele>1881.0</ele>
      </trkpt>
      <trkpt lat="42.6817679219" lon="0.1377572492">
        <time>2022-03-01T12:30:08+00:00</time>
        <ele>1879.0</ele>
      </trkpt>
      <trkpt lat="42.6817634795" lon="0.1378080435">
        <time>2022-03-01T12:30:25+00:00</time>
        <ele>1880.0</ele>
      </trkpt>
      <trkpt lat="42.6816462167" lon="0.1380567346">
        <time>2022-03-01T12:30:38+00:00</time>
        <ele>1879.0</ele>
      </trkpt>
      <trkpt lat="42.6813317277" lon="0.1383086946">
        <time>2022-03-01T12:30:51+00:00</time>
        <ele>1870.0</ele>
      </trkpt>
      <trkpt lat="42.6810988784" lon="0.1385448966">
        <time>2022-03-01T12:31:06+00:00</time>
        <ele>1858.0</ele>
      </trkpt>
      <trkpt lat="42.6810713857" lon="0.1385428011">
        <time>2022-03-01T12:31:20+00:00</time>
        <ele>1856.0</ele>
      </trkpt>
      <trkpt lat="42.6810827013" lon="0.1385504287">
        <time>2022-03-01T12:31:38+00:00</time>
        <ele>1857.0</ele>
      </trkpt>
      <trkpt lat="42.6810265426" lon="0.1386946812">
        <time>2022-03-01T12:31:51+00:00</time>
        <ele>1853.0</ele>
      </trkpt>
      <trkpt lat="42.6809690427" lon="0.138811525">
        <time>2022-03-01T12:32:00+00:00</time>
        <ele>1848.0</ele>
      </trkpt>
      <trkpt lat="42.6808896661" lon="0.1390234195">
        <time>2022-03-01T12:32:17+00:00</time>
        <ele>1843.0</ele>
      </trkpt>
      <trkpt lat="42.6808703039" lon="0.1390040573">
        <time>2022-03-01T12:32:37+00:00</time>
        <ele>1842.0</ele>
      </trkpt>
      <trkpt lat="42.6808732376" lon="0.1389915682">
        <time>2022-03-01T12:33:04+00:00</time>
        <ele>1842.0</ele>
      </trkpt>
      <trkpt lat="42.6808440685" lon="0.1390034705">
        <time>2022-03-01T12:33:42+00:00</time>
        <ele>1841.0</ele>
      </trkpt>
      <trkpt lat="42.6808481757" lon="0.1390650775">
        <time>2022-03-01T12:34:07+00:00</time>
        <ele>1840.0</ele>
      </trkpt>
    </trkseg>
  </trk>
</gpx>
